Darstellungsparameter: Aktuell verwendete Einstellungen:
Skalierung der Graphiken ... ?
xyx+y,   Skalierungsfaktor:      Skalierung: Modus: x, Faktor: 1
Darstellungszeitraum ... ?
Vom - - bis: - -   Zeitraum: 26.04.2020 - 16.05.2020
Min/Max/Avg-Anzeige ... ?
Zeige MMA aktuell
Zeige MMA Monat
Zeige MMA alles
Zeige --A aktuell
Zeige --A Monat
Zeige --A alles
Keine MMA-Anzeige
MMA:
Average (ber die Originaldaten)
MMA-Basis: 26.04.2020 - 16.05.2020
Quicknavigation für Darstellung... ?
Tage:      1T, 2T, 3T, 5T -1T -2T -3T -5T +1T +2T +3T +5T
Wochen: 1W, 2W, 3W -1W -2W -3W +1W +2W +3W
Monate: 1M, 3M, 6M -1M -3M -6M +1M +3M +6M
Jahre:    1J, 3J, 5J, 10J -1J -3J -5J -10J +1J +3J +5J +10J
Nutze für die Darstellung ... ?
Originaldaten oder Mittelwerte auf ...
Stundenbasis Tagesbasis Wochenbasis
Monatsbasis Jahresbasis      Datenbasis: Original-Daten
Darstellen als:
Statistik (Auto) Statistik J:M      Darstellung:
Zur Graphik,    zurück zur Übersicht aller Sensoren.
 
Tabellarische Datenbersicht: ?
 
Sensor: Nr:Datum:Temp:Abs-Feuchte:Windchill:Wind:
Aussen-T/F 1 26-04-2020 00:00:00 8.3 C 6.24 g/m*3 8.3 C 0 km/h
2 26-04-2020 00:05:00 8.1 C 6.24 g/m*3 8.1 C 0 km/h
3 26-04-2020 00:10:00 7.9 C 6.24 g/m*3 7.9 C 0 km/h
4 26-04-2020 00:15:00 7.8 C 6.28 g/m*3 7.8 C 0 km/h
5 26-04-2020 00:20:00 7.6 C 6.28 g/m*3 7.6 C 0 km/h
6 26-04-2020 00:25:00 7.4 C 6.28 g/m*3 7.4 C 0 km/h
7 26-04-2020 00:30:00 7.3 C 6.24 g/m*3 7.3 C 0 km/h
8 26-04-2020 00:35:00 7.2 C 6.2 g/m*3 7.2 C 0 km/h
9 26-04-2020 00:40:00 7.1 C 6.24 g/m*3 7.1 C 0 km/h
10 26-04-2020 00:45:00 7 C 6.2 g/m*3 7 C 0 km/h
11 26-04-2020 00:50:00 6.9 C 6.24 g/m*3 6.9 C 0 km/h
12 26-04-2020 00:55:00 6.8 C 6.19 g/m*3 6.8 C 1.6 km/h
13 26-04-2020 01:00:00 6.6 C 6.19 g/m*3 6.6 C 1.6 km/h
14 26-04-2020 01:05:00 6.6 C 6.19 g/m*3 6.6 C 0 km/h
15 26-04-2020 01:10:00 6.4 C 6.11 g/m*3 6.4 C 0 km/h
16 26-04-2020 01:15:00 6.3 C 6.14 g/m*3 6.3 C 0 km/h
17 26-04-2020 01:20:00 6.2 C 6.1 g/m*3 6.2 C 0 km/h
18 26-04-2020 01:25:00 6.2 C 6.1 g/m*3 6.2 C 0 km/h
19 26-04-2020 01:30:00 6.1 C 6.14 g/m*3 6.1 C 0 km/h
20 26-04-2020 01:35:00 6 C 6.1 g/m*3 6 C 0 km/h
21 26-04-2020 01:40:00 5.9 C 6.06 g/m*3 5.9 C 0 km/h
22 26-04-2020 01:45:00 5.8 C 6.02 g/m*3 5.8 C 0 km/h
23 26-04-2020 01:50:00 5.7 C 6.05 g/m*3 5.7 C 0 km/h
24 26-04-2020 01:55:00 5.7 C 6.05 g/m*3 5.7 C 0 km/h
25 26-04-2020 02:00:00 5.6 C 6.01 g/m*3 5.6 C 0 km/h
Sensor: Nr:Datum:Temp:Abs-Feuchte:Windchill:Wind:
Aussen-T/F 26 26-04-2020 02:05:00 5.5 C 5.97 g/m*3 5.5 C 0 km/h
27 26-04-2020 02:10:00 5.4 C 6 g/m*3 5.4 C 0 km/h
28 26-04-2020 02:15:00 5.4 C 6 g/m*3 5.4 C 0 km/h
29 26-04-2020 02:20:00 5.3 C 5.96 g/m*3 5.3 C 0 km/h
30 26-04-2020 02:25:00 5.3 C 6.03 g/m*3 5.3 C 1.6 km/h
31 26-04-2020 02:30:00 5.3 C 6.03 g/m*3 5.3 C 0 km/h
32 26-04-2020 02:35:00 5.2 C 5.99 g/m*3 5.2 C 0 km/h
33 26-04-2020 02:40:00 5.2 C 5.99 g/m*3 5.2 C 4.8 km/h
34 26-04-2020 02:45:00 5.2 C 5.99 g/m*3 5.2 C 0 km/h
35 26-04-2020 02:50:00 5.3 C 6.03 g/m*3 5.3 C 0 km/h
36 26-04-2020 02:55:00 5.2 C 5.99 g/m*3 5.2 C 0 km/h
37 26-04-2020 03:00:00 5.2 C 5.99 g/m*3 5.2 C 0 km/h
38 26-04-2020 03:05:00 5.1 C 5.95 g/m*3 5.1 C 0 km/h
39 26-04-2020 03:10:00 4.9 C 5.87 g/m*3 4.9 C 0 km/h
40 26-04-2020 03:15:00 4.9 C 5.94 g/m*3 4.9 C 1.6 km/h
41 26-04-2020 03:20:00 4.8 C 5.9 g/m*3 4.8 C 1.6 km/h
42 26-04-2020 03:25:00 4.8 C 5.9 g/m*3 4.8 C 0 km/h
43 26-04-2020 03:30:00 4.7 C 5.86 g/m*3 4.7 C 0 km/h
44 26-04-2020 03:35:00 4.7 C 5.86 g/m*3 4.7 C 1.6 km/h
45 26-04-2020 03:40:00 4.6 C 5.89 g/m*3 4.6 C 0 km/h
46 26-04-2020 03:45:00 4.6 C 5.89 g/m*3 4.6 C 0 km/h
47 26-04-2020 03:50:00 4.5 C 5.85 g/m*3 4.5 C 0 km/h
48 26-04-2020 03:55:00 4.4 C 5.81 g/m*3 4.4 C 0 km/h
49 26-04-2020 04:00:00 4.4 C 5.81 g/m*3 4.4 C 0 km/h
50 26-04-2020 04:05:00 4.4 C 5.81 g/m*3 4.4 C 0 km/h
Sensor: Nr:Datum:Temp:Abs-Feuchte:Windchill:Wind:
Aussen-T/F 51 26-04-2020 04:10:00 4.3 C 5.77 g/m*3 4.3 C 0 km/h
52 26-04-2020 04:15:00 4.2 C 5.73 g/m*3 4.2 C 0 km/h
53 26-04-2020 04:20:00 4.1 C 5.7 g/m*3 4.1 C 0 km/h
54 26-04-2020 04:25:00 4 C 5.66 g/m*3 4 C 0 km/h
55 26-04-2020 04:30:00 3.9 C 5.68 g/m*3 3.9 C 0 km/h
56 26-04-2020 04:35:00 3.9 C 5.68 g/m*3 3.9 C 0 km/h
57 26-04-2020 04:40:00 3.9 C 5.68 g/m*3 3.9 C 0 km/h
58 26-04-2020 04:45:00 3.8 C 5.71 g/m*3 3.8 C 0 km/h
59 26-04-2020 04:50:00 3.8 C 5.71 g/m*3 3.8 C 0 km/h
60 26-04-2020 04:55:00 3.7 C 5.67 g/m*3 3.7 C 0 km/h
61 26-04-2020 05:00:00 3.7 C 5.67 g/m*3 3.7 C 0 km/h
62 26-04-2020 05:05:00 3.7 C 5.67 g/m*3 3.7 C 0 km/h
63 26-04-2020 05:10:00 3.7 C 5.67 g/m*3 3.7 C 0 km/h
64 26-04-2020 05:15:00 3.6 C 5.63 g/m*3 3.6 C 0 km/h
65 26-04-2020 05:20:00 3.6 C 5.63 g/m*3 3.6 C 0 km/h
66 26-04-2020 05:25:00 3.5 C 5.6 g/m*3 3.5 C 0 km/h
67 26-04-2020 05:30:00 3.4 C 5.56 g/m*3 3.4 C 0 km/h
68 26-04-2020 05:35:00 3.4 C 5.62 g/m*3 3.4 C 0 km/h
69 26-04-2020 05:40:00 3.3 C 5.58 g/m*3 3.3 C 0 km/h
70 26-04-2020 05:45:00 3.3 C 5.58 g/m*3 3.3 C 0 km/h
71 26-04-2020 05:50:00 3.3 C 5.52 g/m*3 3.3 C 0 km/h
72 26-04-2020 05:55:00 3.2 C 5.54 g/m*3 3.2 C 0 km/h
73 26-04-2020 06:00:00 3.1 C 5.51 g/m*3 3.1 C 0 km/h
74 26-04-2020 06:05:00 3 C 5.47 g/m*3 3 C 0 km/h
75 26-04-2020 06:10:00 3 C 5.47 g/m*3 3 C 0 km/h
Sensor: Nr:Datum:Temp:Abs-Feuchte:Windchill:Wind:
Aussen-T/F 76 26-04-2020 06:15:00 3 C 5.47 g/m*3 3 C 0 km/h
77 26-04-2020 06:20:00 2.9 C 5.43 g/m*3 2.9 C 0 km/h
78 26-04-2020 06:25:00 2.9 C 5.43 g/m*3 2.9 C 0 km/h
79 26-04-2020 06:30:00 2.9 C 5.43 g/m*3 2.9 C 0 km/h
80 26-04-2020 06:35:00 2.9 C 5.49 g/m*3 2.9 C 0 km/h
81 26-04-2020 06:40:00 2.9 C 5.49 g/m*3 2.9 C 0 km/h
82 26-04-2020 06:45:00 2.9 C 5.43 g/m*3 2.9 C 0 km/h
83 26-04-2020 06:50:00 2.8 C 5.46 g/m*3 2.8 C 0 km/h
84 26-04-2020 06:55:00 2.8 C 5.46 g/m*3 2.8 C 0 km/h
85 26-04-2020 07:00:00 2.8 C 5.46 g/m*3 2.8 C 0 km/h
86 26-04-2020 07:05:00 2.9 C 5.49 g/m*3 2.9 C 0 km/h
87 26-04-2020 07:10:00 2.9 C 5.49 g/m*3 2.9 C 0 km/h
88 26-04-2020 07:15:00 2.9 C 5.49 g/m*3 2.9 C 0 km/h
89 26-04-2020 07:20:00 3.1 C 5.57 g/m*3 3.1 C 0 km/h
90 26-04-2020 07:25:00 3.1 C 5.57 g/m*3 3.1 C 0 km/h
91 26-04-2020 07:30:00 3.2 C 5.6 g/m*3 3.2 C 0 km/h
92 26-04-2020 07:35:00 3.2 C 5.6 g/m*3 3.2 C 0 km/h
93 26-04-2020 07:40:00 3.2 C 5.66 g/m*3 3.2 C 0 km/h
94 26-04-2020 07:45:00 3.2 C 5.66 g/m*3 3.2 C 0 km/h
95 26-04-2020 07:50:00 3.3 C 5.7 g/m*3 3.3 C 0 km/h
96 26-04-2020 07:55:00 3.3 C 5.7 g/m*3 3.3 C 0 km/h
97 26-04-2020 08:00:00 3.4 C 5.74 g/m*3 3.4 C 0 km/h
98 26-04-2020 08:05:00 3.5 C 5.78 g/m*3 3.5 C 0 km/h
99 26-04-2020 08:10:00 3.6 C 5.82 g/m*3 3.6 C 0 km/h
100 26-04-2020 08:15:00 3.7 C 5.86 g/m*3 3.7 C 1.6 km/h
Sensor: Nr:Datum:Temp:Abs-Feuchte:Windchill:Wind:
Aussen-T/F 101 26-04-2020 08:20:00 3.8 C 5.9 g/m*3 3.8 C 0 km/h
102 26-04-2020 08:25:00 3.8 C 5.9 g/m*3 3.8 C 0 km/h
103 26-04-2020 08:30:00 3.9 C 5.94 g/m*3 3.9 C 0 km/h
104 26-04-2020 08:35:00 4.1 C 6.02 g/m*3 4.1 C 0 km/h
105 26-04-2020 08:40:00 4.2 C 6.06 g/m*3 4.2 C 0 km/h
106 26-04-2020 08:45:00 4.3 C 6.16 g/m*3 4.3 C 0 km/h
107 26-04-2020 08:50:00 4.4 C 6.2 g/m*3 4.4 C 0 km/h
108 26-04-2020 08:55:00 4.6 C 6.29 g/m*3 4.6 C 0 km/h
109 26-04-2020 09:00:00 4.7 C 6.33 g/m*3 4.7 C 0 km/h
110 26-04-2020 09:05:00 4.9 C 6.41 g/m*3 4.9 C 0 km/h
111 26-04-2020 09:10:00 5.1 C 6.5 g/m*3 5.1 C 0 km/h
112 26-04-2020 09:15:00 5.2 C 6.54 g/m*3 5.2 C 0 km/h
113 26-04-2020 09:20:00 5.3 C 6.58 g/m*3 5.3 C 0 km/h
114 26-04-2020 09:25:00 5.5 C 6.67 g/m*3 5.5 C 0 km/h
115 26-04-2020 09:30:00 5.7 C 6.76 g/m*3 5.7 C 0 km/h
116 26-04-2020 09:35:00 5.8 C 6.81 g/m*3 5.8 C 0 km/h
117 26-04-2020 09:40:00 6 C 6.9 g/m*3 6 C 0 km/h
118 26-04-2020 09:45:00 6.2 C 6.99 g/m*3 6.2 C 0 km/h
119 26-04-2020 09:50:00 6.4 C 7.08 g/m*3 6.4 C 0 km/h
120 26-04-2020 09:55:00 6.6 C 7.17 g/m*3 6.6 C 0 km/h
121 26-04-2020 10:00:00 6.8 C 7.27 g/m*3 6.8 C 0 km/h
122 26-04-2020 10:05:00 6.9 C 7.24 g/m*3 6.9 C 0 km/h
123 26-04-2020 10:10:00 7.2 C 7.38 g/m*3 7.2 C 1.6 km/h
124 26-04-2020 10:15:00 7.3 C 7.35 g/m*3 7.3 C 0 km/h
125 26-04-2020 10:20:00 7.6 C 7.49 g/m*3 7.6 C 0 km/h
Sensor: Nr:Datum:Temp:Abs-Feuchte:Windchill:Wind:
Aussen-T/F 126 26-04-2020 10:25:00 7.8 C 7.51 g/m*3 7.8 C 0 km/h
127 26-04-2020 10:30:00 8.2 C 7.62 g/m*3 8.2 C 0 km/h
128 26-04-2020 10:35:00 8.4 C 7.63 g/m*3 8.4 C 0 km/h
129 26-04-2020 10:40:00 8.7 C 7.7 g/m*3 8.7 C 0 km/h
130 26-04-2020 10:45:00 8.9 C 7.62 g/m*3 8.9 C 1.6 km/h
131 26-04-2020 10:50:00 9.3 C 7.64 g/m*3 9.3 C 1.6 km/h
132 26-04-2020 10:55:00 9.7 C 7.84 g/m*3 9.7 C 0 km/h
133 26-04-2020 11:00:00 10.1 C 7.94 g/m*3 10.1 C 1.6 km/h
134 26-04-2020 11:05:00 10.5 C 8.05 g/m*3 10.5 C 0 km/h
135 26-04-2020 11:10:00 10.9 C 7.86 g/m*3 10.9 C 0 km/h
136 26-04-2020 11:15:00 11.3 C 7.65 g/m*3 11.3 C 3.2 km/h
137 26-04-2020 11:20:00 11.8 C 7.58 g/m*3 11.8 C 4.8 km/h
138 26-04-2020 11:25:00 12.3 C 7.82 g/m*3 12.3 C 1.6 km/h
139 26-04-2020 11:30:00 12.6 C 7.74 g/m*3 12.6 C 1.6 km/h
140 26-04-2020 11:35:00 12.8 C 7.5 g/m*3 12.8 C 1.6 km/h
141 26-04-2020 11:40:00 13.2 C 7.69 g/m*3 13.2 C 1.6 km/h
142 26-04-2020 11:45:00 13.5 C 7.6 g/m*3 13.5 C 3.2 km/h
143 26-04-2020 11:50:00 13.7 C 7.46 g/m*3 13.7 C 1.6 km/h
144 26-04-2020 11:55:00 13.9 C 7.31 g/m*3 13.9 C 0 km/h
145 26-04-2020 12:00:00 14.2 C 7.33 g/m*3 14.2 C 4.8 km/h
146 26-04-2020 12:05:00 14.4 C 7.29 g/m*3 14.4 C 3.2 km/h
147 26-04-2020 12:10:00 14.6 C 7.13 g/m*3 14.6 C 1.6 km/h
148 26-04-2020 12:15:00 14.8 C 6.97 g/m*3 14.8 C 3.2 km/h
149 26-04-2020 12:20:00 15.1 C 6.84 g/m*3 15.1 C 1.6 km/h
150 26-04-2020 12:25:00 15.3 C 6.79 g/m*3 15.3 C 4.8 km/h
Sensor: Nr:Datum:Temp:Abs-Feuchte:Windchill:Wind:
Aussen-T/F 151 26-04-2020 12:30:00 15.4 C 6.83 g/m*3 15.4 C 3.2 km/h
152 26-04-2020 12:35:00 15.6 C 6.92 g/m*3 15.6 C 4.8 km/h
153 26-04-2020 12:40:00 15.7 C 7.09 g/m*3 15.7 C 4.8 km/h
154 26-04-2020 12:45:00 15.8 C 6.87 g/m*3 15.8 C 8.1 km/h
155 26-04-2020 12:50:00 16.1 C 6.44 g/m*3 16.1 C 8.1 km/h
156 26-04-2020 12:55:00 16.2 C 6.62 g/m*3 16.2 C 9.7 km/h
157 26-04-2020 13:00:00 16.3 C 6.66 g/m*3 16.3 C 4.8 km/h
158 26-04-2020 13:05:00 16.3 C 6.66 g/m*3 16.3 C 11.3 km/h
159 26-04-2020 13:10:00 16.6 C 6.64 g/m*3 16.6 C 8.1 km/h
160 26-04-2020 13:15:00 16.8 C 6.58 g/m*3 16.8 C 11.3 km/h
161 26-04-2020 13:20:00 16.8 C 6.58 g/m*3 16.8 C 9.7 km/h
162 26-04-2020 13:25:00 16.8 C 6.58 g/m*3 16.8 C 4.8 km/h
163 26-04-2020 13:30:00 16.9 C 6.47 g/m*3 16.9 C 11.3 km/h
164 26-04-2020 13:35:00 17 C 6.66 g/m*3 17 C 3.2 km/h
165 26-04-2020 13:40:00 17.2 C 6.88 g/m*3 17.2 C 6.4 km/h
166 26-04-2020 13:45:00 17.3 C 6.48 g/m*3 17.3 C 6.4 km/h
167 26-04-2020 13:50:00 17.4 C 6.22 g/m*3 17.4 C 8.1 km/h
168 26-04-2020 13:55:00 17.4 C 6.22 g/m*3 17.4 C 8.1 km/h
169 26-04-2020 14:00:00 17.4 C 6.37 g/m*3 17.4 C 3.2 km/h
170 26-04-2020 14:05:00 17.5 C 6.56 g/m*3 17.5 C 9.7 km/h
171 26-04-2020 14:10:00 17.6 C 6.6 g/m*3 17.6 C 9.7 km/h
172 26-04-2020 14:15:00 17.7 C 6.94 g/m*3 17.7 C 4.8 km/h
173 26-04-2020 14:20:00 17.7 C 6.79 g/m*3 17.7 C 11.3 km/h
174 26-04-2020 14:25:00 17.7 C 6.94 g/m*3 17.7 C 11.3 km/h
175 26-04-2020 14:30:00 17.8 C 6.98 g/m*3 17.8 C 14.5 km/h
Sensor: Nr:Datum:Temp:Abs-Feuchte:Windchill:Wind:
Aussen-T/F 176 26-04-2020 14:35:00 17.9 C 6.72 g/m*3 17.9 C 9.7 km/h
177 26-04-2020 14:40:00 17.9 C 6.57 g/m*3 17.9 C 8.1 km/h
178 26-04-2020 14:45:00 18 C 6.76 g/m*3 18 C 9.7 km/h
179 26-04-2020 14:50:00 18.2 C 6.68 g/m*3 18.2 C 9.7 km/h
180 26-04-2020 14:55:00 18.2 C 6.84 g/m*3 18.2 C 6.4 km/h
181 26-04-2020 15:00:00 18.2 C 6.37 g/m*3 18.2 C 9.7 km/h
182 26-04-2020 15:05:00 18.3 C 6.72 g/m*3 18.3 C 8.1 km/h
183 26-04-2020 15:10:00 18.6 C 6.53 g/m*3 18.6 C 9.7 km/h
184 26-04-2020 15:15:00 18.9 C 6.48 g/m*3 18.9 C 9.7 km/h
185 26-04-2020 15:20:00 19.1 C 6.72 g/m*3 19.1 C 6.4 km/h
186 26-04-2020 15:25:00 19.3 C 6.63 g/m*3 19.3 C 9.7 km/h
187 26-04-2020 15:30:00 19.3 C 6.47 g/m*3 19.3 C 6.4 km/h
188 26-04-2020 15:35:00 19.3 C 6.63 g/m*3 19.3 C 6.4 km/h
189 26-04-2020 15:40:00 19.5 C 6.71 g/m*3 19.5 C 4.8 km/h
190 26-04-2020 15:45:00 19.4 C 6.51 g/m*3 19.4 C 4.8 km/h
191 26-04-2020 15:50:00 19.5 C 6.55 g/m*3 19.5 C 3.2 km/h
192 26-04-2020 15:55:00 19.9 C 6.7 g/m*3 19.9 C 6.4 km/h
193 26-04-2020 16:00:00 20.3 C 6.68 g/m*3 20.3 C 4.8 km/h
194 26-04-2020 16:05:00 20.5 C 6.58 g/m*3 20.5 C 4.8 km/h
195 26-04-2020 16:10:00 20.6 C 6.62 g/m*3 20.6 C 6.4 km/h
196 26-04-2020 16:15:00 20.6 C 6.44 g/m*3 20.6 C 8.1 km/h
197 26-04-2020 16:20:00 20.9 C 6.74 g/m*3 20.9 C 6.4 km/h
198 26-04-2020 16:25:00 21.3 C 6.34 g/m*3 21.3 C 9.7 km/h
199 26-04-2020 16:30:00 21.3 C 5.96 g/m*3 21.3 C 4.8 km/h
200 26-04-2020 16:35:00 21.4 C 6.37 g/m*3 21.4 C 9.7 km/h
Sensor: Nr:Datum:Temp:Abs-Feuchte:Windchill:Wind:
Aussen-T/F 201 26-04-2020 16:40:00 21.6 C 6.26 g/m*3 21.6 C 6.4 km/h
202 26-04-2020 16:45:00 21.7 C 6.29 g/m*3 21.7 C 4.8 km/h
203 26-04-2020 16:50:00 21.7 C 6.49 g/m*3 21.7 C 8.1 km/h
204 26-04-2020 16:55:00 21.7 C 6.29 g/m*3 21.7 C 12.9 km/h
205 26-04-2020 17:00:00 21.6 C 6.07 g/m*3 21.6 C 8.1 km/h
206 26-04-2020 17:05:00 21.8 C 6.52 g/m*3 21.8 C 4.8 km/h
207 26-04-2020 17:10:00 22.1 C 6.05 g/m*3 22.1 C 6.4 km/h
208 26-04-2020 17:15:00 22.1 C 6.05 g/m*3 22.1 C 9.7 km/h
209 26-04-2020 17:20:00 22.2 C 6.48 g/m*3 22.2 C 6.4 km/h
210 26-04-2020 17:25:00 22.4 C 5.96 g/m*3 22.4 C 6.4 km/h
211 26-04-2020 17:30:00 22.5 C 6.19 g/m*3 22.5 C 6.4 km/h
212 26-04-2020 17:35:00 22.6 C 5.62 g/m*3 22.6 C 3.2 km/h
213 26-04-2020 17:40:00 22.9 C 5.93 g/m*3 22.9 C 4.8 km/h
214 26-04-2020 17:45:00 22.8 C 5.28 g/m*3 22.8 C 6.4 km/h
215 26-04-2020 17:50:00 22.5 C 5.39 g/m*3 22.5 C 6.4 km/h
216 26-04-2020 17:55:00 22.5 C 5.79 g/m*3 22.5 C 4.8 km/h
217 26-04-2020 18:00:00 22.4 C 5.36 g/m*3 22.4 C 6.4 km/h
218 26-04-2020 18:05:00 22.4 C 5.36 g/m*3 22.4 C 1.6 km/h
219 26-04-2020 18:10:00 22.5 C 5.79 g/m*3 22.5 C 6.4 km/h
220 26-04-2020 18:15:00 22.6 C 5.62 g/m*3 22.6 C 4.8 km/h
221 26-04-2020 18:20:00 22.8 C 5.69 g/m*3 22.8 C 4.8 km/h
222 26-04-2020 18:25:00 22.8 C 5.69 g/m*3 22.8 C 4.8 km/h
223 26-04-2020 18:30:00 23 C 5.76 g/m*3 23 C 4.8 km/h
224 26-04-2020 18:35:00 22.9 C 5.31 g/m*3 22.9 C 6.4 km/h
225 26-04-2020 18:40:00 22.9 C 5.31 g/m*3 22.9 C 6.4 km/h
Sensor: Nr:Datum:Temp:Abs-Feuchte:Windchill:Wind:
Aussen-T/F 226 26-04-2020 18:45:00 22.8 C 5.49 g/m*3 22.8 C 4.8 km/h
227 26-04-2020 18:50:00 22.6 C 5.22 g/m*3 22.6 C 3.2 km/h
228 26-04-2020 18:55:00 22.5 C 5.19 g/m*3 22.5 C 6.4 km/h
229 26-04-2020 19:00:00 22.4 C 5.36 g/m*3 22.4 C 3.2 km/h
230 26-04-2020 19:05:00 22.3 C 5.53 g/m*3 22.3 C 1.6 km/h
231 26-04-2020 19:10:00 22.2 C 5.3 g/m*3 22.2 C 3.2 km/h
232 26-04-2020 19:15:00 21.8 C 5.18 g/m*3 21.8 C 4.8 km/h
233 26-04-2020 19:20:00 21.4 C 5.25 g/m*3 21.4 C 4.8 km/h
234 26-04-2020 19:25:00 21 C 5.13 g/m*3 21 C 4.8 km/h
235 26-04-2020 19:30:00 20.7 C 5.04 g/m*3 20.7 C 3.2 km/h
236 26-04-2020 19:35:00 20.6 C 5.01 g/m*3 20.6 C 3.2 km/h
237 26-04-2020 19:40:00 20.4 C 5.13 g/m*3 20.4 C 3.2 km/h
238 26-04-2020 19:45:00 20.3 C 6.68 g/m*3 20.3 C 1.6 km/h
239 26-04-2020 19:50:00 20.2 C 6.82 g/m*3 20.2 C 3.2 km/h
240 26-04-2020 19:55:00 19.9 C 7.04 g/m*3 19.9 C 1.6 km/h
241 26-04-2020 20:00:00 19.6 C 6.92 g/m*3 19.6 C 3.2 km/h
242 26-04-2020 20:05:00 19.2 C 6.76 g/m*3 19.2 C 3.2 km/h
243 26-04-2020 20:10:00 18.7 C 6.72 g/m*3 18.7 C 1.6 km/h
244 26-04-2020 20:15:00 18.3 C 6.72 g/m*3 18.3 C 3.2 km/h
245 26-04-2020 20:20:00 17.7 C 6.49 g/m*3 17.7 C 4.8 km/h
246 26-04-2020 20:25:00 17.1 C 6.4 g/m*3 17.1 C 4.8 km/h
247 26-04-2020 20:30:00 16.6 C 6.36 g/m*3 16.6 C 4.8 km/h
248 26-04-2020 20:35:00 16.1 C 6.31 g/m*3 16.1 C 6.4 km/h
249 26-04-2020 20:40:00 15.7 C 6.02 g/m*3 15.7 C 6.4 km/h
250 26-04-2020 20:45:00 15.3 C 5.75 g/m*3 15.3 C 6.4 km/h
Sensor: Nr:Datum:Temp:Abs-Feuchte:Windchill:Wind:
Aussen-T/F 251 26-04-2020 20:50:00 15.1 C 6.06 g/m*3 15.1 C 6.4 km/h
252 26-04-2020 20:55:00 14.8 C 6.08 g/m*3 14.8 C 4.8 km/h
253 26-04-2020 21:00:00 14.4 C 5.93 g/m*3 14.4 C 4.8 km/h
254 26-04-2020 21:05:00 14.2 C 5.86 g/m*3 14.2 C 6.4 km/h
255 26-04-2020 21:10:00 13.9 C 6.11 g/m*3 13.9 C 4.8 km/h
256 26-04-2020 21:15:00 13.7 C 6.16 g/m*3 13.7 C 4.8 km/h
257 26-04-2020 21:20:00 13.6 C 6.36 g/m*3 13.6 C 4.8 km/h
258 26-04-2020 21:25:00 13.3 C 6.35 g/m*3 13.3 C 4.8 km/h
259 26-04-2020 21:30:00 13.1 C 6.39 g/m*3 13.1 C 6.4 km/h
260 26-04-2020 21:35:00 13 C 6.46 g/m*3 13 C 3.2 km/h
261 26-04-2020 21:40:00 12.9 C 6.54 g/m*3 12.9 C 3.2 km/h
262 26-04-2020 21:45:00 12.8 C 6.61 g/m*3 12.8 C 4.8 km/h
263 26-04-2020 21:50:00 12.6 C 6.64 g/m*3 12.6 C 3.2 km/h
264 26-04-2020 21:55:00 12.4 C 6.56 g/m*3 12.4 C 1.6 km/h
265 26-04-2020 22:00:00 12.3 C 6.62 g/m*3 12.3 C 3.2 km/h
266 26-04-2020 22:05:00 12.2 C 6.8 g/m*3 12.2 C 0 km/h
267 26-04-2020 22:10:00 12 C 6.71 g/m*3 12 C 0 km/h
268 26-04-2020 22:15:00 11.8 C 6.74 g/m*3 11.8 C 0 km/h
269 26-04-2020 22:20:00 11.6 C 6.76 g/m*3 11.6 C 1.6 km/h
270 26-04-2020 22:25:00 11.4 C 6.77 g/m*3 11.4 C 0 km/h
271 26-04-2020 22:30:00 11.3 C 6.73 g/m*3 11.3 C 0 km/h
272 26-04-2020 22:35:00 11.1 C 6.75 g/m*3 11.1 C 0 km/h
273 26-04-2020 22:40:00 10.9 C 6.66 g/m*3 10.9 C 0 km/h
274 26-04-2020 22:45:00 10.8 C 6.72 g/m*3 10.8 C 0 km/h
275 26-04-2020 22:50:00 10.6 C 6.73 g/m*3 10.6 C 0 km/h
Sensor: Nr:Datum:Temp:Abs-Feuchte:Windchill:Wind:
Aussen-T/F 276 26-04-2020 22:55:00 10.4 C 6.55 g/m*3 10.4 C 0 km/h
277 26-04-2020 23:00:00 10.2 C 6.57 g/m*3 10.2 C 0 km/h
278 26-04-2020 23:05:00 10.1 C 6.52 g/m*3 10.1 C 0 km/h
279 26-04-2020 23:10:00 9.9 C 6.54 g/m*3 9.9 C 0 km/h
280 26-04-2020 23:15:00 9.8 C 6.49 g/m*3 9.8 C 0 km/h
281 26-04-2020 23:20:00 9.7 C 6.45 g/m*3 9.7 C 0 km/h
282 26-04-2020 23:25:00 9.6 C 6.41 g/m*3 9.6 C 1.6 km/h
283 26-04-2020 23:30:00 9.4 C 6.33 g/m*3 9.4 C 0 km/h
284 26-04-2020 23:35:00 9.4 C 6.33 g/m*3 9.4 C 0 km/h
285 26-04-2020 23:40:00 9.3 C 6.29 g/m*3 9.3 C 1.6 km/h
286 26-04-2020 23:45:00 9.3 C 6.29 g/m*3 9.3 C 0 km/h
287 26-04-2020 23:50:00 9.2 C 6.34 g/m*3 9.2 C 1.6 km/h
288 26-04-2020 23:55:00 9.1 C 6.21 g/m*3 9.1 C 0 km/h
289 27-04-2020 00:00:00 9 C 6.35 g/m*3 9 C 1.6 km/h
290 27-04-2020 00:05:00 8.9 C 6.31 g/m*3 8.9 C 0 km/h
291 27-04-2020 00:10:00 8.8 C 6.35 g/m*3 8.8 C 0 km/h
292 27-04-2020 00:15:00 8.7 C 6.31 g/m*3 8.7 C 0 km/h
293 27-04-2020 00:20:00 8.6 C 6.27 g/m*3 8.6 C 0 km/h
294 27-04-2020 00:25:00 8.6 C 6.27 g/m*3 8.6 C 0 km/h
295 27-04-2020 00:30:00 8.4 C 6.28 g/m*3 8.4 C 0 km/h
296 27-04-2020 00:35:00 8.3 C 6.32 g/m*3 8.3 C 0 km/h
297 27-04-2020 00:40:00 8.3 C 6.32 g/m*3 8.3 C 0 km/h
298 27-04-2020 00:45:00 8.2 C 6.28 g/m*3 8.2 C 0 km/h
299 27-04-2020 00:50:00 8.1 C 6.32 g/m*3 8.1 C 0 km/h
300 27-04-2020 00:55:00 7.9 C 6.24 g/m*3 7.9 C 0 km/h
Sensor: Nr:Datum:Temp:Abs-Feuchte:Windchill:Wind:
Aussen-T/F 301 27-04-2020 01:00:00 7.9 C 6.24 g/m*3 7.9 C 0 km/h
302 27-04-2020 01:05:00 7.8 C 6.28 g/m*3 7.8 C 0 km/h
303 27-04-2020 01:10:00 7.8 C 6.28 g/m*3 7.8 C 0 km/h
304 27-04-2020 01:15:00 7.7 C 6.24 g/m*3 7.7 C 0 km/h
305 27-04-2020 01:20:00 7.6 C 6.28 g/m*3 7.6 C 0 km/h
306 27-04-2020 01:25:00 7.6 C 6.28 g/m*3 7.6 C 0 km/h
307 27-04-2020 01:30:00 7.4 C 6.2 g/m*3 7.4 C 0 km/h
308 27-04-2020 01:35:00 7.3 C 6.24 g/m*3 7.3 C 0 km/h
309 27-04-2020 01:40:00 7.3 C 6.24 g/m*3 7.3 C 0 km/h
310 27-04-2020 01:45:00 7.2 C 6.2 g/m*3 7.2 C 0 km/h
311 27-04-2020 01:50:00 7.2 C 6.28 g/m*3 7.2 C 0 km/h
312 27-04-2020 01:55:00 7.1 C 6.16 g/m*3 7.1 C 0 km/h
313 27-04-2020 02:00:00 7 C 6.2 g/m*3 7 C 0 km/h
314 27-04-2020 02:05:00 6.9 C 6.16 g/m*3 6.9 C 0 km/h
315 27-04-2020 02:10:00 6.9 C 6.16 g/m*3 6.9 C 0 km/h
316 27-04-2020 02:15:00 6.8 C 6.19 g/m*3 6.8 C 0 km/h
317 27-04-2020 02:20:00 6.8 C 6.19 g/m*3 6.8 C 0 km/h
318 27-04-2020 02:25:00 6.7 C 6.15 g/m*3 6.7 C 0 km/h
319 27-04-2020 02:30:00 6.6 C 6.11 g/m*3 6.6 C 0 km/h
320 27-04-2020 02:35:00 6.6 C 6.19 g/m*3 6.6 C 0 km/h
321 27-04-2020 02:40:00 6.5 C 6.15 g/m*3 6.5 C 0 km/h
322 27-04-2020 02:45:00 6.5 C 6.15 g/m*3 6.5 C 0 km/h
323 27-04-2020 02:50:00 6.4 C 6.11 g/m*3 6.4 C 0 km/h
324 27-04-2020 02:55:00 6.4 C 6.18 g/m*3 6.4 C 3.2 km/h
325 27-04-2020 03:00:00 6.3 C 6.14 g/m*3 6.3 C 1.6 km/h
Sensor: Nr:Datum:Temp:Abs-Feuchte:Windchill:Wind:
Aussen-T/F 326 27-04-2020 03:05:00 6.3 C 6.14 g/m*3 6.3 C 0 km/h
327 27-04-2020 03:10:00 6.2 C 6.1 g/m*3 6.2 C 0 km/h
328 27-04-2020 03:15:00 6.1 C 6.14 g/m*3 6.1 C 0 km/h
329 27-04-2020 03:20:00 6.1 C 6.14 g/m*3 6.1 C 0 km/h
330 27-04-2020 03:25:00 6.1 C 6.14 g/m*3 6.1 C 0 km/h
331 27-04-2020 03:30:00 6 C 6.1 g/m*3 6 C 0 km/h
332 27-04-2020 03:35:00 6 C 6.17 g/m*3 6 C 1.6 km/h
333 27-04-2020 03:40:00 6.1 C 6.21 g/m*3 6.1 C 0 km/h
334 27-04-2020 03:45:00 6.1 C 6.21 g/m*3 6.1 C 0 km/h
335 27-04-2020 03:50:00 6.1 C 6.21 g/m*3 6.1 C 1.6 km/h
336 27-04-2020 03:55:00 6.1 C 6.21 g/m*3 6.1 C 0 km/h
337 27-04-2020 04:00:00 6 C 6.17 g/m*3 6 C 0 km/h
338 27-04-2020 04:05:00 5.9 C 6.06 g/m*3 5.9 C 0 km/h
339 27-04-2020 04:10:00 5.8 C 6.09 g/m*3 5.8 C 0 km/h
340 27-04-2020 04:15:00 5.7 C 6.05 g/m*3 5.7 C 0 km/h
341 27-04-2020 04:20:00 5.6 C 6.01 g/m*3 5.6 C 0 km/h
342 27-04-2020 04:25:00 5.4 C 6 g/m*3 5.4 C 0 km/h
343 27-04-2020 04:30:00 5.3 C 5.96 g/m*3 5.3 C 0 km/h
344 27-04-2020 04:35:00 5.2 C 5.99 g/m*3 5.2 C 0 km/h
345 27-04-2020 04:40:00 5.1 C 5.95 g/m*3 5.1 C 0 km/h
346 27-04-2020 04:45:00 4.9 C 5.87 g/m*3 4.9 C 0 km/h
347 27-04-2020 04:50:00 4.9 C 5.94 g/m*3 4.9 C 0 km/h
348 27-04-2020 04:55:00 4.8 C 5.9 g/m*3 4.8 C 0 km/h
349 27-04-2020 05:00:00 4.8 C 5.9 g/m*3 4.8 C 0 km/h
350 27-04-2020 05:05:00 4.8 C 5.9 g/m*3 4.8 C 0 km/h
Sensor: Nr:Datum:Temp:Abs-Feuchte:Windchill:Wind:
Aussen-T/F 351 27-04-2020 05:10:00 4.8 C 5.97 g/m*3 4.8 C 0 km/h
352 27-04-2020 05:15:00 4.7 C 5.93 g/m*3 4.7 C 0 km/h
353 27-04-2020 05:20:00 4.7 C 5.86 g/m*3 4.7 C 0 km/h
354 27-04-2020 05:25:00 4.6 C 5.82 g/m*3 4.6 C 0 km/h
355 27-04-2020 05:30:00 4.4 C 5.81 g/m*3 4.4 C 0 km/h
356 27-04-2020 05:35:00 4.4 C 5.81 g/m*3 4.4 C 0 km/h
357 27-04-2020 05:40:00 4.3 C 5.77 g/m*3 4.3 C 0 km/h
358 27-04-2020 05:45:00 4.3 C 5.77 g/m*3 4.3 C 0 km/h
359 27-04-2020 05:50:00 4.2 C 5.8 g/m*3 4.2 C 0 km/h
360 27-04-2020 05:55:00 4.2 C 5.8 g/m*3 4.2 C 0 km/h
361 27-04-2020 06:00:00 4.2 C 5.8 g/m*3 4.2 C 0 km/h
362 27-04-2020 06:05:00 4.2 C 5.8 g/m*3 4.2 C 0 km/h
363 27-04-2020 06:10:00 4.2 C 5.8 g/m*3 4.2 C 0 km/h
364 27-04-2020 06:15:00 4.2 C 5.86 g/m*3 4.2 C 1.6 km/h
365 27-04-2020 06:20:00 4.2 C 5.86 g/m*3 4.2 C 0 km/h
366 27-04-2020 06:25:00 4.2 C 5.86 g/m*3 4.2 C 0 km/h
367 27-04-2020 06:30:00 4.2 C 5.86 g/m*3 4.2 C 0 km/h
368 27-04-2020 06:35:00 4.3 C 5.9 g/m*3 4.3 C 0 km/h
369 27-04-2020 06:40:00 4.3 C 5.9 g/m*3 4.3 C 0 km/h
370 27-04-2020 06:45:00 4.3 C 5.9 g/m*3 4.3 C 0 km/h
371 27-04-2020 06:50:00 4.3 C 5.9 g/m*3 4.3 C 0 km/h
372 27-04-2020 06:55:00 4.2 C 5.86 g/m*3 4.2 C 0 km/h
373 27-04-2020 07:00:00 4.3 C 5.9 g/m*3 4.3 C 0 km/h
374 27-04-2020 07:05:00 4.3 C 5.9 g/m*3 4.3 C 0 km/h
375 27-04-2020 07:10:00 4.3 C 5.9 g/m*3 4.3 C 0 km/h
Sensor: Nr:Datum:Temp:Abs-Feuchte:Windchill:Wind:
Aussen-T/F 376 27-04-2020 07:15:00 4.3 C 5.9 g/m*3 4.3 C 0 km/h
377 27-04-2020 07:20:00 4.3 C 5.97 g/m*3 4.3 C 0 km/h
378 27-04-2020 07:25:00 4.4 C 6.01 g/m*3 4.4 C 1.6 km/h
379 27-04-2020 07:30:00 4.4 C 6.01 g/m*3 4.4 C 0 km/h
380 27-04-2020 07:35:00 4.5 C 6.05 g/m*3 4.5 C 0 km/h
381 27-04-2020 07:40:00 4.6 C 6.09 g/m*3 4.6 C 0 km/h
382 27-04-2020 07:45:00 4.7 C 6.13 g/m*3 4.7 C 0 km/h
383 27-04-2020 07:50:00 4.8 C 6.17 g/m*3 4.8 C 1.6 km/h
384 27-04-2020 07:55:00 4.9 C 6.21 g/m*3 4.9 C 0 km/h
385 27-04-2020 08:00:00 5 C 6.25 g/m*3 5 C 1.6 km/h
386 27-04-2020 08:05:00 5.1 C 6.29 g/m*3 5.1 C 0 km/h
387 27-04-2020 08:10:00 5.1 C 6.29 g/m*3 5.1 C 0 km/h
388 27-04-2020 08:15:00 5.2 C 6.33 g/m*3 5.2 C 0 km/h
389 27-04-2020 08:20:00 5.3 C 6.38 g/m*3 5.3 C 0 km/h
390 27-04-2020 08:25:00 5.3 C 6.38 g/m*3 5.3 C 1.6 km/h
391 27-04-2020 08:30:00 5.4 C 6.42 g/m*3 5.4 C 0 km/h
392 27-04-2020 08:35:00 5.5 C 6.46 g/m*3 5.5 C 0 km/h
393 27-04-2020 08:40:00 5.6 C 6.5 g/m*3 5.6 C 3.2 km/h
394 27-04-2020 08:45:00 5.8 C 6.59 g/m*3 5.8 C 0 km/h
395 27-04-2020 08:50:00 5.9 C 6.63 g/m*3 5.9 C 0 km/h
396 27-04-2020 08:55:00 6.1 C 6.72 g/m*3 6.1 C 1.6 km/h
397 27-04-2020 09:00:00 6.2 C 6.77 g/m*3 6.2 C 0 km/h
398 27-04-2020 09:05:00 6.3 C 6.81 g/m*3 6.3 C 0 km/h
399 27-04-2020 09:10:00 6.4 C 6.78 g/m*3 6.4 C 0 km/h
400 27-04-2020 09:15:00 6.5 C 6.9 g/m*3 6.5 C 0 km/h
Sensor: Nr:Datum:Temp:Abs-Feuchte:Windchill:Wind:
Aussen-T/F 401 27-04-2020 09:20:00 6.6 C 6.87 g/m*3 6.6 C 0 km/h
402 27-04-2020 09:25:00 6.8 C 6.96 g/m*3 6.8 C 1.6 km/h
403 27-04-2020 09:30:00 6.9 C 7.01 g/m*3 6.9 C 0 km/h
404 27-04-2020 09:35:00 7.1 C 7.1 g/m*3 7.1 C 0 km/h
405 27-04-2020 09:40:00 7.3 C 7.19 g/m*3 7.3 C 0 km/h
406 27-04-2020 09:45:00 7.4 C 7.24 g/m*3 7.4 C 0 km/h
407 27-04-2020 09:50:00 7.7 C 7.38 g/m*3 7.7 C 0 km/h
408 27-04-2020 09:55:00 7.8 C 7.43 g/m*3 7.8 C 0 km/h
409 27-04-2020 10:00:00 8.1 C 7.57 g/m*3 8.1 C 0 km/h
410 27-04-2020 10:05:00 8.3 C 7.67 g/m*3 8.3 C 0 km/h
411 27-04-2020 10:10:00 8.6 C 7.82 g/m*3 8.6 C 0 km/h
412 27-04-2020 10:15:00 8.8 C 7.83 g/m*3 8.8 C 0 km/h
413 27-04-2020 10:20:00 9.2 C 7.95 g/m*3 9.2 C 0 km/h
414 27-04-2020 10:25:00 9.7 C 8.11 g/m*3 9.7 C 0 km/h
415 27-04-2020 10:30:00 10 C 8.17 g/m*3 10 C 0 km/h
416 27-04-2020 10:35:00 10.3 C 8.14 g/m*3 10.3 C 0 km/h
417 27-04-2020 10:40:00 10.6 C 8.2 g/m*3 10.6 C 1.6 km/h
418 27-04-2020 10:45:00 10.9 C 8.16 g/m*3 10.9 C 0 km/h
419 27-04-2020 10:50:00 11.6 C 8.21 g/m*3 11.6 C 0 km/h
420 27-04-2020 10:55:00 12.1 C 8.36 g/m*3 12.1 C 1.6 km/h
421 27-04-2020 11:00:00 12.7 C 8.01 g/m*3 12.7 C 3.2 km/h
422 27-04-2020 11:05:00 13.4 C 7.79 g/m*3 13.4 C 6.4 km/h
423 27-04-2020 11:10:00 14.2 C 7.69 g/m*3 14.2 C 4.8 km/h
424 27-04-2020 11:15:00 14.8 C 7.98 g/m*3 14.8 C 4.8 km/h
425 27-04-2020 11:20:00 15.2 C 8.05 g/m*3 15.2 C 1.6 km/h
Sensor: Nr:Datum:Temp:Abs-Feuchte:Windchill:Wind:
Aussen-T/F 426 27-04-2020 11:25:00 15.6 C 7.58 g/m*3 15.6 C 4.8 km/h
427 27-04-2020 11:30:00 15.9 C 7.58 g/m*3 15.9 C 1.6 km/h
428 27-04-2020 11:35:00 16.2 C 7.86 g/m*3 16.2 C 4.8 km/h
429 27-04-2020 11:40:00 16.4 C 7.26 g/m*3 16.4 C 6.4 km/h
430 27-04-2020 11:45:00 16.7 C 7.39 g/m*3 16.7 C 3.2 km/h
431 27-04-2020 11:50:00 16.9 C 7.77 g/m*3 16.9 C 1.6 km/h
432 27-04-2020 11:55:00 17 C 7.67 g/m*3 17 C 4.8 km/h
433 27-04-2020 12:00:00 17.2 C 7.61 g/m*3 17.2 C 4.8 km/h
434 27-04-2020 12:05:00 17.3 C 7.66 g/m*3 17.3 C 3.2 km/h
435 27-04-2020 12:10:00 17.6 C 7.65 g/m*3 17.6 C 3.2 km/h
436 27-04-2020 12:15:00 17.8 C 7.74 g/m*3 17.8 C 6.4 km/h
437 27-04-2020 12:20:00 17.9 C 7.48 g/m*3 17.9 C 3.2 km/h
438 27-04-2020 12:25:00 18.1 C 7.42 g/m*3 18.1 C 4.8 km/h
439 27-04-2020 12:30:00 18.1 C 7.57 g/m*3 18.1 C 6.4 km/h
440 27-04-2020 12:35:00 18.2 C 7.31 g/m*3 18.2 C 4.8 km/h
441 27-04-2020 12:40:00 18.3 C 7.19 g/m*3 18.3 C 3.2 km/h
442 27-04-2020 12:45:00 18.4 C 7.24 g/m*3 18.4 C 4.8 km/h
443 27-04-2020 12:50:00 18.6 C 7.16 g/m*3 18.6 C 8.1 km/h
444 27-04-2020 12:55:00 18.8 C 7.09 g/m*3 18.8 C 6.4 km/h
445 27-04-2020 13:00:00 19.1 C 6.72 g/m*3 19.1 C 9.7 km/h
446 27-04-2020 13:05:00 19.3 C 7.13 g/m*3 19.3 C 11.3 km/h
447 27-04-2020 13:10:00 19.3 C 7.13 g/m*3 19.3 C 9.7 km/h
448 27-04-2020 13:15:00 19.4 C 6.84 g/m*3 19.4 C 4.8 km/h
449 27-04-2020 13:20:00 19.4 C 6.84 g/m*3 19.4 C 9.7 km/h
450 27-04-2020 13:25:00 19.6 C 6.75 g/m*3 19.6 C 9.7 km/h
Sensor: Nr:Datum:Temp:Abs-Feuchte:Windchill:Wind:
Aussen-T/F 451 27-04-2020 13:30:00 19.6 C 7.09 g/m*3 19.6 C 6.4 km/h
452 27-04-2020 13:35:00 19.8 C 7 g/m*3 19.8 C 12.9 km/h
453 27-04-2020 13:40:00 19.8 C 7 g/m*3 19.8 C 6.4 km/h
454 27-04-2020 13:45:00 19.9 C 6.87 g/m*3 19.9 C 11.3 km/h
455 27-04-2020 13:50:00 20 C 6.74 g/m*3 20 C 9.7 km/h
456 27-04-2020 13:55:00 20 C 6.91 g/m*3 20 C 6.4 km/h
457 27-04-2020 14:00:00 20.2 C 6.99 g/m*3 20.2 C 11.3 km/h
458 27-04-2020 14:05:00 20.4 C 6.9 g/m*3 20.4 C 12.9 km/h
459 27-04-2020 14:10:00 20.6 C 6.98 g/m*3 20.6 C 9.7 km/h
460 27-04-2020 14:15:00 20.7 C 7.2 g/m*3 20.7 C 9.7 km/h
461 27-04-2020 14:20:00 20.7 C 7.2 g/m*3 20.7 C 9.7 km/h
462 27-04-2020 14:25:00 20.7 C 7.02 g/m*3 20.7 C 3.2 km/h
463 27-04-2020 14:30:00 20.8 C 6.88 g/m*3 20.8 C 16.1 km/h
464 27-04-2020 14:35:00 20.9 C 6.92 g/m*3 20.9 C 16.1 km/h
465 27-04-2020 14:40:00 20.9 C 7.29 g/m*3 20.9 C 3.2 km/h
466 27-04-2020 14:45:00 21.1 C 7.19 g/m*3 21.1 C 9.7 km/h
467 27-04-2020 14:50:00 21.2 C 7.04 g/m*3 21.2 C 9.7 km/h
468 27-04-2020 14:55:00 21.4 C 6.94 g/m*3 21.4 C 9.7 km/h
469 27-04-2020 15:00:00 21.7 C 6.87 g/m*3 21.7 C 12.9 km/h
470 27-04-2020 15:05:00 21.8 C 6.91 g/m*3 21.8 C 8.1 km/h
471 27-04-2020 15:10:00 21.9 C 6.95 g/m*3 21.9 C 8.1 km/h
472 27-04-2020 15:15:00 22.1 C 7.03 g/m*3 22.1 C 12.9 km/h
473 27-04-2020 15:20:00 22.2 C 7.07 g/m*3 22.2 C 11.3 km/h
474 27-04-2020 15:25:00 22.2 C 6.87 g/m*3 22.2 C 11.3 km/h
475 27-04-2020 15:30:00 22.3 C 6.91 g/m*3 22.3 C 11.3 km/h
Sensor: Nr:Datum:Temp:Abs-Feuchte:Windchill:Wind:
Aussen-T/F 476 27-04-2020 15:35:00 22.5 C 6.79 g/m*3 22.5 C 8.1 km/h
477 27-04-2020 15:40:00 22.8 C 6.71 g/m*3 22.8 C 11.3 km/h
478 27-04-2020 15:45:00 23.1 C 6.61 g/m*3 23.1 C 12.9 km/h
479 27-04-2020 15:50:00 23.2 C 7.28 g/m*3 23.2 C 9.7 km/h
480 27-04-2020 15:55:00 23.2 C 6.86 g/m*3 23.2 C 14.5 km/h
481 27-04-2020 16:00:00 23.3 C 7.11 g/m*3 23.3 C 11.3 km/h
482 27-04-2020 16:05:00 23.2 C 6.65 g/m*3 23.2 C 19.3 km/h
483 27-04-2020 16:10:00 23.3 C 6.9 g/m*3 23.3 C 12.9 km/h
484 27-04-2020 16:15:00 23.1 C 6.61 g/m*3 23.1 C 11.3 km/h
485 27-04-2020 16:20:00 22.7 C 6.67 g/m*3 22.7 C 11.3 km/h
486 27-04-2020 16:25:00 22.5 C 6.79 g/m*3 22.5 C 14.5 km/h
487 27-04-2020 16:30:00 22.2 C 6.87 g/m*3 22.2 C 12.9 km/h
488 27-04-2020 16:35:00 22.3 C 7.31 g/m*3 22.3 C 11.3 km/h
489 27-04-2020 16:40:00 22.6 C 7.03 g/m*3 22.6 C 11.3 km/h
490 27-04-2020 16:45:00 22.6 C 7.03 g/m*3 22.6 C 11.3 km/h
491 27-04-2020 16:50:00 22.4 C 7.15 g/m*3 22.4 C 11.3 km/h
492 27-04-2020 16:55:00 22.2 C 7.07 g/m*3 22.2 C 12.9 km/h
493 27-04-2020 17:00:00 22 C 7.18 g/m*3 22 C 8.1 km/h
494 27-04-2020 17:05:00 21.9 C 6.95 g/m*3 21.9 C 11.3 km/h
495 27-04-2020 17:10:00 21.8 C 7.1 g/m*3 21.8 C 17.7 km/h
496 27-04-2020 17:15:00 21.7 C 7.25 g/m*3 21.7 C 16.1 km/h
497 27-04-2020 17:20:00 21.6 C 7.21 g/m*3 21.6 C 16.1 km/h
498 27-04-2020 17:25:00 21.4 C 7.31 g/m*3 21.4 C 12.9 km/h
499 27-04-2020 17:30:00 21.3 C 7.27 g/m*3 21.3 C 8.1 km/h
500 27-04-2020 17:35:00 21.2 C 7.23 g/m*3 21.2 C 11.3 km/h
Sensor: Nr:Datum:Temp:Abs-Feuchte:Windchill:Wind:
Aussen-T/F 501 27-04-2020 17:40:00 21.1 C 7.55 g/m*3 21.1 C 9.7 km/h
502 27-04-2020 17:45:00 21.1 C 7.74 g/m*3 21.1 C 4.8 km/h
503 27-04-2020 17:50:00 21.1 C 7.55 g/m*3 21.1 C 4.8 km/h
504 27-04-2020 17:55:00 21.3 C 7.64 g/m*3 21.3 C 4.8 km/h
505 27-04-2020 18:00:00 21.4 C 7.87 g/m*3 21.4 C 11.3 km/h
506 27-04-2020 18:05:00 21.3 C 7.27 g/m*3 21.3 C 11.3 km/h
507 27-04-2020 18:10:00 21.2 C 7.97 g/m*3 21.2 C 4.8 km/h
508 27-04-2020 18:15:00 21.4 C 8.25 g/m*3 21.4 C 6.4 km/h
509 27-04-2020 18:20:00 22.2 C 8.25 g/m*3 22.2 C 4.8 km/h
510 27-04-2020 18:25:00 22.9 C 7.77 g/m*3 22.9 C 6.4 km/h
511 27-04-2020 18:30:00 23.3 C 7.32 g/m*3 23.3 C 11.3 km/h
512 27-04-2020 18:35:00 23.3 C 7.53 g/m*3 23.3 C 6.4 km/h
513 27-04-2020 18:40:00 23.4 C 7.57 g/m*3 23.4 C 4.8 km/h
514 27-04-2020 18:45:00 23.5 C 7.4 g/m*3 23.5 C 6.4 km/h
515 27-04-2020 18:50:00 23.6 C 7.66 g/m*3 23.6 C 1.6 km/h
516 27-04-2020 18:55:00 23.6 C 7.66 g/m*3 23.6 C 8.1 km/h
517 27-04-2020 19:00:00 22.9 C 7.97 g/m*3 22.9 C 8.1 km/h
518 27-04-2020 19:05:00 22.4 C 8.74 g/m*3 22.4 C 3.2 km/h
519 27-04-2020 19:10:00 21.8 C 8.25 g/m*3 21.8 C 4.8 km/h
520 27-04-2020 19:15:00 21.2 C 8.71 g/m*3 21.2 C 4.8 km/h
521 27-04-2020 19:20:00 20.9 C 8.74 g/m*3 20.9 C 4.8 km/h
522 27-04-2020 19:25:00 20.6 C 8.59 g/m*3 20.6 C 4.8 km/h
523 27-04-2020 19:30:00 20.2 C 8.57 g/m*3 20.2 C 4.8 km/h
524 27-04-2020 19:35:00 19.7 C 8.32 g/m*3 19.7 C 6.4 km/h
525 27-04-2020 19:40:00 19.2 C 8.41 g/m*3 19.2 C 6.4 km/h
Sensor: Nr:Datum:Temp:Abs-Feuchte:Windchill:Wind:
Aussen-T/F 526 27-04-2020 19:45:00 18.9 C 8.42 g/m*3 18.9 C 4.8 km/h
527 27-04-2020 19:50:00 18.6 C 8.28 g/m*3 18.6 C 6.4 km/h
528 27-04-2020 19:55:00 18.2 C 8.39 g/m*3 18.2 C 6.4 km/h
529 27-04-2020 20:00:00 17.9 C 8.24 g/m*3 17.9 C 6.4 km/h
530 27-04-2020 20:05:00 17.6 C 8.25 g/m*3 17.6 C 6.4 km/h
531 27-04-2020 20:10:00 17.4 C 8.3 g/m*3 17.4 C 6.4 km/h
532 27-04-2020 20:15:00 17.2 C 8.35 g/m*3 17.2 C 6.4 km/h
533 27-04-2020 20:20:00 17 C 8.25 g/m*3 17 C 6.4 km/h
534 27-04-2020 20:25:00 16.8 C 8.29 g/m*3 16.8 C 4.8 km/h
535 27-04-2020 20:30:00 16.5 C 8.28 g/m*3 16.5 C 4.8 km/h
536 27-04-2020 20:35:00 16.2 C 8.27 g/m*3 16.2 C 4.8 km/h
537 27-04-2020 20:40:00 15.8 C 8.21 g/m*3 15.8 C 6.4 km/h
538 27-04-2020 20:45:00 15.6 C 8.25 g/m*3 15.6 C 6.4 km/h
539 27-04-2020 20:50:00 15.4 C 8.15 g/m*3 15.4 C 6.4 km/h
540 27-04-2020 20:55:00 15.2 C 8.18 g/m*3 15.2 C 6.4 km/h
541 27-04-2020 21:00:00 15.1 C 8.13 g/m*3 15.1 C 6.4 km/h
542 27-04-2020 21:05:00 15 C 8.21 g/m*3 15 C 6.4 km/h
543 27-04-2020 21:10:00 14.9 C 8.16 g/m*3 14.9 C 4.8 km/h
544 27-04-2020 21:15:00 14.8 C 8.23 g/m*3 14.8 C 6.4 km/h
545 27-04-2020 21:20:00 14.8 C 8.36 g/m*3 14.8 C 4.8 km/h
546 27-04-2020 21:25:00 14.7 C 8.31 g/m*3 14.7 C 4.8 km/h
547 27-04-2020 21:30:00 14.6 C 8.26 g/m*3 14.6 C 4.8 km/h
548 27-04-2020 21:35:00 14.4 C 8.16 g/m*3 14.4 C 4.8 km/h
549 27-04-2020 21:40:00 14.3 C 8.23 g/m*3 14.3 C 3.2 km/h
550 27-04-2020 21:45:00 14.2 C 8.3 g/m*3 14.2 C 3.2 km/h
Sensor: Nr:Datum:Temp:Abs-Feuchte:Windchill:Wind:
Aussen-T/F 551 27-04-2020 21:50:00 14 C 8.2 g/m*3 14 C 1.6 km/h
552 27-04-2020 21:55:00 13.8 C 8.1 g/m*3 13.8 C 0 km/h
553 27-04-2020 22:00:00 13.7 C 8.17 g/m*3 13.7 C 4.8 km/h
554 27-04-2020 22:05:00 13.6 C 8.12 g/m*3 13.6 C 4.8 km/h
555 27-04-2020 22:10:00 13.6 C 8.24 g/m*3 13.6 C 4.8 km/h
556 27-04-2020 22:15:00 13.5 C 8.19 g/m*3 13.5 C 3.2 km/h
557 27-04-2020 22:20:00 13.4 C 8.25 g/m*3 13.4 C 0 km/h
558 27-04-2020 22:25:00 13.3 C 8.2 g/m*3 13.3 C 0 km/h
559 27-04-2020 22:30:00 13.2 C 8.27 g/m*3 13.2 C 0 km/h
560 27-04-2020 22:35:00 13.1 C 8.22 g/m*3 13.1 C 0 km/h
561 27-04-2020 22:40:00 12.9 C 8.11 g/m*3 12.9 C 0 km/h
562 27-04-2020 22:45:00 12.8 C 8.18 g/m*3 12.8 C 0 km/h
563 27-04-2020 22:50:00 12.7 C 8.13 g/m*3 12.7 C 0 km/h
564 27-04-2020 22:55:00 12.6 C 8.08 g/m*3 12.6 C 0 km/h
565 27-04-2020 23:00:00 12.6 C 8.08 g/m*3 12.6 C 0 km/h
566 27-04-2020 23:05:00 12.5 C 8.14 g/m*3 12.5 C 0 km/h
567 27-04-2020 23:10:00 12.4 C 8.09 g/m*3 12.4 C 0 km/h
568 27-04-2020 23:15:00 12.3 C 8.04 g/m*3 12.3 C 0 km/h
569 27-04-2020 23:20:00 12.3 C 8.04 g/m*3 12.3 C 0 km/h
570 27-04-2020 23:25:00 12.3 C 8.04 g/m*3 12.3 C 0 km/h
571 27-04-2020 23:30:00 12.2 C 8.09 g/m*3 12.2 C 0 km/h
572 27-04-2020 23:35:00 12.1 C 8.04 g/m*3 12.1 C 0 km/h
573 27-04-2020 23:40:00 11.9 C 8.05 g/m*3 11.9 C 0 km/h
574 27-04-2020 23:45:00 11.8 C 8 g/m*3 11.8 C 0 km/h
575 27-04-2020 23:50:00 11.6 C 8 g/m*3 11.6 C 0 km/h
Sensor: Nr:Datum:Temp:Abs-Feuchte:Windchill:Wind:
Aussen-T/F 576 27-04-2020 23:55:00 11.4 C 8.01 g/m*3 11.4 C 0 km/h
577 28-04-2020 00:00:00 11.3 C 7.96 g/m*3 11.3 C 0 km/h
578 28-04-2020 00:05:00 11.2 C 8.01 g/m*3 11.2 C 0 km/h
579 28-04-2020 00:10:00 11.1 C 7.96 g/m*3 11.1 C 0 km/h
580 28-04-2020 00:15:00 10.9 C 7.96 g/m*3 10.9 C 0 km/h
581 28-04-2020 00:20:00 10.8 C 7.91 g/m*3 10.8 C 0 km/h
582 28-04-2020 00:25:00 10.7 C 7.86 g/m*3 10.7 C 0 km/h
583 28-04-2020 00:30:00 10.6 C 7.91 g/m*3 10.6 C 0 km/h
584 28-04-2020 00:35:00 10.5 C 7.86 g/m*3 10.5 C 0 km/h
585 28-04-2020 00:40:00 10.5 C 7.86 g/m*3 10.5 C 0 km/h
586 28-04-2020 00:45:00 10.4 C 7.81 g/m*3 10.4 C 0 km/h
587 28-04-2020 00:50:00 10.4 C 7.81 g/m*3 10.4 C 0 km/h
588 28-04-2020 00:55:00 10.3 C 7.85 g/m*3 10.3 C 0 km/h
589 28-04-2020 01:00:00 10.3 C 7.85 g/m*3 10.3 C 0 km/h
590 28-04-2020 01:05:00 10.2 C 7.8 g/m*3 10.2 C 0 km/h
591 28-04-2020 01:10:00 10.1 C 7.75 g/m*3 10.1 C 0 km/h
592 28-04-2020 01:15:00 10 C 7.8 g/m*3 10 C 0 km/h
593 28-04-2020 01:20:00 9.9 C 7.75 g/m*3 9.9 C 0 km/h
594 28-04-2020 01:25:00 9.9 C 7.75 g/m*3 9.9 C 0 km/h
595 28-04-2020 01:30:00 9.8 C 7.7 g/m*3 9.8 C 0 km/h
596 28-04-2020 01:35:00 9.7 C 7.65 g/m*3 9.7 C 0 km/h
597 28-04-2020 01:40:00 9.7 C 7.74 g/m*3 9.7 C 0 km/h
598 28-04-2020 01:45:00 9.7 C 7.74 g/m*3 9.7 C 0 km/h
599 28-04-2020 01:50:00 9.6 C 7.69 g/m*3 9.6 C 0 km/h
600 28-04-2020 01:55:00 9.6 C 7.69 g/m*3 9.6 C 0 km/h
Sensor: Nr:Datum:Temp:Abs-Feuchte:Windchill:Wind:
Aussen-T/F 601 28-04-2020 02:00:00 9.5 C 7.74 g/m*3 9.5 C 0 km/h
602 28-04-2020 02:05:00 9.4 C 7.69 g/m*3 9.4 C 0 km/h
603 28-04-2020 02:10:00 9.3 C 7.64 g/m*3 9.3 C 0 km/h
604 28-04-2020 02:15:00 9.3 C 7.64 g/m*3 9.3 C 0 km/h
605 28-04-2020 02:20:00 9.2 C 7.59 g/m*3 9.2 C 0 km/h
606 28-04-2020 02:25:00 9.1 C 7.54 g/m*3 9.1 C 0 km/h
607 28-04-2020 02:30:00 9.1 C 7.63 g/m*3 9.1 C 0 km/h
608 28-04-2020 02:35:00 8.9 C 7.53 g/m*3 8.9 C 0 km/h
609 28-04-2020 02:40:00 8.8 C 7.49 g/m*3 8.8 C 0 km/h
610 28-04-2020 02:45:00 8.8 C 7.57 g/m*3 8.8 C 1.6 km/h
611 28-04-2020 02:50:00 8.9 C 7.71 g/m*3 8.9 C 0 km/h
612 28-04-2020 02:55:00 9.1 C 7.81 g/m*3 9.1 C 1.6 km/h
613 28-04-2020 03:00:00 9.1 C 7.72 g/m*3 9.1 C 0 km/h
614 28-04-2020 03:05:00 9.1 C 7.72 g/m*3 9.1 C 0 km/h
615 28-04-2020 03:10:00 9 C 7.67 g/m*3 9 C 0 km/h
616 28-04-2020 03:15:00 8.9 C 7.62 g/m*3 8.9 C 0 km/h
617 28-04-2020 03:20:00 8.9 C 7.62 g/m*3 8.9 C 1.6 km/h
618 28-04-2020 03:25:00 8.8 C 7.57 g/m*3 8.8 C 1.6 km/h
619 28-04-2020 03:30:00 8.8 C 7.66 g/m*3 8.8 C 0 km/h
620 28-04-2020 03:35:00 8.8 C 7.66 g/m*3 8.8 C 0 km/h
621 28-04-2020 03:40:00 8.7 C 7.61 g/m*3 8.7 C 0 km/h
622 28-04-2020 03:45:00 8.6 C 7.56 g/m*3 8.6 C 0 km/h
623 28-04-2020 03:50:00 8.6 C 7.56 g/m*3 8.6 C 0 km/h
624 28-04-2020 03:55:00 8.4 C 7.47 g/m*3 8.4 C 1.6 km/h
625 28-04-2020 04:00:00 8.4 C 7.55 g/m*3 8.4 C 0 km/h
Sensor: Nr:Datum:Temp:Abs-Feuchte:Windchill:Wind:
Aussen-T/F 626 28-04-2020 04:05:00 8.4 C 7.55 g/m*3 8.4 C 0 km/h
627 28-04-2020 04:10:00 8.3 C 7.5 g/m*3 8.3 C 0 km/h
628 28-04-2020 04:15:00 8.2 C 7.37 g/m*3 8.2 C 0 km/h
629 28-04-2020 04:20:00 8.1 C 7.41 g/m*3 8.1 C 0 km/h
630 28-04-2020 04:25:00 7.9 C 7.31 g/m*3 7.9 C 0 km/h
631 28-04-2020 04:30:00 7.9 C 7.39 g/m*3 7.9 C 0 km/h
632 28-04-2020 04:35:00 7.9 C 7.39 g/m*3 7.9 C 0 km/h
633 28-04-2020 04:40:00 7.8 C 7.35 g/m*3 7.8 C 0 km/h
634 28-04-2020 04:45:00 7.8 C 7.35 g/m*3 5.77 C 11.3 km/h
635 28-04-2020 04:50:00 7.9 C 7.47 g/m*3 5.89 C 11.3 km/h
636 28-04-2020 04:55:00 8 C 7.52 g/m*3 8 C 3.2 km/h
637 28-04-2020 05:00:00 8.1 C 7.57 g/m*3 8.1 C 1.6 km/h
638 28-04-2020 05:05:00 8.1 C 7.57 g/m*3 8.1 C 1.6 km/h
639 28-04-2020 05:10:00 8.1 C 7.57 g/m*3 8.1 C 1.6 km/h
640 28-04-2020 05:15:00 8.2 C 7.62 g/m*3 8.2 C 1.6 km/h
641 28-04-2020 05:20:00 8.2 C 7.62 g/m*3 8.2 C 1.6 km/h
642 28-04-2020 05:25:00 8.2 C 7.62 g/m*3 8.2 C 0 km/h
643 28-04-2020 05:30:00 8.2 C 7.62 g/m*3 7.29 C 6.4 km/h
644 28-04-2020 05:35:00 8.2 C 7.62 g/m*3 8.2 C 0 km/h
645 28-04-2020 05:40:00 8.2 C 7.62 g/m*3 8.2 C 0 km/h
646 28-04-2020 05:45:00 8.1 C 7.49 g/m*3 8.1 C 0 km/h
647 28-04-2020 05:50:00 8.1 C 7.57 g/m*3 8.1 C 1.6 km/h
648 28-04-2020 05:55:00 8 C 7.52 g/m*3 8 C 0 km/h
649 28-04-2020 06:00:00 7.9 C 7.39 g/m*3 7.9 C 0 km/h
650 28-04-2020 06:05:00 7.9 C 7.39 g/m*3 7.9 C 0 km/h
Sensor: Nr:Datum:Temp:Abs-Feuchte:Windchill:Wind:
Aussen-T/F 651 28-04-2020 06:10:00 7.8 C 7.43 g/m*3 7.8 C 0 km/h
652 28-04-2020 06:15:00 7.8 C 7.43 g/m*3 7.8 C 0 km/h
653 28-04-2020 06:20:00 7.7 C 7.38 g/m*3 7.7 C 0 km/h
654 28-04-2020 06:25:00 7.8 C 7.43 g/m*3 7.8 C 0 km/h
655 28-04-2020 06:30:00 7.8 C 7.51 g/m*3 7.8 C 0 km/h
656 28-04-2020 06:35:00 7.8 C 7.51 g/m*3 7.8 C 0 km/h
657 28-04-2020 06:40:00 7.9 C 7.56 g/m*3 7.9 C 0 km/h
658 28-04-2020 06:45:00 7.9 C 7.56 g/m*3 7.9 C 0 km/h
659 28-04-2020 06:50:00 8.1 C 7.66 g/m*3 8.1 C 0 km/h
660 28-04-2020 06:55:00 8.1 C 7.66 g/m*3 8.1 C 0 km/h
661 28-04-2020 07:00:00 8.2 C 7.7 g/m*3 8.2 C 0 km/h
662 28-04-2020 07:05:00 8.3 C 7.84 g/m*3 8.3 C 0 km/h
663 28-04-2020 07:10:00 8.5 C 7.94 g/m*3 8.5 C 1.6 km/h
664 28-04-2020 07:15:00 8.6 C 7.91 g/m*3 8.6 C 0 km/h
665 28-04-2020 07:20:00 8.7 C 7.96 g/m*3 8.7 C 0 km/h
666 28-04-2020 07:25:00 8.8 C 8.01 g/m*3 8.8 C 0 km/h
667 28-04-2020 07:30:00 8.9 C 7.97 g/m*3 8.9 C 0 km/h
668 28-04-2020 07:35:00 9.1 C 8.16 g/m*3 9.1 C 0 km/h
669 28-04-2020 07:40:00 9.1 C 8.07 g/m*3 9.1 C 0 km/h
670 28-04-2020 07:45:00 9.3 C 8.18 g/m*3 9.3 C 0 km/h
671 28-04-2020 07:50:00 9.4 C 8.23 g/m*3 9.4 C 1.6 km/h
672 28-04-2020 07:55:00 9.5 C 8.28 g/m*3 9.5 C 0 km/h
673 28-04-2020 08:00:00 9.6 C 8.34 g/m*3 9.6 C 0 km/h
674 28-04-2020 08:05:00 9.6 C 8.34 g/m*3 9.6 C 0 km/h
675 28-04-2020 08:10:00 9.7 C 8.39 g/m*3 9.7 C 0 km/h
Sensor: Nr:Datum:Temp:Abs-Feuchte:Windchill:Wind:
Aussen-T/F 676 28-04-2020 08:15:00 9.8 C 8.44 g/m*3 9.8 C 0 km/h
677 28-04-2020 08:20:00 9.9 C 8.59 g/m*3 9.9 C 0 km/h
678 28-04-2020 08:25:00 10 C 8.64 g/m*3 10 C 0 km/h
679 28-04-2020 08:30:00 10.1 C 8.7 g/m*3 10.1 C 0 km/h
680 28-04-2020 08:35:00 10.2 C 8.76 g/m*3 10.2 C 0 km/h
681 28-04-2020 08:40:00 10.2 C 8.76 g/m*3 10.2 C 0 km/h
682 28-04-2020 08:45:00 10.3 C 8.81 g/m*3 10.3 C 0 km/h
683 28-04-2020 08:50:00 10.3 C 8.81 g/m*3 10.3 C 1.6 km/h
684 28-04-2020 08:55:00 10.4 C 8.87 g/m*3 10.4 C 0 km/h
685 28-04-2020 09:00:00 10.4 C 8.87 g/m*3 10.4 C 0 km/h
686 28-04-2020 09:05:00 10.6 C 8.98 g/m*3 10.6 C 0 km/h
687 28-04-2020 09:10:00 10.6 C 8.98 g/m*3 10.6 C 1.6 km/h
688 28-04-2020 09:15:00 10.8 C 9.09 g/m*3 10.8 C 0 km/h
689 28-04-2020 09:20:00 10.9 C 9.15 g/m*3 10.9 C 0 km/h
690 28-04-2020 09:25:00 11.1 C 9.27 g/m*3 11.1 C 0 km/h
691 28-04-2020 09:30:00 11.3 C 9.38 g/m*3 11.3 C 1.6 km/h
692 28-04-2020 09:35:00 11.4 C 9.44 g/m*3 11.4 C 0 km/h
693 28-04-2020 09:40:00 11.5 C 9.4 g/m*3 11.5 C 1.6 km/h
694 28-04-2020 09:45:00 11.5 C 9.4 g/m*3 11.5 C 0 km/h
695 28-04-2020 09:50:00 11.7 C 9.52 g/m*3 11.7 C 0 km/h
696 28-04-2020 09:55:00 11.8 C 9.68 g/m*3 11.8 C 0 km/h
697 28-04-2020 10:00:00 12 C 9.8 g/m*3 12 C 0 km/h
698 28-04-2020 10:05:00 12.2 C 9.82 g/m*3 12.2 C 0 km/h
699 28-04-2020 10:10:00 12.2 C 9.82 g/m*3 12.2 C 0 km/h
700 28-04-2020 10:15:00 12.3 C 9.77 g/m*3 12.3 C 0 km/h
Sensor: Nr:Datum:Temp:Abs-Feuchte:Windchill:Wind:
Aussen-T/F 701 28-04-2020 10:20:00 12.3 C 9.77 g/m*3 12.3 C 0 km/h
702 28-04-2020 10:25:00 12.4 C 9.83 g/m*3 12.4 C 0 km/h
703 28-04-2020 10:30:00 12.6 C 9.96 g/m*3 12.6 C 0 km/h
704 28-04-2020 10:35:00 12.7 C 10.02 g/m*3 12.7 C 0 km/h
705 28-04-2020 10:40:00 12.9 C 10.14 g/m*3 12.9 C 0 km/h
706 28-04-2020 10:45:00 13.1 C 10.27 g/m*3 13.1 C 0 km/h
707 28-04-2020 10:50:00 13.2 C 10.22 g/m*3 13.2 C 0 km/h
708 28-04-2020 10:55:00 13.4 C 10.46 g/m*3 13.4 C 0 km/h
709 28-04-2020 11:00:00 13.6 C 10.59 g/m*3 13.6 C 0 km/h
710 28-04-2020 11:05:00 13.7 C 10.66 g/m*3 13.7 C 0 km/h
711 28-04-2020 11:10:00 13.8 C 10.84 g/m*3 13.8 C 0 km/h
712 28-04-2020 11:15:00 13.9 C 10.91 g/m*3 13.9 C 3.2 km/h
713 28-04-2020 11:20:00 13.9 C 10.91 g/m*3 13.9 C 1.6 km/h
714 28-04-2020 11:25:00 14 C 10.98 g/m*3 14 C 0 km/h
715 28-04-2020 11:30:00 14.1 C 11.04 g/m*3 14.1 C 0 km/h
716 28-04-2020 11:35:00 14.2 C 11.23 g/m*3 14.2 C 1.6 km/h
717 28-04-2020 11:40:00 14.2 C 11.23 g/m*3 14.2 C 0 km/h
718 28-04-2020 11:45:00 14.2 C 11.23 g/m*3 14.2 C 0 km/h
719 28-04-2020 11:50:00 14.3 C 11.3 g/m*3 14.3 C 0 km/h
720 28-04-2020 11:55:00 14.3 C 11.3 g/m*3 14.3 C 0 km/h
721 28-04-2020 12:00:00 14.4 C 11.37 g/m*3 14.4 C 0 km/h
722 28-04-2020 12:05:00 14.6 C 11.64 g/m*3 14.6 C 1.6 km/h
723 28-04-2020 12:10:00 14.7 C 11.71 g/m*3 14.7 C 0 km/h
724 28-04-2020 12:15:00 14.8 C 11.65 g/m*3 14.8 C 0 km/h
725 28-04-2020 12:20:00 14.9 C 11.85 g/m*3 14.9 C 0 km/h
Sensor: Nr:Datum:Temp:Abs-Feuchte:Windchill:Wind:
Aussen-T/F 726 28-04-2020 12:25:00 15 C 11.93 g/m*3 15 C 0 km/h
727 28-04-2020 12:30:00 15.1 C 12 g/m*3 15.1 C 0 km/h
728 28-04-2020 12:35:00 15.2 C 12.07 g/m*3 15.2 C 1.6 km/h
729 28-04-2020 12:40:00 15.2 C 11.94 g/m*3 15.2 C 0 km/h
730 28-04-2020 12:45:00 15.2 C 11.94 g/m*3 15.2 C 0 km/h
731 28-04-2020 12:50:00 15.2 C 12.07 g/m*3 15.2 C 0 km/h
732 28-04-2020 12:55:00 15.2 C 12.07 g/m*3 15.2 C 0 km/h
733 28-04-2020 13:00:00 15.2 C 11.94 g/m*3 15.2 C 0 km/h
734 28-04-2020 13:05:00 15.1 C 11.87 g/m*3 15.1 C 0 km/h
735 28-04-2020 13:10:00 15.1 C 12 g/m*3 15.1 C 0 km/h
736 28-04-2020 13:15:00 15 C 11.93 g/m*3 15 C 1.6 km/h
737 28-04-2020 13:20:00 14.9 C 11.85 g/m*3 14.9 C 6.4 km/h
738 28-04-2020 13:25:00 14.8 C 11.78 g/m*3 14.8 C 11.3 km/h
739 28-04-2020 13:30:00 14.9 C 11.98 g/m*3 14.9 C 3.2 km/h
740 28-04-2020 13:35:00 15 C 12.05 g/m*3 15 C 1.6 km/h
741 28-04-2020 13:40:00 15 C 11.93 g/m*3 15 C 4.8 km/h
742 28-04-2020 13:45:00 15.2 C 12.2 g/m*3 15.2 C 8.1 km/h
743 28-04-2020 13:50:00 15.2 C 12.2 g/m*3 15.2 C 9.7 km/h
744 28-04-2020 13:55:00 15.3 C 12.28 g/m*3 15.3 C 9.7 km/h
745 28-04-2020 14:00:00 15.5 C 12.29 g/m*3 15.5 C 11.3 km/h
746 28-04-2020 14:05:00 15.7 C 12.44 g/m*3 15.7 C 14.5 km/h
747 28-04-2020 14:10:00 15.9 C 12.59 g/m*3 15.9 C 12.9 km/h
748 28-04-2020 14:15:00 16.2 C 12.82 g/m*3 16.2 C 14.5 km/h
749 28-04-2020 14:20:00 16.4 C 12.84 g/m*3 16.4 C 8.1 km/h
750 28-04-2020 14:25:00 16.6 C 12.86 g/m*3 16.6 C 19.3 km/h
Sensor: Nr:Datum:Temp:Abs-Feuchte:Windchill:Wind:
Aussen-T/F 751 28-04-2020 14:30:00 16.7 C 12.79 g/m*3 16.7 C 19.3 km/h
752 28-04-2020 14:35:00 16.6 C 12.43 g/m*3 16.6 C 16.1 km/h
753 28-04-2020 14:40:00 16.4 C 12.28 g/m*3 16.4 C 12.9 km/h
754 28-04-2020 14:45:00 16.3 C 12.35 g/m*3 16.3 C 16.1 km/h
755 28-04-2020 14:50:00 16.4 C 12.56 g/m*3 16.4 C 6.4 km/h
756 28-04-2020 14:55:00 16.6 C 12.71 g/m*3 16.6 C 12.9 km/h
757 28-04-2020 15:00:00 16.6 C 12.57 g/m*3 16.6 C 14.5 km/h
758 28-04-2020 15:05:00 16.4 C 12.14 g/m*3 16.4 C 19.3 km/h
759 28-04-2020 15:10:00 16.2 C 12.14 g/m*3 16.2 C 14.5 km/h
760 28-04-2020 15:15:00 16.1 C 12.2 g/m*3 16.1 C 12.9 km/h
761 28-04-2020 15:20:00 16 C 12.13 g/m*3 16 C 9.7 km/h
762 28-04-2020 15:25:00 16 C 12.13 g/m*3 16 C 12.9 km/h
763 28-04-2020 15:30:00 16 C 12.26 g/m*3 16 C 11.3 km/h
764 28-04-2020 15:35:00 16.3 C 12.35 g/m*3 16.3 C 14.5 km/h
765 28-04-2020 15:40:00 16.3 C 12.07 g/m*3 16.3 C 20.9 km/h
766 28-04-2020 15:45:00 16.3 C 11.79 g/m*3 16.3 C 20.9 km/h
767 28-04-2020 15:50:00 16.3 C 12.07 g/m*3 16.3 C 16.1 km/h
768 28-04-2020 15:55:00 16.4 C 12 g/m*3 16.4 C 17.7 km/h
769 28-04-2020 16:00:00 16.5 C 11.94 g/m*3 16.5 C 16.1 km/h
770 28-04-2020 16:05:00 16.4 C 11.72 g/m*3 16.4 C 16.1 km/h
771 28-04-2020 16:10:00 16.3 C 11.79 g/m*3 16.3 C 19.3 km/h
772 28-04-2020 16:15:00 16.3 C 11.79 g/m*3 16.3 C 14.5 km/h
773 28-04-2020 16:20:00 16.3 C 11.79 g/m*3 16.3 C 12.9 km/h
774 28-04-2020 16:25:00 16.4 C 12 g/m*3 16.4 C 19.3 km/h
775 28-04-2020 16:30:00 16.6 C 11.87 g/m*3 16.6 C 19.3 km/h
Sensor: Nr:Datum:Temp:Abs-Feuchte:Windchill:Wind:
Aussen-T/F 776 28-04-2020 16:35:00 16.8 C 12.01 g/m*3 16.8 C 19.3 km/h
777 28-04-2020 16:40:00 17.1 C 12.23 g/m*3 17.1 C 20.9 km/h
778 28-04-2020 16:45:00 17.6 C 12 g/m*3 17.6 C 14.5 km/h
779 28-04-2020 16:50:00 17.8 C 11.99 g/m*3 17.8 C 17.7 km/h
780 28-04-2020 16:55:00 17.7 C 11.77 g/m*3 17.7 C 17.7 km/h
781 28-04-2020 17:00:00 17.4 C 11.71 g/m*3 17.4 C 12.9 km/h
782 28-04-2020 17:05:00 17.2 C 11.57 g/m*3 17.2 C 14.5 km/h
783 28-04-2020 17:10:00 17.1 C 11.35 g/m*3 17.1 C 16.1 km/h
784 28-04-2020 17:15:00 17 C 11.43 g/m*3 17 C 14.5 km/h
785 28-04-2020 17:20:00 17 C 11.58 g/m*3 17 C 11.3 km/h
786 28-04-2020 17:25:00 17 C 11.29 g/m*3 17 C 11.3 km/h
787 28-04-2020 17:30:00 16.9 C 11.22 g/m*3 16.9 C 14.5 km/h
788 28-04-2020 17:35:00 16.8 C 11.01 g/m*3 16.8 C 12.9 km/h
789 28-04-2020 17:40:00 16.7 C 11.08 g/m*3 16.7 C 14.5 km/h
790 28-04-2020 17:45:00 16.6 C 10.88 g/m*3 16.6 C 11.3 km/h
791 28-04-2020 17:50:00 16.5 C 10.95 g/m*3 16.5 C 11.3 km/h
792 28-04-2020 17:55:00 16.7 C 11.08 g/m*3 16.7 C 17.7 km/h
793 28-04-2020 18:00:00 17.2 C 11.28 g/m*3 17.2 C 11.3 km/h
794 28-04-2020 18:05:00 17.4 C 10.97 g/m*3 17.4 C 16.1 km/h
795 28-04-2020 18:10:00 17.5 C 11.03 g/m*3 17.5 C 14.5 km/h
796 28-04-2020 18:15:00 17.4 C 10.97 g/m*3 17.4 C 11.3 km/h
797 28-04-2020 18:20:00 17.6 C 11.25 g/m*3 17.6 C 9.7 km/h
798 28-04-2020 18:25:00 17.9 C 10.99 g/m*3 17.9 C 9.7 km/h
799 28-04-2020 18:30:00 17.8 C 10.78 g/m*3 17.8 C 12.9 km/h
800 28-04-2020 18:35:00 17.9 C 10.69 g/m*3 17.9 C 16.1 km/h
Sensor: Nr:Datum:Temp:Abs-Feuchte:Windchill:Wind:
Aussen-T/F 801 28-04-2020 18:40:00 18 C 10.91 g/m*3 18 C 16.1 km/h
802 28-04-2020 18:45:00 18.2 C 11.19 g/m*3 18.2 C 6.4 km/h
803 28-04-2020 18:50:00 17.8 C 10.78 g/m*3 17.8 C 12.9 km/h
804 28-04-2020 18:55:00 17.4 C 10.82 g/m*3 17.4 C 8.1 km/h
805 28-04-2020 19:00:00 16.9 C 10.79 g/m*3 16.9 C 9.7 km/h
806 28-04-2020 19:05:00 16.8 C 10.72 g/m*3 16.8 C 6.4 km/h
807 28-04-2020 19:10:00 16.7 C 10.37 g/m*3 16.7 C 11.3 km/h
808 28-04-2020 19:15:00 16.7 C 10.8 g/m*3 16.7 C 6.4 km/h
809 28-04-2020 19:20:00 16.8 C 11.15 g/m*3 16.8 C 1.6 km/h
810 28-04-2020 19:25:00 17 C 10.85 g/m*3 17 C 4.8 km/h
811 28-04-2020 19:30:00 17.1 C 11.21 g/m*3 17.1 C 4.8 km/h
812 28-04-2020 19:35:00 17.1 C 10.77 g/m*3 17.1 C 3.2 km/h
813 28-04-2020 19:40:00 17.1 C 10.63 g/m*3 17.1 C 8.1 km/h
814 28-04-2020 19:45:00 17.1 C 10.92 g/m*3 17.1 C 8.1 km/h
815 28-04-2020 19:50:00 17 C 10.56 g/m*3 17 C 6.4 km/h
816 28-04-2020 19:55:00 16.8 C 10.44 g/m*3 16.8 C 6.4 km/h
817 28-04-2020 20:00:00 16.6 C 10.59 g/m*3 16.6 C 4.8 km/h
818 28-04-2020 20:05:00 16.3 C 10.68 g/m*3 16.3 C 6.4 km/h
819 28-04-2020 20:10:00 16 C 10.63 g/m*3 16 C 6.4 km/h
820 28-04-2020 20:15:00 15.6 C 10.51 g/m*3 15.6 C 6.4 km/h
821 28-04-2020 20:20:00 15.3 C 10.45 g/m*3 15.3 C 4.8 km/h
822 28-04-2020 20:25:00 15 C 10.51 g/m*3 15 C 6.4 km/h
823 28-04-2020 20:30:00 14.7 C 10.45 g/m*3 14.7 C 4.8 km/h
824 28-04-2020 20:35:00 14.4 C 10.38 g/m*3 14.4 C 4.8 km/h
825 28-04-2020 20:40:00 14.2 C 10.38 g/m*3 14.2 C 4.8 km/h
Sensor: Nr:Datum:Temp:Abs-Feuchte:Windchill:Wind:
Aussen-T/F 826 28-04-2020 20:45:00 14 C 10.25 g/m*3 14 C 6.4 km/h
827 28-04-2020 20:50:00 13.8 C 10.25 g/m*3 13.8 C 4.8 km/h
828 28-04-2020 20:55:00 13.6 C 10.12 g/m*3 13.6 C 4.8 km/h
829 28-04-2020 21:00:00 13.4 C 10.11 g/m*3 13.4 C 6.4 km/h
830 28-04-2020 21:05:00 13.2 C 9.99 g/m*3 13.2 C 6.4 km/h
831 28-04-2020 21:10:00 13.2 C 10.1 g/m*3 13.2 C 9.7 km/h
832 28-04-2020 21:15:00 13.1 C 10.04 g/m*3 13.1 C 6.4 km/h
833 28-04-2020 21:20:00 13.1 C 10.04 g/m*3 13.1 C 11.3 km/h
834 28-04-2020 21:25:00 13.2 C 9.99 g/m*3 13.2 C 12.9 km/h
835 28-04-2020 21:30:00 13.3 C 9.94 g/m*3 13.3 C 9.7 km/h
836 28-04-2020 21:35:00 13.4 C 9.88 g/m*3 13.4 C 9.7 km/h
837 28-04-2020 21:40:00 13.6 C 10 g/m*3 13.6 C 9.7 km/h
838 28-04-2020 21:45:00 13.7 C 9.95 g/m*3 13.7 C 16.1 km/h
839 28-04-2020 21:50:00 13.8 C 10.01 g/m*3 13.8 C 9.7 km/h
840 28-04-2020 21:55:00 13.8 C 10.01 g/m*3 13.8 C 8.1 km/h
841 28-04-2020 22:00:00 13.8 C 10.01 g/m*3 13.8 C 6.4 km/h
842 28-04-2020 22:05:00 13.8 C 10.01 g/m*3 13.8 C 6.4 km/h
843 28-04-2020 22:10:00 13.6 C 10 g/m*3 13.6 C 4.8 km/h
844 28-04-2020 22:15:00 13.4 C 9.88 g/m*3 13.4 C 4.8 km/h
845 28-04-2020 22:20:00 13.3 C 9.94 g/m*3 13.3 C 6.4 km/h
846 28-04-2020 22:25:00 13.2 C 9.99 g/m*3 13.2 C 1.6 km/h
847 28-04-2020 22:30:00 13.1 C 10.04 g/m*3 13.1 C 4.8 km/h
848 28-04-2020 22:35:00 13.1 C 9.93 g/m*3 13.1 C 3.2 km/h
849 28-04-2020 22:40:00 13.1 C 10.04 g/m*3 13.1 C 3.2 km/h
850 28-04-2020 22:45:00 13.1 C 10.04 g/m*3 13.1 C 4.8 km/h
Sensor: Nr:Datum:Temp:Abs-Feuchte:Windchill:Wind:
Aussen-T/F 851 28-04-2020 22:50:00 13.1 C 10.04 g/m*3 13.1 C 0 km/h
852 28-04-2020 22:55:00 13.1 C 10.04 g/m*3 13.1 C 0 km/h
853 28-04-2020 23:00:00 13.1 C 10.04 g/m*3 13.1 C 3.2 km/h
854 28-04-2020 23:05:00 13 C 9.98 g/m*3 13 C 1.6 km/h
855 28-04-2020 23:10:00 12.9 C 9.92 g/m*3 12.9 C 1.6 km/h
856 28-04-2020 23:15:00 12.9 C 10.03 g/m*3 12.9 C 0 km/h
857 28-04-2020 23:20:00 12.9 C 10.03 g/m*3 12.9 C 3.2 km/h
858 28-04-2020 23:25:00 12.9 C 10.03 g/m*3 12.9 C 3.2 km/h
859 28-04-2020 23:30:00 12.9 C 10.03 g/m*3 12.9 C 0 km/h
860 28-04-2020 23:35:00 12.9 C 10.03 g/m*3 12.9 C 0 km/h
861 28-04-2020 23:40:00 12.8 C 10.08 g/m*3 12.8 C 1.6 km/h
862 28-04-2020 23:45:00 12.8 C 10.08 g/m*3 12.8 C 1.6 km/h
863 28-04-2020 23:50:00 12.8 C 10.08 g/m*3 12.8 C 0 km/h
864 28-04-2020 23:55:00 12.7 C 10.02 g/m*3 12.7 C 0 km/h
865 29-04-2020 00:00:00 12.7 C 10.02 g/m*3 12.7 C 0 km/h
866 29-04-2020 00:05:00 12.6 C 9.96 g/m*3 12.6 C 1.6 km/h
867 29-04-2020 00:10:00 12.6 C 9.96 g/m*3 12.6 C 1.6 km/h
868 29-04-2020 00:15:00 12.6 C 9.96 g/m*3 12.6 C 0 km/h
869 29-04-2020 00:20:00 12.5 C 9.89 g/m*3 12.5 C 0 km/h
870 29-04-2020 00:25:00 12.4 C 9.83 g/m*3 12.4 C 0 km/h
871 29-04-2020 00:30:00 12.4 C 9.83 g/m*3 12.4 C 1.6 km/h
872 29-04-2020 00:35:00 12.3 C 9.77 g/m*3 12.3 C 3.2 km/h
873 29-04-2020 00:40:00 12.2 C 9.71 g/m*3 12.2 C 3.2 km/h
874 29-04-2020 00:45:00 12.1 C 9.65 g/m*3 12.1 C 4.8 km/h
875 29-04-2020 00:50:00 12 C 9.59 g/m*3 12 C 3.2 km/h
Sensor: Nr:Datum:Temp:Abs-Feuchte:Windchill:Wind:
Aussen-T/F 876 29-04-2020 00:55:00 11.9 C 9.53 g/m*3 11.9 C 1.6 km/h
877 29-04-2020 01:00:00 11.9 C 9.64 g/m*3 11.9 C 0 km/h
878 29-04-2020 01:05:00 11.9 C 9.64 g/m*3 11.9 C 0 km/h
879 29-04-2020 01:10:00 11.8 C 9.58 g/m*3 11.8 C 0 km/h
880 29-04-2020 01:15:00 11.8 C 9.58 g/m*3 11.8 C 4.8 km/h
881 29-04-2020 01:20:00 11.8 C 9.58 g/m*3 11.8 C 3.2 km/h
882 29-04-2020 01:25:00 11.9 C 9.74 g/m*3 11.9 C 6.4 km/h
883 29-04-2020 01:30:00 12 C 9.8 g/m*3 12 C 4.8 km/h
884 29-04-2020 01:35:00 12.1 C 9.87 g/m*3 12.1 C 0 km/h
885 29-04-2020 01:40:00 12.1 C 9.87 g/m*3 12.1 C 0 km/h
886 29-04-2020 01:45:00 12.1 C 9.87 g/m*3 12.1 C 0 km/h
887 29-04-2020 01:50:00 12.1 C 9.87 g/m*3 12.1 C 0 km/h
888 29-04-2020 01:55:00 12 C 9.8 g/m*3 12 C 0 km/h
889 29-04-2020 02:00:00 12 C 9.91 g/m*3 12 C 0 km/h
890 29-04-2020 02:05:00 11.9 C 9.74 g/m*3 11.9 C 4.8 km/h
891 29-04-2020 02:10:00 11.9 C 9.74 g/m*3 11.9 C 4.8 km/h
892 29-04-2020 02:15:00 11.9 C 9.74 g/m*3 11.9 C 3.2 km/h
893 29-04-2020 02:20:00 11.9 C 9.74 g/m*3 11.9 C 4.8 km/h
894 29-04-2020 02:25:00 11.9 C 9.64 g/m*3 11.9 C 8.1 km/h
895 29-04-2020 02:30:00 12 C 9.7 g/m*3 12 C 11.3 km/h
896 29-04-2020 02:35:00 12.1 C 9.65 g/m*3 12.1 C 11.3 km/h
897 29-04-2020 02:40:00 12.2 C 9.6 g/m*3 12.2 C 11.3 km/h
898 29-04-2020 02:45:00 12.3 C 9.56 g/m*3 12.3 C 9.7 km/h
899 29-04-2020 02:50:00 12.3 C 9.56 g/m*3 12.3 C 6.4 km/h
900 29-04-2020 02:55:00 12.3 C 9.34 g/m*3 12.3 C 9.7 km/h
Sensor: Nr:Datum:Temp:Abs-Feuchte:Windchill:Wind:
Aussen-T/F 901 29-04-2020 03:00:00 12.3 C 9.45 g/m*3 12.3 C 4.8 km/h
902 29-04-2020 03:05:00 12.3 C 9.45 g/m*3 12.3 C 4.8 km/h
903 29-04-2020 03:10:00 12.2 C 9.39 g/m*3 12.2 C 4.8 km/h
904 29-04-2020 03:15:00 12.1 C 9.33 g/m*3 12.1 C 4.8 km/h
905 29-04-2020 03:20:00 12 C 9.38 g/m*3 12 C 3.2 km/h
906 29-04-2020 03:25:00 11.9 C 9.32 g/m*3 11.9 C 1.6 km/h
907 29-04-2020 03:30:00 11.9 C 9.43 g/m*3 11.9 C 1.6 km/h
908 29-04-2020 03:35:00 11.9 C 9.43 g/m*3 11.9 C 3.2 km/h
909 29-04-2020 03:40:00 11.9 C 9.43 g/m*3 11.9 C 6.4 km/h
910 29-04-2020 03:45:00 11.9 C 9.43 g/m*3 11.9 C 1.6 km/h
911 29-04-2020 03:50:00 11.9 C 9.43 g/m*3 11.9 C 4.8 km/h
912 29-04-2020 03:55:00 12 C 9.38 g/m*3 12 C 4.8 km/h
913 29-04-2020 04:00:00 12.1 C 9.54 g/m*3 12.1 C 1.6 km/h
914 29-04-2020 04:05:00 12.1 C 9.54 g/m*3 12.1 C 0 km/h
915 29-04-2020 04:10:00 12.1 C 9.54 g/m*3 12.1 C 1.6 km/h
916 29-04-2020 04:15:00 12.1 C 9.54 g/m*3 12.1 C 0 km/h
917 29-04-2020 04:20:00 12.1 C 9.54 g/m*3 12.1 C 3.2 km/h
918 29-04-2020 04:25:00 12 C 9.48 g/m*3 12 C 1.6 km/h
919 29-04-2020 04:30:00 12 C 9.48 g/m*3 12 C 1.6 km/h
920 29-04-2020 04:35:00 12 C 9.48 g/m*3 12 C 1.6 km/h
921 29-04-2020 04:40:00 11.9 C 9.43 g/m*3 11.9 C 0 km/h
922 29-04-2020 04:45:00 11.9 C 9.43 g/m*3 11.9 C 1.6 km/h
923 29-04-2020 04:50:00 11.9 C 9.43 g/m*3 11.9 C 3.2 km/h
924 29-04-2020 04:55:00 11.9 C 9.43 g/m*3 11.9 C 0 km/h
925 29-04-2020 05:00:00 11.8 C 9.37 g/m*3 11.8 C 3.2 km/h
Sensor: Nr:Datum:Temp:Abs-Feuchte:Windchill:Wind:
Aussen-T/F 926 29-04-2020 05:05:00 11.8 C 9.37 g/m*3 11.8 C 3.2 km/h
927 29-04-2020 05:10:00 11.8 C 9.37 g/m*3 11.8 C 0 km/h
928 29-04-2020 05:15:00 11.8 C 9.37 g/m*3 11.8 C 0 km/h
929 29-04-2020 05:20:00 11.8 C 9.37 g/m*3 11.8 C 6.4 km/h
930 29-04-2020 05:25:00 11.8 C 9.37 g/m*3 11.8 C 0 km/h
931 29-04-2020 05:30:00 11.8 C 9.37 g/m*3 11.8 C 1.6 km/h
932 29-04-2020 05:35:00 11.8 C 9.37 g/m*3 11.8 C 0 km/h
933 29-04-2020 05:40:00 11.8 C 9.37 g/m*3 11.8 C 1.6 km/h
934 29-04-2020 05:45:00 11.8 C 9.37 g/m*3 11.8 C 0 km/h
935 29-04-2020 05:50:00 11.8 C 9.47 g/m*3 11.8 C 0 km/h
936 29-04-2020 05:55:00 11.8 C 9.47 g/m*3 11.8 C 1.6 km/h
937 29-04-2020 06:00:00 11.7 C 9.41 g/m*3 11.7 C 1.6 km/h
938 29-04-2020 06:05:00 11.7 C 9.41 g/m*3 11.7 C 0 km/h
939 29-04-2020 06:10:00 11.7 C 9.41 g/m*3 11.7 C 1.6 km/h
940 29-04-2020 06:15:00 11.7 C 9.41 g/m*3 11.7 C 1.6 km/h
941 29-04-2020 06:20:00 11.7 C 9.41 g/m*3 11.7 C 8.1 km/h
942 29-04-2020 06:25:00 11.7 C 9.31 g/m*3 11.7 C 4.8 km/h
943 29-04-2020 06:30:00 11.7 C 9.31 g/m*3 11.7 C 0 km/h
944 29-04-2020 06:35:00 11.7 C 9.31 g/m*3 11.7 C 0 km/h
945 29-04-2020 06:40:00 11.6 C 9.25 g/m*3 11.6 C 0 km/h
946 29-04-2020 06:45:00 11.6 C 9.25 g/m*3 11.6 C 0 km/h
947 29-04-2020 06:50:00 11.5 C 9.3 g/m*3 11.5 C 0 km/h
948 29-04-2020 06:55:00 11.6 C 9.35 g/m*3 11.6 C 1.6 km/h
949 29-04-2020 07:00:00 11.6 C 9.35 g/m*3 11.6 C 4.8 km/h
950 29-04-2020 07:05:00 11.7 C 9.41 g/m*3 11.7 C 1.6 km/h
Sensor: Nr:Datum:Temp:Abs-Feuchte:Windchill:Wind:
Aussen-T/F 951 29-04-2020 07:10:00 11.7 C 9.41 g/m*3 11.7 C 0 km/h
952 29-04-2020 07:15:00 11.8 C 9.47 g/m*3 11.8 C 3.2 km/h
953 29-04-2020 07:20:00 11.9 C 9.53 g/m*3 11.9 C 3.2 km/h
954 29-04-2020 07:25:00 11.9 C 9.53 g/m*3 11.9 C 1.6 km/h
955 29-04-2020 07:30:00 12.1 C 9.54 g/m*3 12.1 C 4.8 km/h
956 29-04-2020 07:35:00 12.1 C 9.54 g/m*3 12.1 C 3.2 km/h
957 29-04-2020 07:40:00 12.3 C 9.45 g/m*3 12.3 C 9.7 km/h
958 29-04-2020 07:45:00 12.3 C 9.45 g/m*3 12.3 C 8.1 km/h
959 29-04-2020 07:50:00 12.4 C 9.51 g/m*3 12.4 C 8.1 km/h
960 29-04-2020 07:55:00 12.6 C 9.51 g/m*3 12.6 C 11.3 km/h
961 29-04-2020 08:00:00 12.7 C 9.57 g/m*3 12.7 C 6.4 km/h
962 29-04-2020 08:05:00 12.7 C 9.57 g/m*3 12.7 C 3.2 km/h
963 29-04-2020 08:10:00 12.8 C 9.52 g/m*3 12.8 C 8.1 km/h
964 29-04-2020 08:15:00 12.9 C 9.47 g/m*3 12.9 C 8.1 km/h
965 29-04-2020 08:20:00 12.9 C 9.47 g/m*3 12.9 C 11.3 km/h
966 29-04-2020 08:25:00 12.9 C 9.47 g/m*3 12.9 C 11.3 km/h
967 29-04-2020 08:30:00 12.9 C 9.47 g/m*3 12.9 C 9.7 km/h
968 29-04-2020 08:35:00 12.8 C 9.41 g/m*3 12.8 C 9.7 km/h
969 29-04-2020 08:40:00 12.8 C 9.41 g/m*3 12.8 C 9.7 km/h
970 29-04-2020 08:45:00 12.8 C 9.41 g/m*3 12.8 C 9.7 km/h
971 29-04-2020 08:50:00 12.8 C 9.41 g/m*3 12.8 C 16.1 km/h
972 29-04-2020 08:55:00 12.8 C 9.41 g/m*3 12.8 C 12.9 km/h
973 29-04-2020 09:00:00 13 C 9.53 g/m*3 13 C 14.5 km/h
974 29-04-2020 09:05:00 13.1 C 9.36 g/m*3 13.1 C 12.9 km/h
975 29-04-2020 09:10:00 13.2 C 9.42 g/m*3 13.2 C 16.1 km/h
Sensor: Nr:Datum:Temp:Abs-Feuchte:Windchill:Wind:
Aussen-T/F 976 29-04-2020 09:15:00 13.2 C 9.3 g/m*3 13.2 C 12.9 km/h
977 29-04-2020 09:20:00 13.2 C 9.3 g/m*3 13.2 C 11.3 km/h
978 29-04-2020 09:25:00 13.3 C 9.24 g/m*3 13.3 C 20.9 km/h
979 29-04-2020 09:30:00 13.4 C 9.3 g/m*3 13.4 C 20.9 km/h
980 29-04-2020 09:35:00 13.5 C 9.36 g/m*3 13.5 C 14.5 km/h
981 29-04-2020 09:40:00 13.6 C 9.18 g/m*3 13.6 C 16.1 km/h
982 29-04-2020 09:45:00 13.7 C 9.24 g/m*3 13.7 C 12.9 km/h
983 29-04-2020 09:50:00 13.8 C 9.06 g/m*3 13.8 C 19.3 km/h
984 29-04-2020 09:55:00 13.9 C 8.99 g/m*3 13.9 C 14.5 km/h
985 29-04-2020 10:00:00 14.1 C 9.1 g/m*3 14.1 C 12.9 km/h
986 29-04-2020 10:05:00 14.2 C 9.04 g/m*3 14.2 C 17.7 km/h
987 29-04-2020 10:10:00 14.3 C 8.97 g/m*3 14.3 C 17.7 km/h
988 29-04-2020 10:15:00 14.4 C 9.27 g/m*3 14.4 C 8.1 km/h
989 29-04-2020 10:20:00 14.7 C 9.19 g/m*3 14.7 C 14.5 km/h
990 29-04-2020 10:25:00 14.8 C 9.12 g/m*3 14.8 C 14.5 km/h
991 29-04-2020 10:30:00 14.8 C 9.12 g/m*3 14.8 C 14.5 km/h
992 29-04-2020 10:35:00 14.8 C 8.99 g/m*3 14.8 C 12.9 km/h
993 29-04-2020 10:40:00 14.9 C 9.18 g/m*3 14.9 C 8.1 km/h
994 29-04-2020 10:45:00 14.8 C 8.99 g/m*3 14.8 C 14.5 km/h
995 29-04-2020 10:50:00 14.9 C 9.18 g/m*3 14.9 C 9.7 km/h
996 29-04-2020 10:55:00 15.1 C 9.16 g/m*3 15.1 C 16.1 km/h
997 29-04-2020 11:00:00 15.2 C 9.22 g/m*3 15.2 C 12.9 km/h
998 29-04-2020 11:05:00 15.4 C 9.33 g/m*3 15.4 C 8.1 km/h
999 29-04-2020 11:10:00 15.4 C 8.93 g/m*3 15.4 C 20.9 km/h
1000 29-04-2020 11:15:00 15.5 C 9.25 g/m*3 15.5 C 14.5 km/h
Sensor: Nr:Datum:Temp:Abs-Feuchte:Windchill:Wind:
Aussen-T/F 1001 29-04-2020 11:20:00 15.7 C 9.1 g/m*3 15.7 C 16.1 km/h
1002 29-04-2020 11:25:00 15.7 C 9.1 g/m*3 15.7 C 14.5 km/h
1003 29-04-2020 11:30:00 15.7 C 8.96 g/m*3 15.7 C 16.1 km/h
1004 29-04-2020 11:35:00 15.9 C 9.07 g/m*3 15.9 C 17.7 km/h
1005 29-04-2020 11:40:00 16.1 C 9.05 g/m*3 16.1 C 27.4 km/h
1006 29-04-2020 11:45:00 16.1 C 8.91 g/m*3 16.1 C 11.3 km/h
1007 29-04-2020 11:50:00 16.2 C 8.96 g/m*3 16.2 C 20.9 km/h
1008 29-04-2020 11:55:00 16.2 C 8.83 g/m*3 16.2 C 12.9 km/h
1009 29-04-2020 12:00:00 16.3 C 9.02 g/m*3 16.3 C 14.5 km/h
1010 29-04-2020 12:05:00 16.5 C 8.85 g/m*3 16.5 C 22.5 km/h
1011 29-04-2020 12:10:00 16.4 C 8.79 g/m*3 16.4 C 19.3 km/h
1012 29-04-2020 12:15:00 16.1 C 8.64 g/m*3 16.1 C 20.9 km/h
1013 29-04-2020 12:20:00 15.9 C 8.53 g/m*3 15.9 C 14.5 km/h
1014 29-04-2020 12:25:00 15.7 C 8.7 g/m*3 15.7 C 9.7 km/h
1015 29-04-2020 12:30:00 15.7 C 8.83 g/m*3 15.7 C 12.9 km/h
1016 29-04-2020 12:35:00 15.7 C 8.7 g/m*3 15.7 C 11.3 km/h
1017 29-04-2020 12:40:00 15.8 C 9.02 g/m*3 15.8 C 8.1 km/h
1018 29-04-2020 12:45:00 15.9 C 8.94 g/m*3 15.9 C 11.3 km/h
1019 29-04-2020 12:50:00 16 C 8.86 g/m*3 16 C 16.1 km/h
1020 29-04-2020 12:55:00 16 C 8.72 g/m*3 16 C 17.7 km/h
1021 29-04-2020 13:00:00 16.1 C 8.77 g/m*3 16.1 C 12.9 km/h
1022 29-04-2020 13:05:00 16.2 C 8.96 g/m*3 16.2 C 16.1 km/h
1023 29-04-2020 13:10:00 16.3 C 9.02 g/m*3 16.3 C 11.3 km/h
1024 29-04-2020 13:15:00 16.3 C 8.88 g/m*3 16.3 C 14.5 km/h
1025 29-04-2020 13:20:00 16.1 C 8.91 g/m*3 16.1 C 19.3 km/h
Sensor: Nr:Datum:Temp:Abs-Feuchte:Windchill:Wind:
Aussen-T/F 1026 29-04-2020 13:25:00 16 C 9.13 g/m*3 16 C 22.5 km/h
1027 29-04-2020 13:30:00 16.1 C 9.05 g/m*3 16.1 C 12.9 km/h
1028 29-04-2020 13:35:00 16.3 C 9.02 g/m*3 16.3 C 20.9 km/h
1029 29-04-2020 13:40:00 16.3 C 9.02 g/m*3 16.3 C 17.7 km/h
1030 29-04-2020 13:45:00 16.3 C 9.02 g/m*3 16.3 C 16.1 km/h
1031 29-04-2020 13:50:00 16.4 C 9.07 g/m*3 16.4 C 16.1 km/h
1032 29-04-2020 13:55:00 16.3 C 9.02 g/m*3 16.3 C 19.3 km/h
1033 29-04-2020 14:00:00 16.1 C 9.18 g/m*3 16.1 C 14.5 km/h
1034 29-04-2020 14:05:00 16.1 C 9.18 g/m*3 16.1 C 16.1 km/h
1035 29-04-2020 14:10:00 16.1 C 9.32 g/m*3 16.1 C 14.5 km/h
1036 29-04-2020 14:15:00 15.9 C 9.07 g/m*3 15.9 C 11.3 km/h
1037 29-04-2020 14:20:00 15.7 C 9.1 g/m*3 15.7 C 14.5 km/h
1038 29-04-2020 14:25:00 15.6 C 9.04 g/m*3 15.6 C 16.1 km/h
1039 29-04-2020 14:30:00 15.7 C 9.1 g/m*3 15.7 C 14.5 km/h
1040 29-04-2020 14:35:00 15.7 C 9.23 g/m*3 15.7 C 12.9 km/h
1041 29-04-2020 14:40:00 15.8 C 9.29 g/m*3 15.8 C 8.1 km/h
1042 29-04-2020 14:45:00 15.9 C 9.34 g/m*3 15.9 C 12.9 km/h
1043 29-04-2020 14:50:00 16.3 C 9.43 g/m*3 16.3 C 16.1 km/h
1044 29-04-2020 14:55:00 16.7 C 9.52 g/m*3 16.7 C 14.5 km/h
1045 29-04-2020 15:00:00 16.8 C 9.58 g/m*3 16.8 C 14.5 km/h
1046 29-04-2020 15:05:00 17.1 C 9.61 g/m*3 17.1 C 12.9 km/h
1047 29-04-2020 15:10:00 17.2 C 9.52 g/m*3 17.2 C 12.9 km/h
1048 29-04-2020 15:15:00 17.3 C 9.28 g/m*3 17.3 C 14.5 km/h
1049 29-04-2020 15:20:00 17.4 C 9.19 g/m*3 17.4 C 12.9 km/h
1050 29-04-2020 15:25:00 17.4 C 9.48 g/m*3 17.4 C 12.9 km/h
Sensor: Nr:Datum:Temp:Abs-Feuchte:Windchill:Wind:
Aussen-T/F 1051 29-04-2020 15:30:00 17.8 C 9.41 g/m*3 17.8 C 16.1 km/h
1052 29-04-2020 15:35:00 17.7 C 9.35 g/m*3 17.7 C 14.5 km/h
1053 29-04-2020 15:40:00 17.4 C 9.34 g/m*3 17.4 C 12.9 km/h
1054 29-04-2020 15:45:00 17.3 C 9.28 g/m*3 17.3 C 16.1 km/h
1055 29-04-2020 15:50:00 17.7 C 9.51 g/m*3 17.7 C 14.5 km/h
1056 29-04-2020 15:55:00 17.7 C 9.35 g/m*3 17.7 C 12.9 km/h
1057 29-04-2020 16:00:00 17.3 C 9.13 g/m*3 17.3 C 14.5 km/h
1058 29-04-2020 16:05:00 17.1 C 9.32 g/m*3 17.1 C 9.7 km/h
1059 29-04-2020 16:10:00 16.9 C 9.49 g/m*3 16.9 C 12.9 km/h
1060 29-04-2020 16:15:00 16.9 C 9.49 g/m*3 16.9 C 11.3 km/h
1061 29-04-2020 16:20:00 17.1 C 9.46 g/m*3 17.1 C 12.9 km/h
1062 29-04-2020 16:25:00 17.1 C 9.32 g/m*3 17.1 C 16.1 km/h
1063 29-04-2020 16:30:00 17 C 9.12 g/m*3 17 C 14.5 km/h
1064 29-04-2020 16:35:00 16.8 C 9.01 g/m*3 16.8 C 8.1 km/h
1065 29-04-2020 16:40:00 17 C 9.12 g/m*3 17 C 11.3 km/h
1066 29-04-2020 16:45:00 17.3 C 9.28 g/m*3 17.3 C 16.1 km/h
1067 29-04-2020 16:50:00 17.6 C 9.15 g/m*3 17.6 C 17.7 km/h
1068 29-04-2020 16:55:00 17.6 C 9.45 g/m*3 17.6 C 17.7 km/h
1069 29-04-2020 17:00:00 17.2 C 9.23 g/m*3 17.2 C 14.5 km/h
1070 29-04-2020 17:05:00 16.9 C 9.06 g/m*3 16.9 C 12.9 km/h
1071 29-04-2020 17:10:00 16.7 C 9.24 g/m*3 16.7 C 8.1 km/h
1072 29-04-2020 17:15:00 16.6 C 9.75 g/m*3 16.6 C 4.8 km/h
1073 29-04-2020 17:20:00 16.9 C 10.36 g/m*3 16.9 C 8.1 km/h
1074 29-04-2020 17:25:00 17.5 C 9.99 g/m*3 17.5 C 9.7 km/h
1075 29-04-2020 17:30:00 18.1 C 10.04 g/m*3 18.1 C 9.7 km/h
Sensor: Nr:Datum:Temp:Abs-Feuchte:Windchill:Wind:
Aussen-T/F 1076 29-04-2020 17:35:00 18.4 C 9.91 g/m*3 18.4 C 8.1 km/h
1077 29-04-2020 17:40:00 18.8 C 9.82 g/m*3 18.8 C 11.3 km/h
1078 29-04-2020 17:45:00 19 C 9.29 g/m*3 19 C 16.1 km/h
1079 29-04-2020 17:50:00 19.2 C 9.73 g/m*3 19.2 C 12.9 km/h
1080 29-04-2020 17:55:00 19.2 C 9.4 g/m*3 19.2 C 9.7 km/h
1081 29-04-2020 18:00:00 18.9 C 9.23 g/m*3 18.9 C 12.9 km/h
1082 29-04-2020 18:05:00 19.1 C 9.34 g/m*3 19.1 C 14.5 km/h
1083 29-04-2020 18:10:00 18.9 C 9.07 g/m*3 18.9 C 12.9 km/h
1084 29-04-2020 18:15:00 18.4 C 8.97 g/m*3 18.4 C 11.3 km/h
1085 29-04-2020 18:20:00 17.7 C 9.05 g/m*3 17.7 C 11.3 km/h
1086 29-04-2020 18:25:00 17.3 C 9.13 g/m*3 17.3 C 6.4 km/h
1087 29-04-2020 18:30:00 17.1 C 9.03 g/m*3 17.1 C 9.7 km/h
1088 29-04-2020 18:35:00 17.1 C 9.32 g/m*3 17.1 C 8.1 km/h
1089 29-04-2020 18:40:00 17.5 C 9.39 g/m*3 17.5 C 8.1 km/h
1090 29-04-2020 18:45:00 17.7 C 9.35 g/m*3 17.7 C 12.9 km/h
1091 29-04-2020 18:50:00 17.4 C 9.34 g/m*3 17.4 C 9.7 km/h
1092 29-04-2020 18:55:00 17.2 C 9.37 g/m*3 17.2 C 4.8 km/h
1093 29-04-2020 19:00:00 17.1 C 9.32 g/m*3 17.1 C 4.8 km/h
1094 29-04-2020 19:05:00 17 C 9.41 g/m*3 17 C 4.8 km/h
1095 29-04-2020 19:10:00 17 C 9.55 g/m*3 17 C 8.1 km/h
1096 29-04-2020 19:15:00 17.3 C 9.58 g/m*3 17.3 C 6.4 km/h
1097 29-04-2020 19:20:00 17.7 C 9.51 g/m*3 17.7 C 11.3 km/h
1098 29-04-2020 19:25:00 17.8 C 9.41 g/m*3 17.8 C 8.1 km/h
1099 29-04-2020 19:30:00 17.8 C 9.41 g/m*3 17.8 C 11.3 km/h
1100 29-04-2020 19:35:00 17.7 C 9.35 g/m*3 17.7 C 8.1 km/h
Sensor: Nr:Datum:Temp:Abs-Feuchte:Windchill:Wind:
Aussen-T/F 1101 29-04-2020 19:40:00 17.5 C 9.24 g/m*3 17.5 C 9.7 km/h
1102 29-04-2020 19:45:00 17.3 C 9.43 g/m*3 17.3 C 6.4 km/h
1103 29-04-2020 19:50:00 17.1 C 9.03 g/m*3 17.1 C 8.1 km/h
1104 29-04-2020 19:55:00 16.9 C 9.35 g/m*3 16.9 C 4.8 km/h
1105 29-04-2020 20:00:00 16.6 C 9.18 g/m*3 16.6 C 6.4 km/h
1106 29-04-2020 20:05:00 16.3 C 9.16 g/m*3 16.3 C 4.8 km/h
1107 29-04-2020 20:10:00 16 C 8.99 g/m*3 16 C 3.2 km/h
1108 29-04-2020 20:15:00 15.7 C 9.1 g/m*3 15.7 C 3.2 km/h
1109 29-04-2020 20:20:00 15.5 C 9.25 g/m*3 15.5 C 1.6 km/h
1110 29-04-2020 20:25:00 15.3 C 9.27 g/m*3 15.3 C 1.6 km/h
1111 29-04-2020 20:30:00 15.1 C 9.16 g/m*3 15.1 C 3.2 km/h
1112 29-04-2020 20:35:00 14.9 C 9.18 g/m*3 14.9 C 6.4 km/h
1113 29-04-2020 20:40:00 14.7 C 9.07 g/m*3 14.7 C 0 km/h
1114 29-04-2020 20:45:00 14.6 C 9.01 g/m*3 14.6 C 1.6 km/h
1115 29-04-2020 20:50:00 14.5 C 8.95 g/m*3 14.5 C 0 km/h
1116 29-04-2020 20:55:00 14.4 C 8.9 g/m*3 14.4 C 0 km/h
1117 29-04-2020 21:00:00 14.3 C 8.97 g/m*3 14.3 C 1.6 km/h
1118 29-04-2020 21:05:00 14.3 C 8.97 g/m*3 14.3 C 3.2 km/h
1119 29-04-2020 21:10:00 14.1 C 8.98 g/m*3 14.1 C 3.2 km/h
1120 29-04-2020 21:15:00 13.9 C 9.11 g/m*3 13.9 C 1.6 km/h
1121 29-04-2020 21:20:00 13.7 C 9.12 g/m*3 13.7 C 0 km/h
1122 29-04-2020 21:25:00 13.5 C 9.12 g/m*3 13.5 C 0 km/h
1123 29-04-2020 21:30:00 13.3 C 9.01 g/m*3 13.3 C 3.2 km/h
1124 29-04-2020 21:35:00 13.3 C 9.01 g/m*3 13.3 C 1.6 km/h
1125 29-04-2020 21:40:00 13.2 C 9.07 g/m*3 13.2 C 4.8 km/h
Sensor: Nr:Datum:Temp:Abs-Feuchte:Windchill:Wind:
Aussen-T/F 1126 29-04-2020 21:45:00 13.2 C 9.07 g/m*3 13.2 C 3.2 km/h
1127 29-04-2020 21:50:00 13.2 C 9.07 g/m*3 13.2 C 1.6 km/h
1128 29-04-2020 21:55:00 13.2 C 9.07 g/m*3 13.2 C 0 km/h
1129 29-04-2020 22:00:00 13.2 C 9.19 g/m*3 13.2 C 0 km/h
1130 29-04-2020 22:05:00 13.1 C 9.13 g/m*3 13.1 C 1.6 km/h
1131 29-04-2020 22:10:00 13.1 C 9.13 g/m*3 13.1 C 1.6 km/h
1132 29-04-2020 22:15:00 13.2 C 9.3 g/m*3 13.2 C 4.8 km/h
1133 29-04-2020 22:20:00 13.2 C 9.07 g/m*3 13.2 C 3.2 km/h
1134 29-04-2020 22:25:00 13.3 C 9.24 g/m*3 13.3 C 0 km/h
1135 29-04-2020 22:30:00 13.3 C 9.13 g/m*3 13.3 C 1.6 km/h
1136 29-04-2020 22:35:00 13.4 C 9.18 g/m*3 13.4 C 3.2 km/h
1137 29-04-2020 22:40:00 13.4 C 9.18 g/m*3 13.4 C 3.2 km/h
1138 29-04-2020 22:45:00 13.4 C 9.18 g/m*3 13.4 C 4.8 km/h
1139 29-04-2020 22:50:00 13.4 C 9.3 g/m*3 13.4 C 0 km/h
1140 29-04-2020 22:55:00 13.3 C 9.13 g/m*3 13.3 C 0 km/h
1141 29-04-2020 23:00:00 13.3 C 9.24 g/m*3 13.3 C 0 km/h
1142 29-04-2020 23:05:00 13.2 C 9.3 g/m*3 13.2 C 0 km/h
1143 29-04-2020 23:10:00 13.2 C 9.3 g/m*3 13.2 C 0 km/h
1144 29-04-2020 23:15:00 13.1 C 9.36 g/m*3 13.1 C 0 km/h
1145 29-04-2020 23:20:00 13 C 9.3 g/m*3 13 C 0 km/h
1146 29-04-2020 23:25:00 13 C 9.3 g/m*3 13 C 3.2 km/h
1147 29-04-2020 23:30:00 13.1 C 9.47 g/m*3 13.1 C 3.2 km/h
1148 29-04-2020 23:35:00 13.1 C 9.36 g/m*3 13.1 C 1.6 km/h
1149 29-04-2020 23:40:00 13.2 C 9.42 g/m*3 13.2 C 1.6 km/h
1150 29-04-2020 23:45:00 13.2 C 9.42 g/m*3 13.2 C 0 km/h
Sensor: Nr:Datum:Temp:Abs-Feuchte:Windchill:Wind:
Aussen-T/F 1151 29-04-2020 23:50:00 13.2 C 9.42 g/m*3 13.2 C 1.6 km/h
1152 29-04-2020 23:55:00 13.2 C 9.42 g/m*3 13.2 C 0 km/h
1153 30-04-2020 00:00:00 13.2 C 9.42 g/m*3 13.2 C 11.3 km/h
1154 30-04-2020 00:05:00 13.2 C 9.3 g/m*3 13.2 C 1.6 km/h
1155 30-04-2020 00:10:00 13.2 C 9.3 g/m*3 13.2 C 8.1 km/h
1156 30-04-2020 00:15:00 13.2 C 9.3 g/m*3 13.2 C 1.6 km/h
1157 30-04-2020 00:20:00 13.2 C 9.42 g/m*3 13.2 C 0 km/h
1158 30-04-2020 00:25:00 13.2 C 9.3 g/m*3 13.2 C 3.2 km/h
1159 30-04-2020 00:30:00 13.2 C 9.3 g/m*3 13.2 C 3.2 km/h
1160 30-04-2020 00:35:00 13.2 C 9.3 g/m*3 13.2 C 3.2 km/h
1161 30-04-2020 00:40:00 13.3 C 9.36 g/m*3 13.3 C 3.2 km/h
1162 30-04-2020 00:45:00 13.2 C 9.19 g/m*3 13.2 C 8.1 km/h
1163 30-04-2020 00:50:00 13.3 C 9.36 g/m*3 13.3 C 0 km/h
1164 30-04-2020 00:55:00 13.3 C 9.36 g/m*3 13.3 C 0 km/h
1165 30-04-2020 01:00:00 13.3 C 9.24 g/m*3 13.3 C 3.2 km/h
1166 30-04-2020 01:05:00 13.3 C 9.24 g/m*3 13.3 C 3.2 km/h
1167 30-04-2020 01:10:00 13.3 C 9.13 g/m*3 13.3 C 4.8 km/h
1168 30-04-2020 01:15:00 13.4 C 9.18 g/m*3 13.4 C 8.1 km/h
1169 30-04-2020 01:20:00 13.4 C 9.18 g/m*3 13.4 C 4.8 km/h
1170 30-04-2020 01:25:00 13.4 C 9.18 g/m*3 13.4 C 8.1 km/h
1171 30-04-2020 01:30:00 13.4 C 9.18 g/m*3 13.4 C 3.2 km/h
1172 30-04-2020 01:35:00 13.4 C 9.18 g/m*3 13.4 C 4.8 km/h
1173 30-04-2020 01:40:00 13.5 C 9.12 g/m*3 13.5 C 6.4 km/h
1174 30-04-2020 01:45:00 13.6 C 9.18 g/m*3 13.6 C 3.2 km/h
1175 30-04-2020 01:50:00 13.6 C 9.42 g/m*3 13.6 C 0 km/h
Sensor: Nr:Datum:Temp:Abs-Feuchte:Windchill:Wind:
Aussen-T/F 1176 30-04-2020 01:55:00 13.6 C 9.42 g/m*3 13.6 C 14.5 km/h
1177 30-04-2020 02:00:00 13.4 C 9.53 g/m*3 13.4 C 14.5 km/h
1178 30-04-2020 02:05:00 13.3 C 9.47 g/m*3 13.3 C 9.7 km/h
1179 30-04-2020 02:10:00 13.2 C 9.64 g/m*3 13.2 C 1.6 km/h
1180 30-04-2020 02:15:00 13 C 9.53 g/m*3 13 C 4.8 km/h
1181 30-04-2020 02:20:00 12.8 C 9.41 g/m*3 12.8 C 4.8 km/h
1182 30-04-2020 02:25:00 12.7 C 9.46 g/m*3 12.7 C 3.2 km/h
1183 30-04-2020 02:30:00 12.6 C 9.4 g/m*3 12.6 C 3.2 km/h
1184 30-04-2020 02:35:00 12.4 C 9.18 g/m*3 12.4 C 4.8 km/h
1185 30-04-2020 02:40:00 12.4 C 9.18 g/m*3 12.4 C 1.6 km/h
1186 30-04-2020 02:45:00 12.3 C 9.12 g/m*3 12.3 C 3.2 km/h
1187 30-04-2020 02:50:00 12.2 C 9.06 g/m*3 12.2 C 1.6 km/h
1188 30-04-2020 02:55:00 12.2 C 8.96 g/m*3 12.2 C 6.4 km/h
1189 30-04-2020 03:00:00 12.2 C 8.96 g/m*3 12.2 C 1.6 km/h
1190 30-04-2020 03:05:00 12.2 C 9.06 g/m*3 12.2 C 4.8 km/h
1191 30-04-2020 03:10:00 12.1 C 9.01 g/m*3 12.1 C 4.8 km/h
1192 30-04-2020 03:15:00 12.2 C 9.06 g/m*3 12.2 C 1.6 km/h
1193 30-04-2020 03:20:00 12.1 C 9.01 g/m*3 12.1 C 4.8 km/h
1194 30-04-2020 03:25:00 12.1 C 9.01 g/m*3 12.1 C 3.2 km/h
1195 30-04-2020 03:30:00 12.1 C 9.12 g/m*3 12.1 C 0 km/h
1196 30-04-2020 03:35:00 11.9 C 9.11 g/m*3 11.9 C 3.2 km/h
1197 30-04-2020 03:40:00 11.9 C 9.11 g/m*3 11.9 C 0 km/h
1198 30-04-2020 03:45:00 11.8 C 9.16 g/m*3 11.8 C 0 km/h
1199 30-04-2020 03:50:00 11.8 C 9.16 g/m*3 11.8 C 6.4 km/h
1200 30-04-2020 03:55:00 11.7 C 9.1 g/m*3 11.7 C 3.2 km/h
Sensor: Nr:Datum:Temp:Abs-Feuchte:Windchill:Wind:
Aussen-T/F 1201 30-04-2020 04:00:00 11.7 C 9.2 g/m*3 11.7 C 0 km/h
1202 30-04-2020 04:05:00 11.7 C 9.2 g/m*3 11.7 C 0 km/h
1203 30-04-2020 04:10:00 11.7 C 9.31 g/m*3 11.7 C 0 km/h
1204 30-04-2020 04:15:00 11.6 C 9.25 g/m*3 11.6 C 0 km/h
1205 30-04-2020 04:20:00 11.6 C 9.35 g/m*3 11.6 C 0 km/h
1206 30-04-2020 04:25:00 11.5 C 9.3 g/m*3 11.5 C 3.2 km/h
1207 30-04-2020 04:30:00 11.4 C 9.34 g/m*3 11.4 C 3.2 km/h
1208 30-04-2020 04:35:00 11.4 C 9.34 g/m*3 11.4 C 0 km/h
1209 30-04-2020 04:40:00 11.4 C 9.34 g/m*3 11.4 C 0 km/h
1210 30-04-2020 04:45:00 11.3 C 9.38 g/m*3 11.3 C 0 km/h
1211 30-04-2020 04:50:00 11.3 C 9.38 g/m*3 11.3 C 0 km/h
1212 30-04-2020 04:55:00 11.3 C 9.38 g/m*3 11.3 C 0 km/h
1213 30-04-2020 05:00:00 11.3 C 9.38 g/m*3 11.3 C 1.6 km/h
1214 30-04-2020 05:05:00 11.3 C 9.49 g/m*3 11.3 C 0 km/h
1215 30-04-2020 05:10:00 11.3 C 9.49 g/m*3 11.3 C 0 km/h
1216 30-04-2020 05:15:00 11.3 C 9.49 g/m*3 11.3 C 1.6 km/h
1217 30-04-2020 05:20:00 11.3 C 9.49 g/m*3 11.3 C 0 km/h
1218 30-04-2020 05:25:00 11.3 C 9.49 g/m*3 11.3 C 1.6 km/h
1219 30-04-2020 05:30:00 11.3 C 9.59 g/m*3 11.3 C 1.6 km/h
1220 30-04-2020 05:35:00 11.3 C 9.59 g/m*3 11.3 C 1.6 km/h
1221 30-04-2020 05:40:00 11.3 C 9.59 g/m*3 11.3 C 3.2 km/h
1222 30-04-2020 05:45:00 11.3 C 9.59 g/m*3 11.3 C 0 km/h
1223 30-04-2020 05:50:00 11.3 C 9.59 g/m*3 11.3 C 1.6 km/h
1224 30-04-2020 05:55:00 11.2 C 9.53 g/m*3 11.2 C 1.6 km/h
1225 30-04-2020 06:00:00 11.2 C 9.53 g/m*3 11.2 C 6.4 km/h
Sensor: Nr:Datum:Temp:Abs-Feuchte:Windchill:Wind:
Aussen-T/F 1226 30-04-2020 06:05:00 11.2 C 9.53 g/m*3 11.2 C 8.1 km/h
1227 30-04-2020 06:10:00 11.2 C 9.53 g/m*3 11.2 C 1.6 km/h
1228 30-04-2020 06:15:00 11.2 C 9.53 g/m*3 11.2 C 1.6 km/h
1229 30-04-2020 06:20:00 11.2 C 9.53 g/m*3 11.2 C 3.2 km/h
1230 30-04-2020 06:25:00 11.2 C 9.53 g/m*3 11.2 C 1.6 km/h
1231 30-04-2020 06:30:00 11.2 C 9.53 g/m*3 11.2 C 3.2 km/h
1232 30-04-2020 06:35:00 11.2 C 9.53 g/m*3 11.2 C 0 km/h
1233 30-04-2020 06:40:00 11.2 C 9.53 g/m*3 11.2 C 1.6 km/h
1234 30-04-2020 06:45:00 11.2 C 9.53 g/m*3 11.2 C 0 km/h
1235 30-04-2020 06:50:00 11.2 C 9.63 g/m*3 11.2 C 3.2 km/h
1236 30-04-2020 06:55:00 11.2 C 9.63 g/m*3 11.2 C 0 km/h
1237 30-04-2020 07:00:00 11.2 C 9.63 g/m*3 11.2 C 11.3 km/h
1238 30-04-2020 07:05:00 11.1 C 9.47 g/m*3 11.1 C 9.7 km/h
1239 30-04-2020 07:10:00 10.9 C 9.35 g/m*3 10.04 C 8.1 km/h
1240 30-04-2020 07:15:00 10.8 C 9.29 g/m*3 9.64 C 9.7 km/h
1241 30-04-2020 07:20:00 10.7 C 9.23 g/m*3 10.7 C 1.6 km/h
1242 30-04-2020 07:25:00 10.6 C 9.17 g/m*3 9.69 C 8.1 km/h
1243 30-04-2020 07:30:00 10.6 C 9.17 g/m*3 10.06 C 6.4 km/h
1244 30-04-2020 07:35:00 10.6 C 9.17 g/m*3 10.06 C 6.4 km/h
1245 30-04-2020 07:40:00 10.6 C 9.17 g/m*3 9.4 C 9.7 km/h
1246 30-04-2020 07:45:00 10.6 C 9.17 g/m*3 10.6 C 3.2 km/h
1247 30-04-2020 07:50:00 10.5 C 9.12 g/m*3 10.5 C 4.8 km/h
1248 30-04-2020 07:55:00 10.4 C 9.06 g/m*3 10.4 C 4.8 km/h
1249 30-04-2020 08:00:00 10.4 C 9.06 g/m*3 9.16 C 9.7 km/h
1250 30-04-2020 08:05:00 10.3 C 9 g/m*3 9.34 C 8.1 km/h
Sensor: Nr:Datum:Temp:Abs-Feuchte:Windchill:Wind:
Aussen-T/F 1251 30-04-2020 08:10:00 10.3 C 9 g/m*3 9.04 C 9.7 km/h
1252 30-04-2020 08:15:00 10.2 C 8.95 g/m*3 9.6 C 6.4 km/h
1253 30-04-2020 08:20:00 10.2 C 8.95 g/m*3 10.2 C 4.8 km/h
1254 30-04-2020 08:25:00 10.2 C 8.95 g/m*3 10.2 C 3.2 km/h
1255 30-04-2020 08:30:00 10.4 C 9.06 g/m*3 8.67 C 12.9 km/h
1256 30-04-2020 08:35:00 10.6 C 9.17 g/m*3 9.14 C 11.3 km/h
1257 30-04-2020 08:40:00 10.7 C 9.23 g/m*3 9.52 C 9.7 km/h
1258 30-04-2020 08:45:00 10.8 C 9.29 g/m*3 10.8 C 3.2 km/h
1259 30-04-2020 08:50:00 10.8 C 9.19 g/m*3 9.38 C 11.3 km/h
1260 30-04-2020 08:55:00 10.8 C 9.19 g/m*3 9.64 C 9.7 km/h
1261 30-04-2020 09:00:00 10.9 C 9.25 g/m*3 9.51 C 11.3 km/h
1262 30-04-2020 09:05:00 11 C 9.31 g/m*3 9.88 C 9.7 km/h
1263 30-04-2020 09:10:00 11.2 C 9.33 g/m*3 11.2 C 16.1 km/h
1264 30-04-2020 09:15:00 11.3 C 9.28 g/m*3 11.3 C 14.5 km/h
1265 30-04-2020 09:20:00 11.6 C 9.35 g/m*3 11.6 C 8.1 km/h
1266 30-04-2020 09:25:00 11.7 C 9.52 g/m*3 11.7 C 8.1 km/h
1267 30-04-2020 09:30:00 11.8 C 9.58 g/m*3 11.8 C 3.2 km/h
1268 30-04-2020 09:35:00 11.9 C 9.53 g/m*3 11.9 C 11.3 km/h
1269 30-04-2020 09:40:00 12 C 9.59 g/m*3 12 C 8.1 km/h
1270 30-04-2020 09:45:00 12.1 C 9.54 g/m*3 12.1 C 8.1 km/h
1271 30-04-2020 09:50:00 12.2 C 9.5 g/m*3 12.2 C 8.1 km/h
1272 30-04-2020 09:55:00 12.2 C 9.5 g/m*3 12.2 C 9.7 km/h
1273 30-04-2020 10:00:00 12.3 C 9.56 g/m*3 12.3 C 8.1 km/h
1274 30-04-2020 10:05:00 12.6 C 9.74 g/m*3 12.6 C 12.9 km/h
1275 30-04-2020 10:10:00 12.7 C 9.57 g/m*3 12.7 C 11.3 km/h
Sensor: Nr:Datum:Temp:Abs-Feuchte:Windchill:Wind:
Aussen-T/F 1276 30-04-2020 10:15:00 12.9 C 9.69 g/m*3 12.9 C 9.7 km/h
1277 30-04-2020 10:20:00 13.2 C 9.64 g/m*3 13.2 C 11.3 km/h
1278 30-04-2020 10:25:00 13.3 C 9.36 g/m*3 13.3 C 11.3 km/h
1279 30-04-2020 10:30:00 13.3 C 9.36 g/m*3 13.3 C 19.3 km/h
1280 30-04-2020 10:35:00 13.3 C 9.36 g/m*3 13.3 C 14.5 km/h
1281 30-04-2020 10:40:00 13.4 C 9.18 g/m*3 13.4 C 12.9 km/h
1282 30-04-2020 10:45:00 13.6 C 9.06 g/m*3 13.6 C 17.7 km/h
1283 30-04-2020 10:50:00 13.7 C 9.12 g/m*3 13.7 C 19.3 km/h
1284 30-04-2020 10:55:00 13.7 C 9.24 g/m*3 13.7 C 12.9 km/h
1285 30-04-2020 11:00:00 13.7 C 8.88 g/m*3 13.7 C 16.1 km/h
1286 30-04-2020 11:05:00 13.8 C 9.17 g/m*3 13.8 C 8.1 km/h
1287 30-04-2020 11:10:00 13.8 C 9.06 g/m*3 13.8 C 11.3 km/h
1288 30-04-2020 11:15:00 13.8 C 9.06 g/m*3 13.8 C 11.3 km/h
1289 30-04-2020 11:20:00 13.9 C 9.23 g/m*3 13.9 C 8.1 km/h
1290 30-04-2020 11:25:00 13.9 C 9.47 g/m*3 13.9 C 8.1 km/h
1291 30-04-2020 11:30:00 14 C 9.41 g/m*3 14 C 11.3 km/h
1292 30-04-2020 11:35:00 14.1 C 9.47 g/m*3 14.1 C 6.4 km/h
1293 30-04-2020 11:40:00 13.9 C 9.23 g/m*3 13.9 C 9.7 km/h
1294 30-04-2020 11:45:00 13.8 C 9.41 g/m*3 13.8 C 8.1 km/h
1295 30-04-2020 11:50:00 13.8 C 9.41 g/m*3 13.8 C 9.7 km/h
1296 30-04-2020 11:55:00 13.8 C 9.17 g/m*3 13.8 C 12.9 km/h
1297 30-04-2020 12:00:00 13.9 C 9.11 g/m*3 13.9 C 11.3 km/h
1298 30-04-2020 12:05:00 13.9 C 8.87 g/m*3 13.9 C 17.7 km/h
1299 30-04-2020 12:10:00 13.9 C 8.87 g/m*3 13.9 C 16.1 km/h
1300 30-04-2020 12:15:00 13.9 C 8.75 g/m*3 13.9 C 16.1 km/h
Sensor: Nr:Datum:Temp:Abs-Feuchte:Windchill:Wind:
Aussen-T/F 1301 30-04-2020 12:20:00 13.9 C 8.75 g/m*3 13.9 C 12.9 km/h
1302 30-04-2020 12:25:00 14 C 8.56 g/m*3 14 C 14.5 km/h
1303 30-04-2020 12:30:00 14 C 8.93 g/m*3 14 C 11.3 km/h
1304 30-04-2020 12:35:00 14.1 C 8.86 g/m*3 14.1 C 17.7 km/h
1305 30-04-2020 12:40:00 13.9 C 8.39 g/m*3 13.9 C 17.7 km/h
1306 30-04-2020 12:45:00 13.8 C 8.34 g/m*3 13.8 C 14.5 km/h
1307 30-04-2020 12:50:00 13.9 C 8.39 g/m*3 13.9 C 17.7 km/h
1308 30-04-2020 12:55:00 13.9 C 8.03 g/m*3 13.9 C 29 km/h
1309 30-04-2020 13:00:00 13.8 C 8.22 g/m*3 13.8 C 29 km/h
1310 30-04-2020 13:05:00 13.8 C 8.1 g/m*3 13.8 C 19.3 km/h
1311 30-04-2020 13:10:00 13.8 C 8.22 g/m*3 13.8 C 14.5 km/h
1312 30-04-2020 13:15:00 13.9 C 8.15 g/m*3 13.9 C 14.5 km/h
1313 30-04-2020 13:20:00 14 C 8.2 g/m*3 14 C 14.5 km/h
1314 30-04-2020 13:25:00 13.9 C 7.91 g/m*3 13.9 C 19.3 km/h
1315 30-04-2020 13:30:00 13.9 C 8.03 g/m*3 13.9 C 16.1 km/h
1316 30-04-2020 13:35:00 14 C 8.08 g/m*3 14 C 17.7 km/h
1317 30-04-2020 13:40:00 14.1 C 7.89 g/m*3 14.1 C 12.9 km/h
1318 30-04-2020 13:45:00 14.3 C 8.11 g/m*3 14.3 C 14.5 km/h
1319 30-04-2020 13:50:00 14.6 C 8.26 g/m*3 14.6 C 12.9 km/h
1320 30-04-2020 13:55:00 14.8 C 7.98 g/m*3 14.8 C 16.1 km/h
1321 30-04-2020 14:00:00 14.9 C 8.03 g/m*3 14.9 C 20.9 km/h
1322 30-04-2020 14:05:00 15.1 C 8.26 g/m*3 15.1 C 16.1 km/h
1323 30-04-2020 14:10:00 15.5 C 8.2 g/m*3 15.5 C 14.5 km/h
1324 30-04-2020 14:15:00 15.6 C 7.85 g/m*3 15.6 C 20.9 km/h
1325 30-04-2020 14:20:00 15.4 C 7.88 g/m*3 15.4 C 17.7 km/h
Sensor: Nr:Datum:Temp:Abs-Feuchte:Windchill:Wind:
Aussen-T/F 1326 30-04-2020 14:25:00 15.3 C 8.1 g/m*3 15.3 C 12.9 km/h
1327 30-04-2020 14:30:00 15.4 C 8.01 g/m*3 15.4 C 14.5 km/h
1328 30-04-2020 14:35:00 15.8 C 8.21 g/m*3 15.8 C 17.7 km/h
1329 30-04-2020 14:40:00 15.9 C 7.99 g/m*3 15.9 C 17.7 km/h
1330 30-04-2020 14:45:00 15.8 C 7.94 g/m*3 15.8 C 17.7 km/h
1331 30-04-2020 14:50:00 15.8 C 8.08 g/m*3 15.8 C 17.7 km/h
1332 30-04-2020 14:55:00 15.8 C 8.08 g/m*3 15.8 C 16.1 km/h
1333 30-04-2020 15:00:00 15.9 C 8.4 g/m*3 15.9 C 9.7 km/h
1334 30-04-2020 15:05:00 16.2 C 8 g/m*3 16.2 C 17.7 km/h
1335 30-04-2020 15:10:00 16.3 C 8.19 g/m*3 16.3 C 14.5 km/h
1336 30-04-2020 15:15:00 16.3 C 8.05 g/m*3 16.3 C 11.3 km/h
1337 30-04-2020 15:20:00 16.2 C 7.86 g/m*3 16.2 C 12.9 km/h
1338 30-04-2020 15:25:00 16.1 C 7.95 g/m*3 16.1 C 11.3 km/h
1339 30-04-2020 15:30:00 16.1 C 7.95 g/m*3 16.1 C 11.3 km/h
1340 30-04-2020 15:35:00 15.8 C 7.81 g/m*3 15.8 C 11.3 km/h
1341 30-04-2020 15:40:00 15.6 C 7.71 g/m*3 15.6 C 14.5 km/h
1342 30-04-2020 15:45:00 15.4 C 7.75 g/m*3 15.4 C 9.7 km/h
1343 30-04-2020 15:50:00 15.4 C 8.01 g/m*3 15.4 C 4.8 km/h
1344 30-04-2020 15:55:00 15.3 C 8.1 g/m*3 15.3 C 3.2 km/h
1345 30-04-2020 16:00:00 15.4 C 8.15 g/m*3 15.4 C 1.6 km/h
1346 30-04-2020 16:05:00 15.4 C 8.01 g/m*3 15.4 C 4.8 km/h
1347 30-04-2020 16:10:00 15.5 C 7.93 g/m*3 15.5 C 4.8 km/h
1348 30-04-2020 16:15:00 15.6 C 8.25 g/m*3 15.6 C 4.8 km/h
1349 30-04-2020 16:20:00 15.7 C 8.3 g/m*3 15.7 C 11.3 km/h
1350 30-04-2020 16:25:00 15.7 C 8.3 g/m*3 15.7 C 6.4 km/h
Sensor: Nr:Datum:Temp:Abs-Feuchte:Windchill:Wind:
Aussen-T/F 1351 30-04-2020 16:30:00 15.7 C 8.43 g/m*3 15.7 C 8.1 km/h
1352 30-04-2020 16:35:00 15.7 C 8.43 g/m*3 15.7 C 6.4 km/h
1353 30-04-2020 16:40:00 15.7 C 8.3 g/m*3 15.7 C 6.4 km/h
1354 30-04-2020 16:45:00 15.7 C 8.3 g/m*3 15.7 C 6.4 km/h
1355 30-04-2020 16:50:00 15.7 C 8.16 g/m*3 15.7 C 8.1 km/h
1356 30-04-2020 16:55:00 15.6 C 8.38 g/m*3 15.6 C 6.4 km/h
1357 30-04-2020 17:00:00 15.4 C 8.41 g/m*3 15.4 C 1.6 km/h
1358 30-04-2020 17:05:00 15.3 C 8.49 g/m*3 15.3 C 11.3 km/h
1359 30-04-2020 17:10:00 15 C 9.1 g/m*3 15 C 4.8 km/h
1360 30-04-2020 17:15:00 14.5 C 9.08 g/m*3 14.5 C 16.1 km/h
1361 30-04-2020 17:20:00 14.1 C 9.34 g/m*3 14.1 C 4.8 km/h
1362 30-04-2020 17:25:00 13.6 C 9.3 g/m*3 13.6 C 8.1 km/h
1363 30-04-2020 17:30:00 13.1 C 9.24 g/m*3 13.1 C 9.7 km/h
1364 30-04-2020 17:35:00 12.6 C 9.18 g/m*3 12.6 C 12.9 km/h
1365 30-04-2020 17:40:00 12.1 C 9.12 g/m*3 12.1 C 9.7 km/h
1366 30-04-2020 17:45:00 11.8 C 9.05 g/m*3 11.8 C 14.5 km/h
1367 30-04-2020 17:50:00 11.6 C 9.15 g/m*3 11.6 C 11.3 km/h
1368 30-04-2020 17:55:00 11.4 C 9.03 g/m*3 11.4 C 9.7 km/h
1369 30-04-2020 18:00:00 11.3 C 9.08 g/m*3 11.3 C 11.3 km/h
1370 30-04-2020 18:05:00 11.2 C 9.12 g/m*3 11.2 C 8.1 km/h
1371 30-04-2020 18:10:00 11.2 C 9.12 g/m*3 11.2 C 11.3 km/h
1372 30-04-2020 18:15:00 11.1 C 9.07 g/m*3 11.1 C 11.3 km/h
1373 30-04-2020 18:20:00 11 C 9.11 g/m*3 10.52 C 6.4 km/h
1374 30-04-2020 18:25:00 10.9 C 8.95 g/m*3 9.76 C 9.7 km/h
1375 30-04-2020 18:30:00 10.9 C 9.05 g/m*3 10.9 C 3.2 km/h
Sensor: Nr:Datum:Temp:Abs-Feuchte:Windchill:Wind:
Aussen-T/F 1376 30-04-2020 18:35:00 10.8 C 8.99 g/m*3 10.29 C 6.4 km/h
1377 30-04-2020 18:40:00 10.7 C 8.94 g/m*3 9.04 C 12.9 km/h
1378 30-04-2020 18:45:00 10.6 C 8.88 g/m*3 8.71 C 14.5 km/h
1379 30-04-2020 18:50:00 10.5 C 8.83 g/m*3 8.23 C 17.7 km/h
1380 30-04-2020 18:55:00 10.4 C 8.77 g/m*3 8.9 C 11.3 km/h
1381 30-04-2020 19:00:00 10.3 C 8.71 g/m*3 7.82 C 19.3 km/h
1382 30-04-2020 19:05:00 10.2 C 8.66 g/m*3 8.22 C 14.5 km/h
1383 30-04-2020 19:10:00 10 C 8.55 g/m*3 8.19 C 12.9 km/h
1384 30-04-2020 19:15:00 9.9 C 8.5 g/m*3 8.87 C 8.1 km/h
1385 30-04-2020 19:20:00 10.2 C 8.85 g/m*3 10.2 C 3.2 km/h
1386 30-04-2020 19:25:00 10.6 C 9.08 g/m*3 10.6 C 4.8 km/h
1387 30-04-2020 19:30:00 10.8 C 8.99 g/m*3 10.8 C 4.8 km/h
1388 30-04-2020 19:35:00 11.1 C 9.27 g/m*3 11.1 C 3.2 km/h
1389 30-04-2020 19:40:00 11.1 C 9.17 g/m*3 11.1 C 6.4 km/h
1390 30-04-2020 19:45:00 11.2 C 9.22 g/m*3 11.2 C 0 km/h
1391 30-04-2020 19:50:00 11.2 C 9.22 g/m*3 11.2 C 1.6 km/h
1392 30-04-2020 19:55:00 11.3 C 9.28 g/m*3 11.3 C 1.6 km/h
1393 30-04-2020 20:00:00 11.2 C 9.22 g/m*3 11.2 C 1.6 km/h
1394 30-04-2020 20:05:00 11.1 C 9.17 g/m*3 11.1 C 1.6 km/h
1395 30-04-2020 20:10:00 10.9 C 9.05 g/m*3 10.9 C 0 km/h
1396 30-04-2020 20:15:00 10.8 C 8.99 g/m*3 10.8 C 0 km/h
1397 30-04-2020 20:20:00 10.7 C 8.94 g/m*3 10.7 C 1.6 km/h
1398 30-04-2020 20:25:00 10.5 C 8.83 g/m*3 10.5 C 1.6 km/h
1399 30-04-2020 20:30:00 10.3 C 8.71 g/m*3 10.3 C 3.2 km/h
1400 30-04-2020 20:35:00 10.2 C 8.66 g/m*3 10.2 C 4.8 km/h
Sensor: Nr:Datum:Temp:Abs-Feuchte:Windchill:Wind:
Aussen-T/F 1401 30-04-2020 20:40:00 9.9 C 8.5 g/m*3 9.9 C 4.8 km/h
1402 30-04-2020 20:45:00 9.8 C 8.44 g/m*3 9.8 C 1.6 km/h
1403 30-04-2020 20:50:00 9.6 C 8.34 g/m*3 9.6 C 0 km/h
1404 30-04-2020 20:55:00 9.5 C 8.37 g/m*3 9.5 C 0 km/h
1405 30-04-2020 21:00:00 9.4 C 8.32 g/m*3 9.4 C 0 km/h
1406 30-04-2020 21:05:00 9.4 C 8.32 g/m*3 9.4 C 0 km/h
1407 30-04-2020 21:10:00 9.3 C 8.36 g/m*3 9.3 C 3.2 km/h
1408 30-04-2020 21:15:00 9.3 C 8.36 g/m*3 9.3 C 3.2 km/h
1409 30-04-2020 21:20:00 9.3 C 8.36 g/m*3 9.3 C 0 km/h
1410 30-04-2020 21:25:00 9.4 C 8.41 g/m*3 9.4 C 0 km/h
1411 30-04-2020 21:30:00 9.4 C 8.5 g/m*3 9.4 C 1.6 km/h
1412 30-04-2020 21:35:00 9.4 C 8.5 g/m*3 9.4 C 0 km/h
1413 30-04-2020 21:40:00 9.5 C 8.56 g/m*3 9.5 C 0 km/h
1414 30-04-2020 21:45:00 9.5 C 8.56 g/m*3 9.5 C 1.6 km/h
1415 30-04-2020 21:50:00 9.6 C 8.61 g/m*3 9.6 C 1.6 km/h
1416 30-04-2020 21:55:00 9.6 C 8.61 g/m*3 9.6 C 1.6 km/h
1417 30-04-2020 22:00:00 9.6 C 8.61 g/m*3 9.6 C 0 km/h
1418 30-04-2020 22:05:00 9.5 C 8.56 g/m*3 9.5 C 3.2 km/h
1419 30-04-2020 22:10:00 9.3 C 8.45 g/m*3 9.3 C 3.2 km/h
1420 30-04-2020 22:15:00 9.2 C 8.39 g/m*3 9.2 C 3.2 km/h
1421 30-04-2020 22:20:00 9.1 C 8.34 g/m*3 9.1 C 4.8 km/h
1422 30-04-2020 22:25:00 9.1 C 8.34 g/m*3 9.1 C 3.2 km/h
1423 30-04-2020 22:30:00 9.2 C 8.48 g/m*3 9.2 C 0 km/h
1424 30-04-2020 22:35:00 9.3 C 8.54 g/m*3 9.3 C 0 km/h
1425 30-04-2020 22:40:00 9.2 C 8.48 g/m*3 9.2 C 0 km/h
Sensor: Nr:Datum:Temp:Abs-Feuchte:Windchill:Wind:
Aussen-T/F 1426 30-04-2020 22:45:00 9.2 C 8.48 g/m*3 8.45 C 6.4 km/h
1427 30-04-2020 22:50:00 9.1 C 8.43 g/m*3 9.1 C 3.2 km/h
1428 30-04-2020 22:55:00 9 C 8.38 g/m*3 9 C 0 km/h
1429 30-04-2020 23:00:00 9.1 C 8.43 g/m*3 9.1 C 1.6 km/h
1430 30-04-2020 23:05:00 9 C 8.38 g/m*3 9 C 3.2 km/h
1431 30-04-2020 23:10:00 8.9 C 8.32 g/m*3 8.9 C 3.2 km/h
1432 30-04-2020 23:15:00 8.8 C 8.27 g/m*3 8.8 C 0 km/h
1433 30-04-2020 23:20:00 8.8 C 8.27 g/m*3 8.8 C 4.8 km/h
1434 30-04-2020 23:25:00 8.8 C 8.27 g/m*3 8.8 C 1.6 km/h
1435 30-04-2020 23:30:00 8.8 C 8.27 g/m*3 8.8 C 4.8 km/h
1436 30-04-2020 23:35:00 8.8 C 8.27 g/m*3 8.8 C 3.2 km/h
1437 30-04-2020 23:40:00 8.9 C 8.32 g/m*3 7.69 C 8.1 km/h
1438 30-04-2020 23:45:00 9.2 C 8.57 g/m*3 7.21 C 12.9 km/h
1439 30-04-2020 23:50:00 9.3 C 8.63 g/m*3 8.16 C 8.1 km/h
1440 30-04-2020 23:55:00 9.4 C 8.68 g/m*3 7.97 C 9.7 km/h
1441 01-05-2020 00:00:00 9.4 C 8.59 g/m*3 7.97 C 9.7 km/h
1442 01-05-2020 00:05:00 9.3 C 8.54 g/m*3 8.56 C 6.4 km/h
1443 01-05-2020 00:10:00 9.3 C 8.54 g/m*3 8.56 C 6.4 km/h
1444 01-05-2020 00:15:00 9.2 C 8.48 g/m*3 9.2 C 3.2 km/h
1445 01-05-2020 00:20:00 9.1 C 8.43 g/m*3 8.33 C 6.4 km/h
1446 01-05-2020 00:25:00 8.9 C 8.32 g/m*3 7.37 C 9.7 km/h
1447 01-05-2020 00:30:00 8.8 C 8.27 g/m*3 7.98 C 6.4 km/h
1448 01-05-2020 00:35:00 8.8 C 8.27 g/m*3 7.58 C 8.1 km/h
1449 01-05-2020 00:40:00 8.7 C 8.22 g/m*3 8.7 C 4.8 km/h
1450 01-05-2020 00:45:00 8.7 C 8.22 g/m*3 7.87 C 6.4 km/h
Sensor: Nr:Datum:Temp:Abs-Feuchte:Windchill:Wind:
Aussen-T/F 1451 01-05-2020 00:50:00 8.6 C 8.16 g/m*3 8.6 C 3.2 km/h
1452 01-05-2020 00:55:00 8.4 C 8.06 g/m*3 7.52 C 6.4 km/h
1453 01-05-2020 01:00:00 8.3 C 8.01 g/m*3 7.41 C 6.4 km/h
1454 01-05-2020 01:05:00 8.3 C 8.01 g/m*3 6.99 C 8.1 km/h
1455 01-05-2020 01:10:00 8.3 C 8.01 g/m*3 8.3 C 4.8 km/h
1456 01-05-2020 01:15:00 8.4 C 8.06 g/m*3 6.78 C 9.7 km/h
1457 01-05-2020 01:20:00 8.4 C 8.06 g/m*3 6.01 C 14.5 km/h
1458 01-05-2020 01:25:00 8.4 C 8.06 g/m*3 8.4 C 4.8 km/h
1459 01-05-2020 01:30:00 8.3 C 8.01 g/m*3 6.37 C 11.3 km/h
1460 01-05-2020 01:35:00 8.3 C 8.01 g/m*3 6.37 C 11.3 km/h
1461 01-05-2020 01:40:00 8.3 C 8.01 g/m*3 6.37 C 11.3 km/h
1462 01-05-2020 01:45:00 8.3 C 8.01 g/m*3 5.48 C 17.7 km/h
1463 01-05-2020 01:50:00 8.3 C 7.92 g/m*3 7.41 C 6.4 km/h
1464 01-05-2020 01:55:00 8.3 C 7.92 g/m*3 6.66 C 9.7 km/h
1465 01-05-2020 02:00:00 8.3 C 7.92 g/m*3 5.68 C 16.1 km/h
1466 01-05-2020 02:05:00 8.3 C 7.92 g/m*3 6.99 C 8.1 km/h
1467 01-05-2020 02:10:00 8.3 C 7.92 g/m*3 7.41 C 6.4 km/h
1468 01-05-2020 02:15:00 8.2 C 7.87 g/m*3 6.87 C 8.1 km/h
1469 01-05-2020 02:20:00 8.2 C 7.87 g/m*3 7.29 C 6.4 km/h
1470 01-05-2020 02:25:00 8.1 C 7.82 g/m*3 6.75 C 8.1 km/h
1471 01-05-2020 02:30:00 8.1 C 7.82 g/m*3 7.17 C 6.4 km/h
1472 01-05-2020 02:35:00 8 C 7.77 g/m*3 6.3 C 9.7 km/h
1473 01-05-2020 02:40:00 8.1 C 7.82 g/m*3 6.42 C 9.7 km/h
1474 01-05-2020 02:45:00 8.1 C 7.82 g/m*3 7.17 C 6.4 km/h
1475 01-05-2020 02:50:00 8.1 C 7.82 g/m*3 7.17 C 6.4 km/h
Sensor: Nr:Datum:Temp:Abs-Feuchte:Windchill:Wind:
Aussen-T/F 1476 01-05-2020 02:55:00 8.1 C 7.82 g/m*3 7.17 C 6.4 km/h
1477 01-05-2020 03:00:00 8.1 C 7.82 g/m*3 8.1 C 1.6 km/h
1478 01-05-2020 03:05:00 8 C 7.77 g/m*3 8 C 1.6 km/h
1479 01-05-2020 03:10:00 7.9 C 7.72 g/m*3 6.94 C 6.4 km/h
1480 01-05-2020 03:15:00 7.9 C 7.72 g/m*3 6.52 C 8.1 km/h
1481 01-05-2020 03:20:00 7.9 C 7.8 g/m*3 7.9 C 4.8 km/h
1482 01-05-2020 03:25:00 8.1 C 7.9 g/m*3 8.1 C 4.8 km/h
1483 01-05-2020 03:30:00 8.1 C 7.9 g/m*3 8.1 C 4.8 km/h
1484 01-05-2020 03:35:00 8.2 C 7.96 g/m*3 6.87 C 8.1 km/h
1485 01-05-2020 03:40:00 8.2 C 7.96 g/m*3 6.54 C 9.7 km/h
1486 01-05-2020 03:45:00 8.2 C 7.87 g/m*3 8.2 C 4.8 km/h
1487 01-05-2020 03:50:00 8.2 C 7.87 g/m*3 8.2 C 4.8 km/h
1488 01-05-2020 03:55:00 8.1 C 7.82 g/m*3 8.1 C 4.8 km/h
1489 01-05-2020 04:00:00 8 C 7.77 g/m*3 8 C 4.8 km/h
1490 01-05-2020 04:05:00 7.9 C 7.72 g/m*3 6.94 C 6.4 km/h
1491 01-05-2020 04:10:00 7.9 C 7.72 g/m*3 7.9 C 3.2 km/h
1492 01-05-2020 04:15:00 7.8 C 7.67 g/m*3 7.8 C 3.2 km/h
1493 01-05-2020 04:20:00 7.7 C 7.62 g/m*3 7.7 C 1.6 km/h
1494 01-05-2020 04:25:00 7.6 C 7.57 g/m*3 7.6 C 0 km/h
1495 01-05-2020 04:30:00 7.6 C 7.65 g/m*3 7.6 C 0 km/h
1496 01-05-2020 04:35:00 7.7 C 7.7 g/m*3 7.7 C 0 km/h
1497 01-05-2020 04:40:00 7.8 C 7.75 g/m*3 7.8 C 0 km/h
1498 01-05-2020 04:45:00 7.9 C 7.8 g/m*3 7.9 C 0 km/h
1499 01-05-2020 04:50:00 7.9 C 7.8 g/m*3 7.9 C 0 km/h
1500 01-05-2020 04:55:00 8.1 C 7.9 g/m*3 8.1 C 0 km/h
Sensor: Nr:Datum:Temp:Abs-Feuchte:Windchill:Wind:
Aussen-T/F 1501 01-05-2020 05:00:00 8.2 C 8.04 g/m*3 8.2 C 0 km/h
1502 01-05-2020 05:05:00 8.2 C 8.04 g/m*3 8.2 C 0 km/h
1503 01-05-2020 05:10:00 8.3 C 8.09 g/m*3 8.3 C 0 km/h
1504 01-05-2020 05:15:00 8.4 C 8.14 g/m*3 8.4 C 1.6 km/h
1505 01-05-2020 05:20:00 8.5 C 8.2 g/m*3 8.5 C 4.8 km/h
1506 01-05-2020 05:25:00 8.5 C 8.2 g/m*3 8.5 C 1.6 km/h
1507 01-05-2020 05:30:00 8.6 C 8.25 g/m*3 8.6 C 3.2 km/h
1508 01-05-2020 05:35:00 8.6 C 8.25 g/m*3 6.05 C 16.1 km/h
1509 01-05-2020 05:40:00 8.7 C 8.3 g/m*3 5.65 C 20.9 km/h
1510 01-05-2020 05:45:00 8.8 C 8.27 g/m*3 7.58 C 8.1 km/h
1511 01-05-2020 05:50:00 8.8 C 8.18 g/m*3 6.5 C 14.5 km/h
1512 01-05-2020 05:55:00 8.7 C 8.13 g/m*3 6.17 C 16.1 km/h
1513 01-05-2020 06:00:00 8.7 C 8.13 g/m*3 6.38 C 14.5 km/h
1514 01-05-2020 06:05:00 8.6 C 7.99 g/m*3 7.34 C 8.1 km/h
1515 01-05-2020 06:10:00 8.6 C 7.99 g/m*3 8.6 C 4.8 km/h
1516 01-05-2020 06:15:00 8.5 C 7.94 g/m*3 7.22 C 8.1 km/h
1517 01-05-2020 06:20:00 8.4 C 7.89 g/m*3 7.52 C 6.4 km/h
1518 01-05-2020 06:25:00 8.3 C 7.92 g/m*3 8.3 C 4.8 km/h
1519 01-05-2020 06:30:00 8.3 C 7.84 g/m*3 7.41 C 6.4 km/h
1520 01-05-2020 06:35:00 8.3 C 7.92 g/m*3 8.3 C 1.6 km/h
1521 01-05-2020 06:40:00 8.3 C 7.92 g/m*3 8.3 C 4.8 km/h
1522 01-05-2020 06:45:00 8.3 C 7.92 g/m*3 8.3 C 3.2 km/h
1523 01-05-2020 06:50:00 8.2 C 7.87 g/m*3 8.2 C 4.8 km/h
1524 01-05-2020 06:55:00 8.1 C 7.82 g/m*3 8.1 C 0 km/h
1525 01-05-2020 07:00:00 7.9 C 7.72 g/m*3 7.9 C 0 km/h
Sensor: Nr:Datum:Temp:Abs-Feuchte:Windchill:Wind:
Aussen-T/F 1526 01-05-2020 07:05:00 7.8 C 7.67 g/m*3 7.8 C 0 km/h
1527 01-05-2020 07:10:00 7.7 C 7.62 g/m*3 7.7 C 0 km/h
1528 01-05-2020 07:15:00 7.7 C 7.62 g/m*3 7.7 C 0 km/h
1529 01-05-2020 07:20:00 7.8 C 7.67 g/m*3 7.8 C 0 km/h
1530 01-05-2020 07:25:00 7.9 C 7.8 g/m*3 7.9 C 0 km/h
1531 01-05-2020 07:30:00 8 C 7.85 g/m*3 8 C 0 km/h
1532 01-05-2020 07:35:00 8.2 C 7.96 g/m*3 8.2 C 1.6 km/h
1533 01-05-2020 07:40:00 8.3 C 8.01 g/m*3 8.3 C 0 km/h
1534 01-05-2020 07:45:00 8.4 C 8.14 g/m*3 8.4 C 3.2 km/h
1535 01-05-2020 07:50:00 8.5 C 8.11 g/m*3 6.9 C 9.7 km/h
1536 01-05-2020 07:55:00 8.5 C 8.03 g/m*3 7.22 C 8.1 km/h
1537 01-05-2020 08:00:00 8.6 C 8.08 g/m*3 8.6 C 3.2 km/h
1538 01-05-2020 08:05:00 8.6 C 8.16 g/m*3 8.6 C 1.6 km/h
1539 01-05-2020 08:10:00 8.7 C 8.22 g/m*3 8.7 C 3.2 km/h
1540 01-05-2020 08:15:00 8.8 C 8.18 g/m*3 8.8 C 4.8 km/h
1541 01-05-2020 08:20:00 8.8 C 8.18 g/m*3 8.8 C 0 km/h
1542 01-05-2020 08:25:00 8.8 C 8.18 g/m*3 8.8 C 0 km/h
1543 01-05-2020 08:30:00 8.8 C 8.18 g/m*3 8.8 C 0 km/h
1544 01-05-2020 08:35:00 8.8 C 8.27 g/m*3 8.8 C 0 km/h
1545 01-05-2020 08:40:00 8.9 C 8.32 g/m*3 8.9 C 0 km/h
1546 01-05-2020 08:45:00 9 C 8.38 g/m*3 9 C 0 km/h
1547 01-05-2020 08:50:00 9.1 C 8.43 g/m*3 9.1 C 0 km/h
1548 01-05-2020 08:55:00 9.2 C 8.48 g/m*3 9.2 C 0 km/h
1549 01-05-2020 09:00:00 9.4 C 8.59 g/m*3 9.4 C 0 km/h
1550 01-05-2020 09:05:00 9.5 C 8.65 g/m*3 9.5 C 1.6 km/h
Sensor: Nr:Datum:Temp:Abs-Feuchte:Windchill:Wind:
Aussen-T/F 1551 01-05-2020 09:10:00 9.6 C 8.7 g/m*3 9.6 C 1.6 km/h
1552 01-05-2020 09:15:00 9.7 C 8.76 g/m*3 9.7 C 1.6 km/h
1553 01-05-2020 09:20:00 9.8 C 8.81 g/m*3 9.8 C 4.8 km/h
1554 01-05-2020 09:25:00 9.9 C 8.87 g/m*3 9.9 C 3.2 km/h
1555 01-05-2020 09:30:00 10 C 8.93 g/m*3 10 C 4.8 km/h
1556 01-05-2020 09:35:00 10.1 C 8.89 g/m*3 8.31 C 12.9 km/h
1557 01-05-2020 09:40:00 10.2 C 8.85 g/m*3 9.6 C 6.4 km/h
1558 01-05-2020 09:45:00 10.3 C 8.91 g/m*3 8.55 C 12.9 km/h
1559 01-05-2020 09:50:00 10.3 C 8.71 g/m*3 9.04 C 9.7 km/h
1560 01-05-2020 09:55:00 10.3 C 8.71 g/m*3 8.34 C 14.5 km/h
1561 01-05-2020 10:00:00 10.4 C 8.67 g/m*3 9.46 C 8.1 km/h
1562 01-05-2020 10:05:00 10.5 C 8.83 g/m*3 10.5 C 4.8 km/h
1563 01-05-2020 10:10:00 10.5 C 8.63 g/m*3 8.8 C 12.9 km/h
1564 01-05-2020 10:15:00 10.6 C 8.78 g/m*3 10.6 C 3.2 km/h
1565 01-05-2020 10:20:00 10.6 C 8.69 g/m*3 9.4 C 9.7 km/h
1566 01-05-2020 10:25:00 10.6 C 8.69 g/m*3 9.69 C 8.1 km/h
1567 01-05-2020 10:30:00 10.7 C 8.74 g/m*3 9.52 C 9.7 km/h
1568 01-05-2020 10:35:00 10.8 C 8.8 g/m*3 10.29 C 6.4 km/h
1569 01-05-2020 10:40:00 10.9 C 8.75 g/m*3 9.76 C 9.7 km/h
1570 01-05-2020 10:45:00 11.1 C 8.76 g/m*3 11.1 C 12.9 km/h
1571 01-05-2020 10:50:00 11.3 C 8.67 g/m*3 11.3 C 12.9 km/h
1572 01-05-2020 10:55:00 11.7 C 8.68 g/m*3 11.7 C 20.9 km/h
1573 01-05-2020 11:00:00 11.8 C 8.63 g/m*3 11.8 C 12.9 km/h
1574 01-05-2020 11:05:00 11.9 C 8.79 g/m*3 11.9 C 12.9 km/h
1575 01-05-2020 11:10:00 11.9 C 8.58 g/m*3 11.9 C 14.5 km/h
Sensor: Nr:Datum:Temp:Abs-Feuchte:Windchill:Wind:
Aussen-T/F 1576 01-05-2020 11:15:00 12 C 8.74 g/m*3 12 C 9.7 km/h
1577 01-05-2020 11:20:00 12.2 C 8.74 g/m*3 12.2 C 16.1 km/h
1578 01-05-2020 11:25:00 12.3 C 8.69 g/m*3 12.3 C 14.5 km/h
1579 01-05-2020 11:30:00 12.3 C 8.47 g/m*3 12.3 C 14.5 km/h
1580 01-05-2020 11:35:00 12.4 C 8.52 g/m*3 12.4 C 16.1 km/h
1581 01-05-2020 11:40:00 12.5 C 8.58 g/m*3 12.5 C 11.3 km/h
1582 01-05-2020 11:45:00 12.6 C 8.52 g/m*3 12.6 C 11.3 km/h
1583 01-05-2020 11:50:00 12.6 C 8.74 g/m*3 12.6 C 9.7 km/h
1584 01-05-2020 11:55:00 12.5 C 8.58 g/m*3 12.5 C 9.7 km/h
1585 01-05-2020 12:00:00 12.5 C 8.8 g/m*3 12.5 C 6.4 km/h
1586 01-05-2020 12:05:00 12.5 C 8.69 g/m*3 12.5 C 4.8 km/h
1587 01-05-2020 12:10:00 12.3 C 8.47 g/m*3 12.3 C 11.3 km/h
1588 01-05-2020 12:15:00 12.2 C 8.52 g/m*3 12.2 C 9.7 km/h
1589 01-05-2020 12:20:00 12.2 C 8.63 g/m*3 12.2 C 11.3 km/h
1590 01-05-2020 12:25:00 12.2 C 8.74 g/m*3 12.2 C 11.3 km/h
1591 01-05-2020 12:30:00 12 C 8.63 g/m*3 12 C 12.9 km/h
1592 01-05-2020 12:35:00 11.8 C 8.74 g/m*3 11.8 C 11.3 km/h
1593 01-05-2020 12:40:00 11.7 C 8.79 g/m*3 11.7 C 11.3 km/h
1594 01-05-2020 12:45:00 11.6 C 8.94 g/m*3 11.6 C 8.1 km/h
1595 01-05-2020 12:50:00 11.3 C 8.87 g/m*3 11.3 C 8.1 km/h
1596 01-05-2020 12:55:00 11.3 C 8.98 g/m*3 11.3 C 9.7 km/h
1597 01-05-2020 13:00:00 11.2 C 8.82 g/m*3 11.2 C 8.1 km/h
1598 01-05-2020 13:05:00 11.1 C 8.76 g/m*3 11.1 C 12.9 km/h
1599 01-05-2020 13:10:00 10.9 C 8.55 g/m*3 9.51 C 11.3 km/h
1600 01-05-2020 13:15:00 10.7 C 8.35 g/m*3 8.84 C 14.5 km/h
Sensor: Nr:Datum:Temp:Abs-Feuchte:Windchill:Wind:
Aussen-T/F 1601 01-05-2020 13:20:00 10.6 C 8.39 g/m*3 8.71 C 14.5 km/h
1602 01-05-2020 13:25:00 10.8 C 8.6 g/m*3 10.8 C 3.2 km/h
1603 01-05-2020 13:30:00 10.9 C 8.55 g/m*3 9.51 C 11.3 km/h
1604 01-05-2020 13:35:00 11.1 C 8.56 g/m*3 11.1 C 6.4 km/h
1605 01-05-2020 13:40:00 11.2 C 8.62 g/m*3 11.2 C 12.9 km/h
1606 01-05-2020 13:45:00 11.4 C 8.52 g/m*3 11.4 C 16.1 km/h
1607 01-05-2020 13:50:00 11.6 C 8.63 g/m*3 11.6 C 14.5 km/h
1608 01-05-2020 13:55:00 11.9 C 8.68 g/m*3 11.9 C 9.7 km/h
1609 01-05-2020 14:00:00 12 C 8.63 g/m*3 12 C 14.5 km/h
1610 01-05-2020 14:05:00 12 C 8.63 g/m*3 12 C 11.3 km/h
1611 01-05-2020 14:10:00 12.2 C 8.74 g/m*3 12.2 C 16.1 km/h
1612 01-05-2020 14:15:00 12.4 C 8.52 g/m*3 12.4 C 11.3 km/h
1613 01-05-2020 14:20:00 12.7 C 8.79 g/m*3 12.7 C 8.1 km/h
1614 01-05-2020 14:25:00 12.9 C 8.45 g/m*3 12.9 C 19.3 km/h
1615 01-05-2020 14:30:00 13.2 C 8.61 g/m*3 13.2 C 12.9 km/h
1616 01-05-2020 14:35:00 13.3 C 8.43 g/m*3 13.3 C 14.5 km/h
1617 01-05-2020 14:40:00 13.4 C 8.37 g/m*3 13.4 C 19.3 km/h
1618 01-05-2020 14:45:00 13.6 C 8.71 g/m*3 13.6 C 17.7 km/h
1619 01-05-2020 14:50:00 13.7 C 8.53 g/m*3 13.7 C 16.1 km/h
1620 01-05-2020 14:55:00 13.7 C 8.29 g/m*3 13.7 C 12.9 km/h
1621 01-05-2020 15:00:00 13.8 C 8.1 g/m*3 13.8 C 16.1 km/h
1622 01-05-2020 15:05:00 14 C 8.32 g/m*3 14 C 14.5 km/h
1623 01-05-2020 15:10:00 14.2 C 8.3 g/m*3 14.2 C 14.5 km/h
1624 01-05-2020 15:15:00 14.3 C 8.48 g/m*3 14.3 C 16.1 km/h
1625 01-05-2020 15:20:00 14.6 C 8.63 g/m*3 14.6 C 11.3 km/h
Sensor: Nr:Datum:Temp:Abs-Feuchte:Windchill:Wind:
Aussen-T/F 1626 01-05-2020 15:25:00 14.6 C 8.26 g/m*3 14.6 C 12.9 km/h
1627 01-05-2020 15:30:00 14.4 C 8.41 g/m*3 14.4 C 8.1 km/h
1628 01-05-2020 15:35:00 14.3 C 8.48 g/m*3 14.3 C 6.4 km/h
1629 01-05-2020 15:40:00 14.1 C 8.37 g/m*3 14.1 C 14.5 km/h
1630 01-05-2020 15:45:00 13.7 C 8.41 g/m*3 13.7 C 14.5 km/h
1631 01-05-2020 15:50:00 13 C 8.73 g/m*3 13 C 25.7 km/h
1632 01-05-2020 15:55:00 12.6 C 8.85 g/m*3 12.6 C 11.3 km/h
1633 01-05-2020 16:00:00 12.3 C 8.69 g/m*3 12.3 C 9.7 km/h
1634 01-05-2020 16:05:00 12.6 C 8.96 g/m*3 12.6 C 12.9 km/h
1635 01-05-2020 16:10:00 13.1 C 9.24 g/m*3 13.1 C 9.7 km/h
1636 01-05-2020 16:15:00 13.7 C 9.24 g/m*3 13.7 C 8.1 km/h
1637 01-05-2020 16:20:00 14.3 C 9.21 g/m*3 14.3 C 17.7 km/h
1638 01-05-2020 16:25:00 14.7 C 9.07 g/m*3 14.7 C 14.5 km/h
1639 01-05-2020 16:30:00 15.1 C 9.29 g/m*3 15.1 C 16.1 km/h
1640 01-05-2020 16:35:00 15.4 C 9.2 g/m*3 15.4 C 14.5 km/h
1641 01-05-2020 16:40:00 15.7 C 9.23 g/m*3 15.7 C 16.1 km/h
1642 01-05-2020 16:45:00 15.7 C 9.1 g/m*3 15.7 C 14.5 km/h
1643 01-05-2020 16:50:00 15.6 C 9.04 g/m*3 15.6 C 14.5 km/h
1644 01-05-2020 16:55:00 15.4 C 9.07 g/m*3 15.4 C 12.9 km/h
1645 01-05-2020 17:00:00 15.6 C 9.04 g/m*3 15.6 C 12.9 km/h
1646 01-05-2020 17:05:00 15.8 C 9.15 g/m*3 15.8 C 14.5 km/h
1647 01-05-2020 17:10:00 15.9 C 9.34 g/m*3 15.9 C 11.3 km/h
1648 01-05-2020 17:15:00 16.2 C 8.96 g/m*3 16.2 C 16.1 km/h
1649 01-05-2020 17:20:00 16.1 C 8.91 g/m*3 16.1 C 17.7 km/h
1650 01-05-2020 17:25:00 15.7 C 8.96 g/m*3 15.7 C 11.3 km/h
Sensor: Nr:Datum:Temp:Abs-Feuchte:Windchill:Wind:
Aussen-T/F 1651 01-05-2020 17:30:00 15 C 8.85 g/m*3 15 C 14.5 km/h
1652 01-05-2020 17:35:00 14.3 C 9.09 g/m*3 14.3 C 17.7 km/h
1653 01-05-2020 17:40:00 13.6 C 9.18 g/m*3 13.6 C 14.5 km/h
1654 01-05-2020 17:45:00 13.3 C 9.13 g/m*3 13.3 C 8.1 km/h
1655 01-05-2020 17:50:00 12.9 C 8.79 g/m*3 12.9 C 11.3 km/h
1656 01-05-2020 17:55:00 12.8 C 8.85 g/m*3 12.8 C 8.1 km/h
1657 01-05-2020 18:00:00 12.8 C 9.07 g/m*3 12.8 C 4.8 km/h
1658 01-05-2020 18:05:00 12.9 C 9.35 g/m*3 12.9 C 3.2 km/h
1659 01-05-2020 18:10:00 12.9 C 9.47 g/m*3 12.9 C 3.2 km/h
1660 01-05-2020 18:15:00 12.8 C 9.18 g/m*3 12.8 C 6.4 km/h
1661 01-05-2020 18:20:00 12.7 C 8.91 g/m*3 12.7 C 6.4 km/h
1662 01-05-2020 18:25:00 12.8 C 9.07 g/m*3 12.8 C 9.7 km/h
1663 01-05-2020 18:30:00 13.3 C 9.36 g/m*3 13.3 C 4.8 km/h
1664 01-05-2020 18:35:00 13.7 C 9.47 g/m*3 13.7 C 4.8 km/h
1665 01-05-2020 18:40:00 13.8 C 9.65 g/m*3 13.8 C 4.8 km/h
1666 01-05-2020 18:45:00 14.3 C 10.07 g/m*3 14.3 C 8.1 km/h
1667 01-05-2020 18:50:00 14.8 C 9.25 g/m*3 14.8 C 6.4 km/h
1668 01-05-2020 18:55:00 14.6 C 9.01 g/m*3 14.6 C 8.1 km/h
1669 01-05-2020 19:00:00 14.2 C 8.79 g/m*3 14.2 C 9.7 km/h
1670 01-05-2020 19:05:00 13.8 C 9.06 g/m*3 13.8 C 4.8 km/h
1671 01-05-2020 19:10:00 13.6 C 9.06 g/m*3 13.6 C 4.8 km/h
1672 01-05-2020 19:15:00 13.2 C 8.84 g/m*3 13.2 C 6.4 km/h
1673 01-05-2020 19:20:00 12.8 C 8.85 g/m*3 12.8 C 4.8 km/h
1674 01-05-2020 19:25:00 12.6 C 8.85 g/m*3 12.6 C 6.4 km/h
1675 01-05-2020 19:30:00 12.3 C 8.69 g/m*3 12.3 C 4.8 km/h
Sensor: Nr:Datum:Temp:Abs-Feuchte:Windchill:Wind:
Aussen-T/F 1676 01-05-2020 19:35:00 12.1 C 8.58 g/m*3 12.1 C 9.7 km/h
1677 01-05-2020 19:40:00 12 C 8.63 g/m*3 12 C 6.4 km/h
1678 01-05-2020 19:45:00 11.9 C 8.58 g/m*3 11.9 C 8.1 km/h
1679 01-05-2020 19:50:00 11.8 C 8.63 g/m*3 11.8 C 11.3 km/h
1680 01-05-2020 19:55:00 11.7 C 8.58 g/m*3 11.7 C 4.8 km/h
1681 01-05-2020 20:00:00 11.6 C 8.52 g/m*3 11.6 C 9.7 km/h
1682 01-05-2020 20:05:00 11.4 C 8.31 g/m*3 11.4 C 9.7 km/h
1683 01-05-2020 20:10:00 11.3 C 8.26 g/m*3 11.3 C 9.7 km/h
1684 01-05-2020 20:15:00 11.3 C 8.36 g/m*3 11.3 C 8.1 km/h
1685 01-05-2020 20:20:00 11.4 C 8.21 g/m*3 11.4 C 9.7 km/h
1686 01-05-2020 20:25:00 11.4 C 8.11 g/m*3 11.4 C 8.1 km/h
1687 01-05-2020 20:30:00 11.4 C 8.11 g/m*3 11.4 C 8.1 km/h
1688 01-05-2020 20:35:00 11.3 C 8.16 g/m*3 11.3 C 4.8 km/h
1689 01-05-2020 20:40:00 11.2 C 8.21 g/m*3 11.2 C 6.4 km/h
1690 01-05-2020 20:45:00 11.1 C 8.26 g/m*3 11.1 C 8.1 km/h
1691 01-05-2020 20:50:00 10.9 C 8.26 g/m*3 10.9 C 4.8 km/h
1692 01-05-2020 20:55:00 10.8 C 8.3 g/m*3 10.8 C 1.6 km/h
1693 01-05-2020 21:00:00 10.7 C 8.25 g/m*3 10.7 C 4.8 km/h
1694 01-05-2020 21:05:00 10.6 C 8.3 g/m*3 10.6 C 4.8 km/h
1695 01-05-2020 21:10:00 10.5 C 8.24 g/m*3 9.28 C 9.7 km/h
1696 01-05-2020 21:15:00 10.4 C 8.19 g/m*3 10.4 C 3.2 km/h
1697 01-05-2020 21:20:00 10.4 C 8.19 g/m*3 9.16 C 9.7 km/h
1698 01-05-2020 21:25:00 10.4 C 8.29 g/m*3 10.4 C 3.2 km/h
1699 01-05-2020 21:30:00 10.3 C 8.24 g/m*3 9.72 C 6.4 km/h
1700 01-05-2020 21:35:00 10.3 C 8.24 g/m*3 10.3 C 1.6 km/h
Sensor: Nr:Datum:Temp:Abs-Feuchte:Windchill:Wind:
Aussen-T/F 1701 01-05-2020 21:40:00 10.2 C 8.18 g/m*3 10.2 C 4.8 km/h
1702 01-05-2020 21:45:00 10 C 8.08 g/m*3 10 C 3.2 km/h
1703 01-05-2020 21:50:00 9.8 C 7.98 g/m*3 9.8 C 4.8 km/h
1704 01-05-2020 21:55:00 9.6 C 7.97 g/m*3 9.6 C 4.8 km/h
1705 01-05-2020 22:00:00 9.4 C 7.87 g/m*3 9.4 C 4.8 km/h
1706 01-05-2020 22:05:00 9.3 C 7.91 g/m*3 9.3 C 4.8 km/h
1707 01-05-2020 22:10:00 9.2 C 7.86 g/m*3 9.2 C 3.2 km/h
1708 01-05-2020 22:15:00 9.1 C 7.9 g/m*3 9.1 C 3.2 km/h
1709 01-05-2020 22:20:00 9.1 C 7.9 g/m*3 9.1 C 3.2 km/h
1710 01-05-2020 22:25:00 9.1 C 7.9 g/m*3 9.1 C 3.2 km/h
1711 01-05-2020 22:30:00 9.2 C 7.95 g/m*3 8.05 C 8.1 km/h
1712 01-05-2020 22:35:00 9.3 C 8 g/m*3 8.16 C 8.1 km/h
1713 01-05-2020 22:40:00 9.4 C 8.05 g/m*3 8.68 C 6.4 km/h
1714 01-05-2020 22:45:00 9.4 C 8.05 g/m*3 7.97 C 9.7 km/h
1715 01-05-2020 22:50:00 9.4 C 8.05 g/m*3 9.4 C 4.8 km/h
1716 01-05-2020 22:55:00 9.5 C 8.1 g/m*3 9.5 C 1.6 km/h
1717 01-05-2020 23:00:00 9.5 C 8.1 g/m*3 8.79 C 6.4 km/h
1718 01-05-2020 23:05:00 9.5 C 8.1 g/m*3 8.4 C 8.1 km/h
1719 01-05-2020 23:10:00 9.6 C 8.15 g/m*3 8.52 C 8.1 km/h
1720 01-05-2020 23:15:00 9.5 C 8.1 g/m*3 8.09 C 9.7 km/h
1721 01-05-2020 23:20:00 9.6 C 8.15 g/m*3 7.94 C 11.3 km/h
1722 01-05-2020 23:25:00 9.6 C 8.15 g/m*3 8.91 C 6.4 km/h
1723 01-05-2020 23:30:00 9.6 C 8.15 g/m*3 8.21 C 9.7 km/h
1724 01-05-2020 23:35:00 9.6 C 8.15 g/m*3 7.48 C 14.5 km/h
1725 01-05-2020 23:40:00 9.6 C 8.06 g/m*3 8.21 C 9.7 km/h
Sensor: Nr:Datum:Temp:Abs-Feuchte:Windchill:Wind:
Aussen-T/F 1726 01-05-2020 23:45:00 9.7 C 8.11 g/m*3 8.33 C 9.7 km/h
1727 01-05-2020 23:50:00 9.7 C 8.11 g/m*3 8.06 C 11.3 km/h
1728 01-05-2020 23:55:00 9.7 C 8.11 g/m*3 9.7 C 4.8 km/h
1729 02-05-2020 00:00:00 9.7 C 8.11 g/m*3 9.02 C 6.4 km/h
1730 02-05-2020 00:05:00 9.7 C 8.2 g/m*3 9.7 C 4.8 km/h
1731 02-05-2020 00:10:00 9.6 C 8.15 g/m*3 9.6 C 4.8 km/h
1732 02-05-2020 00:15:00 9.6 C 8.15 g/m*3 9.6 C 0 km/h
1733 02-05-2020 00:20:00 9.6 C 8.15 g/m*3 9.6 C 1.6 km/h
1734 02-05-2020 00:25:00 9.4 C 8.05 g/m*3 9.4 C 1.6 km/h
1735 02-05-2020 00:30:00 9.4 C 8.05 g/m*3 9.4 C 1.6 km/h
1736 02-05-2020 00:35:00 9.2 C 7.95 g/m*3 9.2 C 3.2 km/h
1737 02-05-2020 00:40:00 9.2 C 7.95 g/m*3 8.05 C 8.1 km/h
1738 02-05-2020 00:45:00 9.2 C 7.95 g/m*3 9.2 C 4.8 km/h
1739 02-05-2020 00:50:00 9.2 C 7.95 g/m*3 9.2 C 4.8 km/h
1740 02-05-2020 00:55:00 9.2 C 8.04 g/m*3 7.73 C 9.7 km/h
1741 02-05-2020 01:00:00 9.2 C 8.04 g/m*3 8.05 C 8.1 km/h
1742 02-05-2020 01:05:00 9.2 C 8.04 g/m*3 8.05 C 8.1 km/h
1743 02-05-2020 01:10:00 9.3 C 8.09 g/m*3 8.16 C 8.1 km/h
1744 02-05-2020 01:15:00 9.3 C 8.09 g/m*3 7.58 C 11.3 km/h
1745 02-05-2020 01:20:00 9.4 C 8.05 g/m*3 7.7 C 11.3 km/h
1746 02-05-2020 01:25:00 9.4 C 8.05 g/m*3 8.28 C 8.1 km/h
1747 02-05-2020 01:30:00 9.5 C 8.01 g/m*3 8.4 C 8.1 km/h
1748 02-05-2020 01:35:00 9.4 C 8.05 g/m*3 7.97 C 9.7 km/h
1749 02-05-2020 01:40:00 9.3 C 8 g/m*3 8.16 C 8.1 km/h
1750 02-05-2020 01:45:00 9.3 C 8 g/m*3 7.85 C 9.7 km/h
Sensor: Nr:Datum:Temp:Abs-Feuchte:Windchill:Wind:
Aussen-T/F 1751 02-05-2020 01:50:00 9.2 C 7.95 g/m*3 7.73 C 9.7 km/h
1752 02-05-2020 01:55:00 9.1 C 7.9 g/m*3 9.1 C 4.8 km/h
1753 02-05-2020 02:00:00 9 C 7.93 g/m*3 9 C 4.8 km/h
1754 02-05-2020 02:05:00 8.9 C 7.88 g/m*3 8.9 C 4.8 km/h
1755 02-05-2020 02:10:00 8.8 C 7.83 g/m*3 8.8 C 3.2 km/h
1756 02-05-2020 02:15:00 8.8 C 7.83 g/m*3 8.8 C 3.2 km/h
1757 02-05-2020 02:20:00 8.8 C 7.92 g/m*3 7.25 C 9.7 km/h
1758 02-05-2020 02:25:00 8.8 C 7.92 g/m*3 8.8 C 4.8 km/h
1759 02-05-2020 02:30:00 8.7 C 7.87 g/m*3 8.7 C 4.8 km/h
1760 02-05-2020 02:35:00 8.8 C 7.92 g/m*3 8.8 C 4.8 km/h
1761 02-05-2020 02:40:00 8.8 C 7.92 g/m*3 7.58 C 8.1 km/h
1762 02-05-2020 02:45:00 8.9 C 7.97 g/m*3 7.37 C 9.7 km/h
1763 02-05-2020 02:50:00 8.9 C 7.88 g/m*3 7.69 C 8.1 km/h
1764 02-05-2020 02:55:00 9.1 C 7.99 g/m*3 7.61 C 9.7 km/h
1765 02-05-2020 03:00:00 9.2 C 7.95 g/m*3 8.05 C 8.1 km/h
1766 02-05-2020 03:05:00 9.2 C 7.95 g/m*3 9.2 C 4.8 km/h
1767 02-05-2020 03:10:00 9.3 C 7.91 g/m*3 7.58 C 11.3 km/h
1768 02-05-2020 03:15:00 9.3 C 7.91 g/m*3 9.3 C 4.8 km/h
1769 02-05-2020 03:20:00 9.3 C 7.91 g/m*3 8.16 C 8.1 km/h
1770 02-05-2020 03:25:00 9.4 C 7.96 g/m*3 9.4 C 4.8 km/h
1771 02-05-2020 03:30:00 9.4 C 7.96 g/m*3 7.97 C 9.7 km/h
1772 02-05-2020 03:35:00 9.4 C 7.96 g/m*3 9.4 C 3.2 km/h
1773 02-05-2020 03:40:00 9.4 C 7.96 g/m*3 8.68 C 6.4 km/h
1774 02-05-2020 03:45:00 9.4 C 7.96 g/m*3 9.4 C 3.2 km/h
1775 02-05-2020 03:50:00 9.4 C 7.96 g/m*3 9.4 C 1.6 km/h
Sensor: Nr:Datum:Temp:Abs-Feuchte:Windchill:Wind:
Aussen-T/F 1776 02-05-2020 03:55:00 9.3 C 7.91 g/m*3 9.3 C 1.6 km/h
1777 02-05-2020 04:00:00 9.3 C 7.91 g/m*3 9.3 C 0 km/h
1778 02-05-2020 04:05:00 9.2 C 7.86 g/m*3 9.2 C 1.6 km/h
1779 02-05-2020 04:10:00 9.2 C 7.95 g/m*3 9.2 C 0 km/h
1780 02-05-2020 04:15:00 9.1 C 7.9 g/m*3 9.1 C 0 km/h
1781 02-05-2020 04:20:00 9 C 7.85 g/m*3 9 C 1.6 km/h
1782 02-05-2020 04:25:00 8.9 C 7.8 g/m*3 8.1 C 6.4 km/h
1783 02-05-2020 04:30:00 8.9 C 7.8 g/m*3 8.9 C 3.2 km/h
1784 02-05-2020 04:35:00 8.9 C 7.88 g/m*3 8.9 C 4.8 km/h
1785 02-05-2020 04:40:00 8.9 C 7.8 g/m*3 7.69 C 8.1 km/h
1786 02-05-2020 04:45:00 9.1 C 7.9 g/m*3 7.33 C 11.3 km/h
1787 02-05-2020 04:50:00 9.1 C 7.9 g/m*3 9.1 C 4.8 km/h
1788 02-05-2020 04:55:00 9.1 C 7.81 g/m*3 9.1 C 4.8 km/h
1789 02-05-2020 05:00:00 9.1 C 7.81 g/m*3 9.1 C 4.8 km/h
1790 02-05-2020 05:05:00 9.1 C 7.81 g/m*3 7.61 C 9.7 km/h
1791 02-05-2020 05:10:00 9 C 7.76 g/m*3 7.49 C 9.7 km/h
1792 02-05-2020 05:15:00 9 C 7.76 g/m*3 7.49 C 9.7 km/h
1793 02-05-2020 05:20:00 9 C 7.76 g/m*3 9 C 3.2 km/h
1794 02-05-2020 05:25:00 9 C 7.76 g/m*3 7.81 C 8.1 km/h
1795 02-05-2020 05:30:00 9 C 7.67 g/m*3 7.21 C 11.3 km/h
1796 02-05-2020 05:35:00 9.1 C 7.72 g/m*3 8.33 C 6.4 km/h
1797 02-05-2020 05:40:00 9 C 7.67 g/m*3 7.81 C 8.1 km/h
1798 02-05-2020 05:45:00 8.9 C 7.62 g/m*3 7.69 C 8.1 km/h
1799 02-05-2020 05:50:00 8.8 C 7.57 g/m*3 7.25 C 9.7 km/h
1800 02-05-2020 05:55:00 8.6 C 7.48 g/m*3 7.01 C 9.7 km/h
Sensor: Nr:Datum:Temp:Abs-Feuchte:Windchill:Wind:
Aussen-T/F 1801 02-05-2020 06:00:00 8.5 C 7.43 g/m*3 6.9 C 9.7 km/h
1802 02-05-2020 06:05:00 8.4 C 7.38 g/m*3 7.52 C 6.4 km/h
1803 02-05-2020 06:10:00 8.3 C 7.33 g/m*3 6.66 C 9.7 km/h
1804 02-05-2020 06:15:00 8.3 C 7.42 g/m*3 6.99 C 8.1 km/h
1805 02-05-2020 06:20:00 8.2 C 7.37 g/m*3 6.25 C 11.3 km/h
1806 02-05-2020 06:25:00 8.2 C 7.37 g/m*3 7.29 C 6.4 km/h
1807 02-05-2020 06:30:00 8.2 C 7.37 g/m*3 6.25 C 11.3 km/h
1808 02-05-2020 06:35:00 8.2 C 7.37 g/m*3 6.25 C 11.3 km/h
1809 02-05-2020 06:40:00 8.2 C 7.37 g/m*3 6.54 C 9.7 km/h
1810 02-05-2020 06:45:00 8.2 C 7.37 g/m*3 6.87 C 8.1 km/h
1811 02-05-2020 06:50:00 8.2 C 7.37 g/m*3 6.25 C 11.3 km/h
1812 02-05-2020 06:55:00 8.2 C 7.37 g/m*3 6.54 C 9.7 km/h
1813 02-05-2020 07:00:00 8.2 C 7.37 g/m*3 6.25 C 11.3 km/h
1814 02-05-2020 07:05:00 8.2 C 7.37 g/m*3 6.87 C 8.1 km/h
1815 02-05-2020 07:10:00 8.3 C 7.42 g/m*3 5.48 C 17.7 km/h
1816 02-05-2020 07:15:00 8.4 C 7.38 g/m*3 6.49 C 11.3 km/h
1817 02-05-2020 07:20:00 8.5 C 7.43 g/m*3 7.64 C 6.4 km/h
1818 02-05-2020 07:25:00 8.6 C 7.48 g/m*3 6.48 C 12.9 km/h
1819 02-05-2020 07:30:00 8.6 C 7.48 g/m*3 5.68 C 19.3 km/h
1820 02-05-2020 07:35:00 8.6 C 7.39 g/m*3 6.73 C 11.3 km/h
1821 02-05-2020 07:40:00 8.6 C 7.39 g/m*3 7.34 C 8.1 km/h
1822 02-05-2020 07:45:00 8.6 C 7.39 g/m*3 8.6 C 4.8 km/h
1823 02-05-2020 07:50:00 8.6 C 7.39 g/m*3 6.05 C 16.1 km/h
1824 02-05-2020 07:55:00 8.7 C 7.52 g/m*3 6.17 C 16.1 km/h
1825 02-05-2020 08:00:00 8.7 C 7.44 g/m*3 7.13 C 9.7 km/h
Sensor: Nr:Datum:Temp:Abs-Feuchte:Windchill:Wind:
Aussen-T/F 1826 02-05-2020 08:05:00 8.8 C 7.57 g/m*3 7.58 C 8.1 km/h
1827 02-05-2020 08:10:00 8.8 C 7.49 g/m*3 7.25 C 9.7 km/h
1828 02-05-2020 08:15:00 8.9 C 7.53 g/m*3 6.85 C 12.9 km/h
1829 02-05-2020 08:20:00 9.1 C 7.72 g/m*3 7.93 C 8.1 km/h
1830 02-05-2020 08:25:00 9.2 C 7.59 g/m*3 7.73 C 9.7 km/h
1831 02-05-2020 08:30:00 9.3 C 7.64 g/m*3 6.92 C 16.1 km/h
1832 02-05-2020 08:35:00 9.5 C 7.74 g/m*3 7.58 C 12.9 km/h
1833 02-05-2020 08:40:00 9.7 C 7.74 g/m*3 7.82 C 12.9 km/h
1834 02-05-2020 08:45:00 9.8 C 7.79 g/m*3 7.94 C 12.9 km/h
1835 02-05-2020 08:50:00 9.8 C 7.7 g/m*3 8.18 C 11.3 km/h
1836 02-05-2020 08:55:00 9.8 C 7.61 g/m*3 7.54 C 16.1 km/h
1837 02-05-2020 09:00:00 9.8 C 7.52 g/m*3 7.54 C 16.1 km/h
1838 02-05-2020 09:05:00 9.8 C 7.52 g/m*3 7.36 C 17.7 km/h
1839 02-05-2020 09:10:00 9.8 C 7.52 g/m*3 7.94 C 12.9 km/h
1840 02-05-2020 09:15:00 9.8 C 7.52 g/m*3 6.63 C 25.7 km/h
1841 02-05-2020 09:20:00 9.9 C 7.56 g/m*3 7.32 C 19.3 km/h
1842 02-05-2020 09:25:00 9.9 C 7.56 g/m*3 7.32 C 19.3 km/h
1843 02-05-2020 09:30:00 10.1 C 7.66 g/m*3 7.42 C 20.9 km/h
1844 02-05-2020 09:35:00 10.3 C 7.76 g/m*3 8.16 C 16.1 km/h
1845 02-05-2020 09:40:00 10.6 C 7.81 g/m*3 8.36 C 17.7 km/h
1846 02-05-2020 09:45:00 10.8 C 7.81 g/m*3 8.61 C 17.7 km/h
1847 02-05-2020 09:50:00 10.8 C 7.71 g/m*3 8.45 C 19.3 km/h
1848 02-05-2020 09:55:00 10.7 C 7.76 g/m*3 9.04 C 12.9 km/h
1849 02-05-2020 10:00:00 10.6 C 7.71 g/m*3 8.92 C 12.9 km/h
1850 02-05-2020 10:05:00 10.4 C 7.81 g/m*3 8.28 C 16.1 km/h
Sensor: Nr:Datum:Temp:Abs-Feuchte:Windchill:Wind:
Aussen-T/F 1851 02-05-2020 10:10:00 10.1 C 7.94 g/m*3 7.42 C 20.9 km/h
1852 02-05-2020 10:15:00 9.6 C 7.51 g/m*3 7.29 C 16.1 km/h
1853 02-05-2020 10:20:00 8.8 C 7.31 g/m*3 5.93 C 19.3 km/h
1854 02-05-2020 10:25:00 8.3 C 7.25 g/m*3 8.3 C 3.2 km/h
1855 02-05-2020 10:30:00 8 C 7.28 g/m*3 6.64 C 8.1 km/h
1856 02-05-2020 10:35:00 7.8 C 7.35 g/m*3 6.06 C 9.7 km/h
1857 02-05-2020 10:40:00 7.7 C 7.3 g/m*3 5.94 C 9.7 km/h
1858 02-05-2020 10:45:00 7.6 C 7.33 g/m*3 5.82 C 9.7 km/h
1859 02-05-2020 10:50:00 7.6 C 7.33 g/m*3 6.6 C 6.4 km/h
1860 02-05-2020 10:55:00 7.6 C 7.41 g/m*3 6.16 C 8.1 km/h
1861 02-05-2020 11:00:00 7.7 C 7.46 g/m*3 6.28 C 8.1 km/h
1862 02-05-2020 11:05:00 7.8 C 7.59 g/m*3 6.83 C 6.4 km/h
1863 02-05-2020 11:10:00 8.1 C 7.82 g/m*3 8.1 C 3.2 km/h
1864 02-05-2020 11:15:00 8.3 C 7.92 g/m*3 8.3 C 4.8 km/h
1865 02-05-2020 11:20:00 8.4 C 7.89 g/m*3 7.11 C 8.1 km/h
1866 02-05-2020 11:25:00 8.5 C 7.94 g/m*3 7.22 C 8.1 km/h
1867 02-05-2020 11:30:00 8.7 C 8.13 g/m*3 8.7 C 4.8 km/h
1868 02-05-2020 11:35:00 8.9 C 8.23 g/m*3 8.9 C 4.8 km/h
1869 02-05-2020 11:40:00 9 C 8.2 g/m*3 7.21 C 11.3 km/h
1870 02-05-2020 11:45:00 9.2 C 8.3 g/m*3 8.05 C 8.1 km/h
1871 02-05-2020 11:50:00 9.3 C 8.36 g/m*3 9.3 C 4.8 km/h
1872 02-05-2020 11:55:00 9.3 C 8.27 g/m*3 6.92 C 16.1 km/h
1873 02-05-2020 12:00:00 9.3 C 8.18 g/m*3 8.56 C 6.4 km/h
1874 02-05-2020 12:05:00 9.3 C 8.18 g/m*3 7.33 C 12.9 km/h
1875 02-05-2020 12:10:00 9.4 C 8.05 g/m*3 7.24 C 14.5 km/h
Sensor: Nr:Datum:Temp:Abs-Feuchte:Windchill:Wind:
Aussen-T/F 1876 02-05-2020 12:15:00 9.7 C 8.02 g/m*3 7.82 C 12.9 km/h
1877 02-05-2020 12:20:00 9.8 C 7.98 g/m*3 7.54 C 16.1 km/h
1878 02-05-2020 12:25:00 10 C 8.08 g/m*3 8.19 C 12.9 km/h
1879 02-05-2020 12:30:00 10.1 C 8.04 g/m*3 8.31 C 12.9 km/h
1880 02-05-2020 12:35:00 10.3 C 8.14 g/m*3 9.34 C 8.1 km/h
1881 02-05-2020 12:40:00 10.5 C 8.15 g/m*3 8.59 C 14.5 km/h
1882 02-05-2020 12:45:00 10.8 C 8.3 g/m*3 9.16 C 12.9 km/h
1883 02-05-2020 12:50:00 10.9 C 8.26 g/m*3 10.04 C 8.1 km/h
1884 02-05-2020 12:55:00 11 C 8.51 g/m*3 10.52 C 6.4 km/h
1885 02-05-2020 13:00:00 11.1 C 8.16 g/m*3 11.1 C 20.9 km/h
1886 02-05-2020 13:05:00 11.4 C 7.8 g/m*3 11.4 C 22.5 km/h
1887 02-05-2020 13:10:00 11.6 C 8 g/m*3 11.6 C 14.5 km/h
1888 02-05-2020 13:15:00 11.8 C 8 g/m*3 11.8 C 19.3 km/h
1889 02-05-2020 13:20:00 11.8 C 8.1 g/m*3 11.8 C 14.5 km/h
1890 02-05-2020 13:25:00 11.6 C 8 g/m*3 11.6 C 12.9 km/h
1891 02-05-2020 13:30:00 11.4 C 7.9 g/m*3 11.4 C 14.5 km/h
1892 02-05-2020 13:35:00 11.3 C 7.96 g/m*3 11.3 C 11.3 km/h
1893 02-05-2020 13:40:00 11.3 C 8.06 g/m*3 11.3 C 11.3 km/h
1894 02-05-2020 13:45:00 11.3 C 7.85 g/m*3 11.3 C 16.1 km/h
1895 02-05-2020 13:50:00 11.6 C 8.11 g/m*3 11.6 C 16.1 km/h
1896 02-05-2020 13:55:00 11.7 C 7.95 g/m*3 11.7 C 20.9 km/h
1897 02-05-2020 14:00:00 11.9 C 8.05 g/m*3 11.9 C 17.7 km/h
1898 02-05-2020 14:05:00 12.1 C 7.94 g/m*3 12.1 C 17.7 km/h
1899 02-05-2020 14:10:00 12.3 C 8.04 g/m*3 12.3 C 19.3 km/h
1900 02-05-2020 14:15:00 12.7 C 8.24 g/m*3 12.7 C 17.7 km/h
Sensor: Nr:Datum:Temp:Abs-Feuchte:Windchill:Wind:
Aussen-T/F 1901 02-05-2020 14:20:00 12.9 C 8.23 g/m*3 12.9 C 16.1 km/h
1902 02-05-2020 14:25:00 13.2 C 7.92 g/m*3 13.2 C 22.5 km/h
1903 02-05-2020 14:30:00 13.2 C 7.92 g/m*3 13.2 C 11.3 km/h
1904 02-05-2020 14:35:00 12.9 C 7.55 g/m*3 12.9 C 20.9 km/h
1905 02-05-2020 14:40:00 11.6 C 7.48 g/m*3 11.6 C 32.2 km/h
1906 02-05-2020 14:45:00 10.2 C 7.33 g/m*3 8.43 C 12.9 km/h
1907 02-05-2020 14:50:00 9.6 C 7.42 g/m*3 7.11 C 17.7 km/h
1908 02-05-2020 14:55:00 9.3 C 7.55 g/m*3 6.41 C 20.9 km/h
1909 02-05-2020 15:00:00 8.9 C 7.45 g/m*3 6.06 C 19.3 km/h
1910 02-05-2020 15:05:00 8.7 C 7.61 g/m*3 8.7 C 3.2 km/h
1911 02-05-2020 15:10:00 8.7 C 7.7 g/m*3 8.7 C 1.6 km/h
1912 02-05-2020 15:15:00 8.7 C 7.78 g/m*3 6.38 C 14.5 km/h
1913 02-05-2020 15:20:00 8.8 C 7.92 g/m*3 7.58 C 8.1 km/h
1914 02-05-2020 15:25:00 8.8 C 7.92 g/m*3 8.8 C 3.2 km/h
1915 02-05-2020 15:30:00 9.1 C 8.16 g/m*3 7.93 C 8.1 km/h
1916 02-05-2020 15:35:00 9.4 C 8.23 g/m*3 8.68 C 6.4 km/h
1917 02-05-2020 15:40:00 10.2 C 8.85 g/m*3 9.6 C 6.4 km/h
1918 02-05-2020 15:45:00 10.8 C 9.19 g/m*3 9.64 C 9.7 km/h
1919 02-05-2020 15:50:00 11.3 C 9.28 g/m*3 11.3 C 9.7 km/h
1920 02-05-2020 15:55:00 11.5 C 8.99 g/m*3 11.5 C 9.7 km/h
1921 02-05-2020 16:00:00 12.1 C 9.33 g/m*3 12.1 C 6.4 km/h
1922 02-05-2020 16:05:00 12.6 C 9.18 g/m*3 12.6 C 3.2 km/h
1923 02-05-2020 16:10:00 13.1 C 9.47 g/m*3 13.1 C 16.1 km/h
1924 02-05-2020 16:15:00 13.4 C 8.95 g/m*3 13.4 C 9.7 km/h
1925 02-05-2020 16:20:00 13.7 C 9.47 g/m*3 13.7 C 6.4 km/h
Sensor: Nr:Datum:Temp:Abs-Feuchte:Windchill:Wind:
Aussen-T/F 1926 02-05-2020 16:25:00 13.9 C 8.39 g/m*3 13.9 C 12.9 km/h
1927 02-05-2020 16:30:00 14.2 C 8.79 g/m*3 14.2 C 11.3 km/h
1928 02-05-2020 16:35:00 14.2 C 8.67 g/m*3 14.2 C 6.4 km/h
1929 02-05-2020 16:40:00 13.9 C 8.99 g/m*3 13.9 C 4.8 km/h
1930 02-05-2020 16:45:00 13.6 C 8.94 g/m*3 13.6 C 3.2 km/h
1931 02-05-2020 16:50:00 13.4 C 9.07 g/m*3 13.4 C 8.1 km/h
1932 02-05-2020 16:55:00 13.3 C 9.36 g/m*3 13.3 C 6.4 km/h
1933 02-05-2020 17:00:00 13.7 C 9.59 g/m*3 13.7 C 8.1 km/h
1934 02-05-2020 17:05:00 14.4 C 9.27 g/m*3 14.4 C 9.7 km/h
1935 02-05-2020 17:10:00 14.7 C 8.69 g/m*3 14.7 C 11.3 km/h
1936 02-05-2020 17:15:00 14.5 C 8.95 g/m*3 14.5 C 11.3 km/h
1937 02-05-2020 17:20:00 14.1 C 8.37 g/m*3 14.1 C 8.1 km/h
1938 02-05-2020 17:25:00 13.9 C 8.87 g/m*3 13.9 C 1.6 km/h
1939 02-05-2020 17:30:00 13.8 C 9.06 g/m*3 13.8 C 3.2 km/h
1940 02-05-2020 17:35:00 13.8 C 9.29 g/m*3 13.8 C 3.2 km/h
1941 02-05-2020 17:40:00 13.8 C 8.94 g/m*3 13.8 C 4.8 km/h
1942 02-05-2020 17:45:00 13.8 C 8.94 g/m*3 13.8 C 11.3 km/h
1943 02-05-2020 17:50:00 13.8 C 7.74 g/m*3 13.8 C 9.7 km/h
1944 02-05-2020 17:55:00 14.2 C 7.69 g/m*3 14.2 C 12.9 km/h
1945 02-05-2020 18:00:00 14.7 C 7.55 g/m*3 14.7 C 12.9 km/h
1946 02-05-2020 18:05:00 14.7 C 7.68 g/m*3 14.7 C 11.3 km/h
1947 02-05-2020 18:10:00 14.3 C 7.37 g/m*3 14.3 C 9.7 km/h
1948 02-05-2020 18:15:00 13.9 C 7.31 g/m*3 13.9 C 9.7 km/h
1949 02-05-2020 18:20:00 13.7 C 7.58 g/m*3 13.7 C 11.3 km/h
1950 02-05-2020 18:25:00 13.3 C 7.74 g/m*3 13.3 C 9.7 km/h
Sensor: Nr:Datum:Temp:Abs-Feuchte:Windchill:Wind:
Aussen-T/F 1951 02-05-2020 18:30:00 13.1 C 7.87 g/m*3 13.1 C 12.9 km/h
1952 02-05-2020 18:35:00 12.9 C 7.89 g/m*3 12.9 C 14.5 km/h
1953 02-05-2020 18:40:00 12.7 C 7.79 g/m*3 12.7 C 14.5 km/h
1954 02-05-2020 18:45:00 12.6 C 7.85 g/m*3 12.6 C 14.5 km/h
1955 02-05-2020 18:50:00 12.4 C 7.87 g/m*3 12.4 C 14.5 km/h
1956 02-05-2020 18:55:00 12.3 C 7.82 g/m*3 12.3 C 20.9 km/h
1957 02-05-2020 19:00:00 12.1 C 7.72 g/m*3 12.1 C 16.1 km/h
1958 02-05-2020 19:05:00 12 C 7.89 g/m*3 12 C 11.3 km/h
1959 02-05-2020 19:10:00 11.8 C 7.68 g/m*3 11.8 C 20.9 km/h
1960 02-05-2020 19:15:00 11.7 C 7.53 g/m*3 11.7 C 11.3 km/h
1961 02-05-2020 19:20:00 11.5 C 7.02 g/m*3 11.5 C 12.9 km/h
1962 02-05-2020 19:25:00 11.5 C 7.23 g/m*3 11.5 C 11.3 km/h
1963 02-05-2020 19:30:00 11.5 C 7.33 g/m*3 11.5 C 8.1 km/h
1964 02-05-2020 19:35:00 11.6 C 7.59 g/m*3 11.6 C 4.8 km/h
1965 02-05-2020 19:40:00 11.6 C 7.8 g/m*3 11.6 C 4.8 km/h
1966 02-05-2020 19:45:00 11.6 C 7.59 g/m*3 11.6 C 6.4 km/h
1967 02-05-2020 19:50:00 11.7 C 7.74 g/m*3 11.7 C 8.1 km/h
1968 02-05-2020 19:55:00 11.8 C 7.68 g/m*3 11.8 C 8.1 km/h
1969 02-05-2020 20:00:00 12 C 7.67 g/m*3 12 C 11.3 km/h
1970 02-05-2020 20:05:00 12.1 C 7.61 g/m*3 12.1 C 12.9 km/h
1971 02-05-2020 20:10:00 12.1 C 7.61 g/m*3 12.1 C 9.7 km/h
1972 02-05-2020 20:15:00 11.9 C 7.52 g/m*3 11.9 C 9.7 km/h
1973 02-05-2020 20:20:00 11.9 C 7.63 g/m*3 11.9 C 4.8 km/h
1974 02-05-2020 20:25:00 11.7 C 7.53 g/m*3 11.7 C 6.4 km/h
1975 02-05-2020 20:30:00 11.6 C 7.69 g/m*3 11.6 C 3.2 km/h
Sensor: Nr:Datum:Temp:Abs-Feuchte:Windchill:Wind:
Aussen-T/F 1976 02-05-2020 20:35:00 11.5 C 7.85 g/m*3 11.5 C 1.6 km/h
1977 02-05-2020 20:40:00 11.2 C 7.8 g/m*3 11.2 C 0 km/h
1978 02-05-2020 20:45:00 10.8 C 7.81 g/m*3 10.8 C 3.2 km/h
1979 02-05-2020 20:50:00 10.4 C 7.71 g/m*3 10.4 C 4.8 km/h
1980 02-05-2020 20:55:00 10 C 7.71 g/m*3 10 C 4.8 km/h
1981 02-05-2020 21:00:00 9.7 C 7.65 g/m*3 9.7 C 4.8 km/h
1982 02-05-2020 21:05:00 9.4 C 7.6 g/m*3 8.68 C 6.4 km/h
1983 02-05-2020 21:10:00 9.2 C 7.5 g/m*3 8.05 C 8.1 km/h
1984 02-05-2020 21:15:00 8.9 C 7.45 g/m*3 8.1 C 6.4 km/h
1985 02-05-2020 21:20:00 8.8 C 7.4 g/m*3 7.58 C 8.1 km/h
1986 02-05-2020 21:25:00 8.7 C 7.35 g/m*3 7.46 C 8.1 km/h
1987 02-05-2020 21:30:00 8.6 C 7.39 g/m*3 7.34 C 8.1 km/h
1988 02-05-2020 21:35:00 8.4 C 7.3 g/m*3 7.52 C 6.4 km/h
1989 02-05-2020 21:40:00 8.3 C 7.33 g/m*3 7.41 C 6.4 km/h
1990 02-05-2020 21:45:00 8.3 C 7.33 g/m*3 7.41 C 6.4 km/h
1991 02-05-2020 21:50:00 8.2 C 7.37 g/m*3 8.2 C 4.8 km/h
1992 02-05-2020 21:55:00 8.1 C 7.32 g/m*3 8.1 C 3.2 km/h
1993 02-05-2020 22:00:00 8 C 7.28 g/m*3 8 C 1.6 km/h
1994 02-05-2020 22:05:00 7.9 C 7.31 g/m*3 7.9 C 0 km/h
1995 02-05-2020 22:10:00 7.8 C 7.26 g/m*3 7.8 C 3.2 km/h
1996 02-05-2020 22:15:00 7.7 C 7.22 g/m*3 7.7 C 3.2 km/h
1997 02-05-2020 22:20:00 7.6 C 7.17 g/m*3 7.6 C 1.6 km/h
1998 02-05-2020 22:25:00 7.4 C 7.16 g/m*3 7.4 C 0 km/h
1999 02-05-2020 22:30:00 7.3 C 7.11 g/m*3 7.3 C 0 km/h
2000 02-05-2020 22:35:00 7.2 C 7.06 g/m*3 7.2 C 1.6 km/h
Sensor: Nr:Datum:Temp:Abs-Feuchte:Windchill:Wind:
Aussen-T/F 2001 02-05-2020 22:40:00 7.2 C 7.06 g/m*3 7.2 C 3.2 km/h
2002 02-05-2020 22:45:00 7.1 C 7.1 g/m*3 7.1 C 3.2 km/h
2003 02-05-2020 22:50:00 7 C 7.05 g/m*3 7 C 1.6 km/h
2004 02-05-2020 22:55:00 7 C 7.05 g/m*3 7 C 3.2 km/h
2005 02-05-2020 23:00:00 7 C 7.05 g/m*3 7 C 3.2 km/h
2006 02-05-2020 23:05:00 6.9 C 7.08 g/m*3 6.9 C 3.2 km/h
2007 02-05-2020 23:10:00 6.9 C 7.08 g/m*3 6.9 C 1.6 km/h
2008 02-05-2020 23:15:00 6.9 C 7.08 g/m*3 6.9 C 3.2 km/h
2009 02-05-2020 23:20:00 6.9 C 7.08 g/m*3 5.79 C 6.4 km/h
2010 02-05-2020 23:25:00 6.9 C 7.08 g/m*3 6.9 C 4.8 km/h
2011 02-05-2020 23:30:00 6.9 C 7.08 g/m*3 6.9 C 4.8 km/h
2012 02-05-2020 23:35:00 6.9 C 7.08 g/m*3 6.9 C 4.8 km/h
2013 02-05-2020 23:40:00 6.9 C 7.08 g/m*3 6.9 C 3.2 km/h
2014 02-05-2020 23:45:00 6.8 C 7.04 g/m*3 6.8 C 1.6 km/h
2015 02-05-2020 23:50:00 6.8 C 7.04 g/m*3 6.8 C 3.2 km/h
2016 02-05-2020 23:55:00 6.7 C 6.99 g/m*3 6.7 C 0 km/h
2017 03-05-2020 00:00:00 6.7 C 6.99 g/m*3 5.56 C 6.4 km/h
2018 03-05-2020 00:05:00 6.6 C 6.95 g/m*3 6.6 C 3.2 km/h
2019 03-05-2020 00:10:00 6.6 C 6.95 g/m*3 6.6 C 3.2 km/h
2020 03-05-2020 00:15:00 6.5 C 6.9 g/m*3 6.5 C 3.2 km/h
2021 03-05-2020 00:20:00 6.4 C 6.93 g/m*3 6.4 C 1.6 km/h
2022 03-05-2020 00:25:00 6.4 C 6.93 g/m*3 6.4 C 1.6 km/h
2023 03-05-2020 00:30:00 6.4 C 6.93 g/m*3 6.4 C 4.8 km/h
2024 03-05-2020 00:35:00 6.3 C 6.88 g/m*3 6.3 C 1.6 km/h
2025 03-05-2020 00:40:00 6.2 C 6.84 g/m*3 6.2 C 3.2 km/h
Sensor: Nr:Datum:Temp:Abs-Feuchte:Windchill:Wind:
Aussen-T/F 2026 03-05-2020 00:45:00 6.2 C 6.84 g/m*3 6.2 C 0 km/h
2027 03-05-2020 00:50:00 6.1 C 6.79 g/m*3 6.1 C 0 km/h
2028 03-05-2020 00:55:00 6.1 C 6.79 g/m*3 6.1 C 3.2 km/h
2029 03-05-2020 01:00:00 6 C 6.75 g/m*3 6 C 0 km/h
2030 03-05-2020 01:05:00 5.9 C 6.71 g/m*3 5.9 C 0 km/h
2031 03-05-2020 01:10:00 5.8 C 6.66 g/m*3 5.8 C 1.6 km/h
2032 03-05-2020 01:15:00 5.8 C 6.66 g/m*3 5.8 C 1.6 km/h
2033 03-05-2020 01:20:00 5.7 C 6.62 g/m*3 5.7 C 1.6 km/h
2034 03-05-2020 01:25:00 5.7 C 6.62 g/m*3 5.7 C 1.6 km/h
2035 03-05-2020 01:30:00 5.6 C 6.57 g/m*3 5.6 C 0 km/h
2036 03-05-2020 01:35:00 5.5 C 6.53 g/m*3 5.5 C 0 km/h
2037 03-05-2020 01:40:00 5.4 C 6.49 g/m*3 5.4 C 0 km/h
2038 03-05-2020 01:45:00 5.3 C 6.52 g/m*3 5.3 C 1.6 km/h
2039 03-05-2020 01:50:00 5.3 C 6.52 g/m*3 5.3 C 1.6 km/h
2040 03-05-2020 01:55:00 5.3 C 6.52 g/m*3 5.3 C 0 km/h
2041 03-05-2020 02:00:00 5.3 C 6.52 g/m*3 5.3 C 1.6 km/h
2042 03-05-2020 02:05:00 5.3 C 6.52 g/m*3 5.3 C 0 km/h
2043 03-05-2020 02:10:00 5.3 C 6.52 g/m*3 5.3 C 4.8 km/h
2044 03-05-2020 02:15:00 5.4 C 6.56 g/m*3 5.4 C 3.2 km/h
2045 03-05-2020 02:20:00 5.4 C 6.56 g/m*3 5.4 C 3.2 km/h
2046 03-05-2020 02:25:00 5.4 C 6.56 g/m*3 5.4 C 0 km/h
2047 03-05-2020 02:30:00 5.3 C 6.52 g/m*3 5.3 C 0 km/h
2048 03-05-2020 02:35:00 5.3 C 6.52 g/m*3 5.3 C 1.6 km/h
2049 03-05-2020 02:40:00 5.2 C 6.47 g/m*3 5.2 C 0 km/h
2050 03-05-2020 02:45:00 5.2 C 6.47 g/m*3 5.2 C 1.6 km/h
Sensor: Nr:Datum:Temp:Abs-Feuchte:Windchill:Wind:
Aussen-T/F 2051 03-05-2020 02:50:00 5.1 C 6.43 g/m*3 5.1 C 1.6 km/h
2052 03-05-2020 02:55:00 5 C 6.39 g/m*3 5 C 0 km/h
2053 03-05-2020 03:00:00 4.9 C 6.35 g/m*3 4.9 C 1.6 km/h
2054 03-05-2020 03:05:00 4.9 C 6.35 g/m*3 4.9 C 1.6 km/h
2055 03-05-2020 03:10:00 4.8 C 6.3 g/m*3 4.8 C 0 km/h
2056 03-05-2020 03:15:00 4.8 C 6.3 g/m*3 4.8 C 1.6 km/h
2057 03-05-2020 03:20:00 4.8 C 6.37 g/m*3 4.8 C 3.2 km/h
2058 03-05-2020 03:25:00 4.8 C 6.37 g/m*3 4.8 C 3.2 km/h
2059 03-05-2020 03:30:00 4.8 C 6.37 g/m*3 4.8 C 0 km/h
2060 03-05-2020 03:35:00 4.8 C 6.37 g/m*3 3.36 C 6.4 km/h
2061 03-05-2020 03:40:00 4.8 C 6.37 g/m*3 4.8 C 1.6 km/h
2062 03-05-2020 03:45:00 4.8 C 6.37 g/m*3 4.8 C 3.2 km/h
2063 03-05-2020 03:50:00 4.8 C 6.37 g/m*3 4.8 C 3.2 km/h
2064 03-05-2020 03:55:00 4.8 C 6.37 g/m*3 4.8 C 0 km/h
2065 03-05-2020 04:00:00 4.8 C 6.37 g/m*3 4.8 C 3.2 km/h
2066 03-05-2020 04:05:00 4.8 C 6.37 g/m*3 4.8 C 0 km/h
2067 03-05-2020 04:10:00 4.7 C 6.33 g/m*3 4.7 C 0 km/h
2068 03-05-2020 04:15:00 4.6 C 6.29 g/m*3 4.6 C 0 km/h
2069 03-05-2020 04:20:00 4.4 C 6.2 g/m*3 4.4 C 0 km/h
2070 03-05-2020 04:25:00 4.3 C 6.16 g/m*3 4.3 C 0 km/h
2071 03-05-2020 04:30:00 4.1 C 6.08 g/m*3 4.1 C 0 km/h
2072 03-05-2020 04:35:00 4 C 5.98 g/m*3 4 C 0 km/h
2073 03-05-2020 04:40:00 3.9 C 6 g/m*3 3.9 C 0 km/h
2074 03-05-2020 04:45:00 3.8 C 5.9 g/m*3 3.8 C 0 km/h
2075 03-05-2020 04:50:00 3.7 C 5.92 g/m*3 3.7 C 0 km/h
Sensor: Nr:Datum:Temp:Abs-Feuchte:Windchill:Wind:
Aussen-T/F 2076 03-05-2020 04:55:00 3.7 C 5.92 g/m*3 3.7 C 0 km/h
2077 03-05-2020 05:00:00 3.7 C 5.92 g/m*3 3.7 C 0 km/h
2078 03-05-2020 05:05:00 3.6 C 5.88 g/m*3 3.6 C 1.6 km/h
2079 03-05-2020 05:10:00 3.6 C 5.88 g/m*3 3.6 C 0 km/h
2080 03-05-2020 05:15:00 3.6 C 5.88 g/m*3 3.6 C 0 km/h
2081 03-05-2020 05:20:00 3.5 C 5.84 g/m*3 3.5 C 0 km/h
2082 03-05-2020 05:25:00 3.4 C 5.8 g/m*3 3.4 C 0 km/h
2083 03-05-2020 05:30:00 3.4 C 5.8 g/m*3 3.4 C 0 km/h
2084 03-05-2020 05:35:00 3.4 C 5.8 g/m*3 3.4 C 0 km/h
2085 03-05-2020 05:40:00 3.4 C 5.8 g/m*3 3.4 C 0 km/h
2086 03-05-2020 05:45:00 3.5 C 5.84 g/m*3 3.5 C 3.2 km/h
2087 03-05-2020 05:50:00 3.6 C 5.94 g/m*3 3.6 C 0 km/h
2088 03-05-2020 05:55:00 3.7 C 5.98 g/m*3 3.7 C 0 km/h
2089 03-05-2020 06:00:00 3.8 C 6.02 g/m*3 3.8 C 0 km/h
2090 03-05-2020 06:05:00 3.9 C 6.06 g/m*3 3.9 C 0 km/h
2091 03-05-2020 06:10:00 3.9 C 6.06 g/m*3 3.9 C 0 km/h
2092 03-05-2020 06:15:00 4.1 C 6.14 g/m*3 4.1 C 3.2 km/h
2093 03-05-2020 06:20:00 4.2 C 6.19 g/m*3 4.2 C 1.6 km/h
2094 03-05-2020 06:25:00 4.2 C 6.19 g/m*3 4.2 C 0 km/h
2095 03-05-2020 06:30:00 4.3 C 6.23 g/m*3 4.3 C 3.2 km/h
2096 03-05-2020 06:35:00 4.4 C 6.27 g/m*3 4.4 C 0 km/h
2097 03-05-2020 06:40:00 4.4 C 6.27 g/m*3 4.4 C 0 km/h
2098 03-05-2020 06:45:00 4.4 C 6.27 g/m*3 4.4 C 0 km/h
2099 03-05-2020 06:50:00 4.5 C 6.31 g/m*3 4.5 C 3.2 km/h
2100 03-05-2020 06:55:00 4.5 C 6.31 g/m*3 4.5 C 0 km/h
Sensor: Nr:Datum:Temp:Abs-Feuchte:Windchill:Wind:
Aussen-T/F 2101 03-05-2020 07:00:00 4.5 C 6.31 g/m*3 4.5 C 0 km/h
2102 03-05-2020 07:05:00 4.5 C 6.31 g/m*3 4.5 C 1.6 km/h
2103 03-05-2020 07:10:00 4.4 C 6.27 g/m*3 4.4 C 4.8 km/h
2104 03-05-2020 07:15:00 4.5 C 6.31 g/m*3 2.52 C 8.1 km/h
2105 03-05-2020 07:20:00 4.4 C 6.27 g/m*3 4.4 C 4.8 km/h
2106 03-05-2020 07:25:00 4.4 C 6.27 g/m*3 4.4 C 3.2 km/h
2107 03-05-2020 07:30:00 4.4 C 6.27 g/m*3 4.4 C 3.2 km/h
2108 03-05-2020 07:35:00 4.5 C 6.31 g/m*3 4.5 C 4.8 km/h
2109 03-05-2020 07:40:00 4.6 C 6.35 g/m*3 3.13 C 6.4 km/h
2110 03-05-2020 07:45:00 4.6 C 6.35 g/m*3 3.13 C 6.4 km/h
2111 03-05-2020 07:50:00 4.6 C 6.35 g/m*3 3.13 C 6.4 km/h
2112 03-05-2020 07:55:00 4.6 C 6.35 g/m*3 4.6 C 3.2 km/h
2113 03-05-2020 08:00:00 4.7 C 6.39 g/m*3 4.7 C 3.2 km/h
2114 03-05-2020 08:05:00 4.7 C 6.39 g/m*3 4.7 C 3.2 km/h
2115 03-05-2020 08:10:00 4.7 C 6.39 g/m*3 4.7 C 1.6 km/h
2116 03-05-2020 08:15:00 4.7 C 6.39 g/m*3 4.7 C 0 km/h
2117 03-05-2020 08:20:00 4.8 C 6.44 g/m*3 4.8 C 0 km/h
2118 03-05-2020 08:25:00 4.8 C 6.44 g/m*3 4.8 C 0 km/h
2119 03-05-2020 08:30:00 4.9 C 6.48 g/m*3 4.9 C 1.6 km/h
2120 03-05-2020 08:35:00 5 C 6.52 g/m*3 5 C 0 km/h
2121 03-05-2020 08:40:00 5.1 C 6.63 g/m*3 5.1 C 1.6 km/h
2122 03-05-2020 08:45:00 5.2 C 6.68 g/m*3 5.2 C 4.8 km/h
2123 03-05-2020 08:50:00 5.3 C 6.72 g/m*3 5.3 C 4.8 km/h
2124 03-05-2020 08:55:00 5.4 C 6.77 g/m*3 5.4 C 4.8 km/h
2125 03-05-2020 09:00:00 5.6 C 6.86 g/m*3 5.6 C 4.8 km/h
Sensor: Nr:Datum:Temp:Abs-Feuchte:Windchill:Wind:
Aussen-T/F 2126 03-05-2020 09:05:00 5.7 C 6.9 g/m*3 5.7 C 4.8 km/h
2127 03-05-2020 09:10:00 5.7 C 6.9 g/m*3 5.7 C 4.8 km/h
2128 03-05-2020 09:15:00 5.8 C 6.95 g/m*3 5.8 C 3.2 km/h
2129 03-05-2020 09:20:00 6 C 7.04 g/m*3 6 C 4.8 km/h
2130 03-05-2020 09:25:00 6.1 C 7.09 g/m*3 6.1 C 1.6 km/h
2131 03-05-2020 09:30:00 6.3 C 7.18 g/m*3 6.3 C 0 km/h
2132 03-05-2020 09:35:00 6.3 C 7.18 g/m*3 6.3 C 1.6 km/h
2133 03-05-2020 09:40:00 6.4 C 7.23 g/m*3 6.4 C 1.6 km/h
2134 03-05-2020 09:45:00 6.7 C 7.37 g/m*3 6.7 C 1.6 km/h
2135 03-05-2020 09:50:00 6.9 C 7.47 g/m*3 6.9 C 1.6 km/h
2136 03-05-2020 09:55:00 7.1 C 7.57 g/m*3 7.1 C 0 km/h
2137 03-05-2020 10:00:00 7.3 C 7.66 g/m*3 7.3 C 0 km/h
2138 03-05-2020 10:05:00 7.5 C 7.76 g/m*3 7.5 C 0 km/h
2139 03-05-2020 10:10:00 7.6 C 7.81 g/m*3 7.6 C 0 km/h
2140 03-05-2020 10:15:00 7.8 C 7.92 g/m*3 7.8 C 0 km/h
2141 03-05-2020 10:20:00 8.1 C 8.07 g/m*3 8.1 C 0 km/h
2142 03-05-2020 10:25:00 8.3 C 8.09 g/m*3 8.3 C 0 km/h
2143 03-05-2020 10:30:00 8.6 C 8.25 g/m*3 8.6 C 0 km/h
2144 03-05-2020 10:35:00 8.8 C 8.27 g/m*3 8.8 C 0 km/h
2145 03-05-2020 10:40:00 9.1 C 8.34 g/m*3 9.1 C 0 km/h
2146 03-05-2020 10:45:00 9.6 C 8.52 g/m*3 9.6 C 3.2 km/h
2147 03-05-2020 10:50:00 9.9 C 8.68 g/m*3 9.9 C 1.6 km/h
2148 03-05-2020 10:55:00 10.2 C 8.66 g/m*3 10.2 C 4.8 km/h
2149 03-05-2020 11:00:00 10.6 C 8.78 g/m*3 10.6 C 4.8 km/h
2150 03-05-2020 11:05:00 10.9 C 8.65 g/m*3 10.04 C 8.1 km/h
Sensor: Nr:Datum:Temp:Abs-Feuchte:Windchill:Wind:
Aussen-T/F 2151 03-05-2020 11:10:00 11.2 C 8.62 g/m*3 11.2 C 3.2 km/h
2152 03-05-2020 11:15:00 11.5 C 8.57 g/m*3 11.5 C 3.2 km/h
2153 03-05-2020 11:20:00 11.7 C 8.58 g/m*3 11.7 C 1.6 km/h
2154 03-05-2020 11:25:00 12.1 C 8.9 g/m*3 12.1 C 4.8 km/h
2155 03-05-2020 11:30:00 12.5 C 8.8 g/m*3 12.5 C 4.8 km/h
2156 03-05-2020 11:35:00 12.8 C 8.51 g/m*3 12.8 C 6.4 km/h
2157 03-05-2020 11:40:00 13.1 C 8.44 g/m*3 13.1 C 6.4 km/h
2158 03-05-2020 11:45:00 13.2 C 7.92 g/m*3 13.2 C 9.7 km/h
2159 03-05-2020 11:50:00 13.4 C 8.02 g/m*3 13.4 C 9.7 km/h
2160 03-05-2020 11:55:00 13.6 C 7.65 g/m*3 13.6 C 11.3 km/h
2161 03-05-2020 12:00:00 13.7 C 7.7 g/m*3 13.7 C 8.1 km/h
2162 03-05-2020 12:05:00 13.8 C 7.51 g/m*3 13.8 C 8.1 km/h
2163 03-05-2020 12:10:00 13.9 C 7.55 g/m*3 13.9 C 6.4 km/h
2164 03-05-2020 12:15:00 14.1 C 7.52 g/m*3 14.1 C 8.1 km/h
2165 03-05-2020 12:20:00 14.2 C 7.45 g/m*3 14.2 C 11.3 km/h
2166 03-05-2020 12:25:00 14.3 C 7.13 g/m*3 14.3 C 9.7 km/h
2167 03-05-2020 12:30:00 14.3 C 7.25 g/m*3 14.3 C 11.3 km/h
2168 03-05-2020 12:35:00 14.3 C 7.13 g/m*3 14.3 C 4.8 km/h
2169 03-05-2020 12:40:00 14.4 C 7.42 g/m*3 14.4 C 8.1 km/h
2170 03-05-2020 12:45:00 14.5 C 6.72 g/m*3 14.5 C 9.7 km/h
2171 03-05-2020 12:50:00 14.6 C 6.76 g/m*3 14.6 C 9.7 km/h
2172 03-05-2020 12:55:00 14.7 C 6.42 g/m*3 14.7 C 11.3 km/h
2173 03-05-2020 13:00:00 14.8 C 6.71 g/m*3 14.8 C 11.3 km/h
2174 03-05-2020 13:05:00 15 C 6.8 g/m*3 15 C 9.7 km/h
2175 03-05-2020 13:10:00 15.2 C 7.01 g/m*3 15.2 C 9.7 km/h
Sensor: Nr:Datum:Temp:Abs-Feuchte:Windchill:Wind:
Aussen-T/F 2176 03-05-2020 13:15:00 15.2 C 7.01 g/m*3 15.2 C 6.4 km/h
2177 03-05-2020 13:20:00 15.3 C 6.79 g/m*3 15.3 C 14.5 km/h
2178 03-05-2020 13:25:00 15.4 C 6.18 g/m*3 15.4 C 14.5 km/h
2179 03-05-2020 13:30:00 15.4 C 6.31 g/m*3 15.4 C 9.7 km/h
2180 03-05-2020 13:35:00 15.5 C 6.61 g/m*3 15.5 C 9.7 km/h
2181 03-05-2020 13:40:00 15.7 C 6.29 g/m*3 15.7 C 11.3 km/h
2182 03-05-2020 13:45:00 15.8 C 6.6 g/m*3 15.8 C 11.3 km/h
2183 03-05-2020 13:50:00 15.8 C 6.73 g/m*3 15.8 C 9.7 km/h
2184 03-05-2020 13:55:00 15.8 C 6.6 g/m*3 15.8 C 11.3 km/h
2185 03-05-2020 14:00:00 15.8 C 6.6 g/m*3 15.8 C 11.3 km/h
2186 03-05-2020 14:05:00 15.9 C 6.91 g/m*3 15.9 C 6.4 km/h
2187 03-05-2020 14:10:00 16 C 6.4 g/m*3 16 C 9.7 km/h
2188 03-05-2020 14:15:00 16.1 C 6.72 g/m*3 16.1 C 9.7 km/h
2189 03-05-2020 14:20:00 16.2 C 6.21 g/m*3 16.2 C 12.9 km/h
2190 03-05-2020 14:25:00 16.2 C 6.48 g/m*3 16.2 C 12.9 km/h
2191 03-05-2020 14:30:00 16.2 C 6.48 g/m*3 16.2 C 9.7 km/h
2192 03-05-2020 14:35:00 16.2 C 6.34 g/m*3 16.2 C 4.8 km/h
2193 03-05-2020 14:40:00 16.3 C 6.66 g/m*3 16.3 C 9.7 km/h
2194 03-05-2020 14:45:00 16.4 C 6.7 g/m*3 16.4 C 8.1 km/h
2195 03-05-2020 14:50:00 16.7 C 6.54 g/m*3 16.7 C 8.1 km/h
2196 03-05-2020 14:55:00 16.8 C 7.15 g/m*3 16.8 C 9.7 km/h
2197 03-05-2020 15:00:00 17.1 C 6.99 g/m*3 17.1 C 11.3 km/h
2198 03-05-2020 15:05:00 17.2 C 6.74 g/m*3 17.2 C 12.9 km/h
2199 03-05-2020 15:10:00 17.3 C 6.78 g/m*3 17.3 C 9.7 km/h
2200 03-05-2020 15:15:00 17.4 C 6.97 g/m*3 17.4 C 9.7 km/h
Sensor: Nr:Datum:Temp:Abs-Feuchte:Windchill:Wind:
Aussen-T/F 2201 03-05-2020 15:20:00 17.3 C 6.78 g/m*3 17.3 C 8.1 km/h
2202 03-05-2020 15:25:00 17.3 C 7.07 g/m*3 17.3 C 8.1 km/h
2203 03-05-2020 15:30:00 17.3 C 7.37 g/m*3 17.3 C 6.4 km/h
2204 03-05-2020 15:35:00 17.3 C 6.78 g/m*3 17.3 C 9.7 km/h
2205 03-05-2020 15:40:00 17.4 C 6.52 g/m*3 17.4 C 8.1 km/h
2206 03-05-2020 15:45:00 17.6 C 6.6 g/m*3 17.6 C 9.7 km/h
2207 03-05-2020 15:50:00 17.8 C 6.68 g/m*3 17.8 C 11.3 km/h
2208 03-05-2020 15:55:00 17.7 C 6.64 g/m*3 17.7 C 12.9 km/h
2209 03-05-2020 16:00:00 17.7 C 7.24 g/m*3 17.7 C 11.3 km/h
2210 03-05-2020 16:05:00 17.6 C 6.9 g/m*3 17.6 C 11.3 km/h
2211 03-05-2020 16:10:00 17.4 C 6.97 g/m*3 17.4 C 9.7 km/h
2212 03-05-2020 16:15:00 17.3 C 6.63 g/m*3 17.3 C 6.4 km/h
2213 03-05-2020 16:20:00 17.3 C 6.78 g/m*3 17.3 C 6.4 km/h
2214 03-05-2020 16:25:00 17.3 C 7.22 g/m*3 17.3 C 4.8 km/h
2215 03-05-2020 16:30:00 17.3 C 7.22 g/m*3 17.3 C 11.3 km/h
2216 03-05-2020 16:35:00 17.3 C 7.22 g/m*3 17.3 C 9.7 km/h
2217 03-05-2020 16:40:00 17.3 C 7.07 g/m*3 17.3 C 9.7 km/h
2218 03-05-2020 16:45:00 17.3 C 7.07 g/m*3 17.3 C 9.7 km/h
2219 03-05-2020 16:50:00 17.4 C 7.26 g/m*3 17.4 C 8.1 km/h
2220 03-05-2020 16:55:00 17.4 C 7.26 g/m*3 17.4 C 8.1 km/h
2221 03-05-2020 17:00:00 17.3 C 7.37 g/m*3 17.3 C 8.1 km/h
2222 03-05-2020 17:05:00 17.3 C 7.07 g/m*3 17.3 C 6.4 km/h
2223 03-05-2020 17:10:00 17.2 C 7.18 g/m*3 17.2 C 6.4 km/h
2224 03-05-2020 17:15:00 17.2 C 6.88 g/m*3 17.2 C 11.3 km/h
2225 03-05-2020 17:20:00 17 C 7.09 g/m*3 17 C 11.3 km/h
Sensor: Nr:Datum:Temp:Abs-Feuchte:Windchill:Wind:
Aussen-T/F 2226 03-05-2020 17:25:00 16.8 C 6.86 g/m*3 16.8 C 9.7 km/h
2227 03-05-2020 17:30:00 16.7 C 7.39 g/m*3 16.7 C 4.8 km/h
2228 03-05-2020 17:35:00 16.8 C 7.72 g/m*3 16.8 C 4.8 km/h
2229 03-05-2020 17:40:00 16.9 C 7.19 g/m*3 16.9 C 9.7 km/h
2230 03-05-2020 17:45:00 16.9 C 6.9 g/m*3 16.9 C 8.1 km/h
2231 03-05-2020 17:50:00 16.8 C 6.86 g/m*3 16.8 C 8.1 km/h
2232 03-05-2020 17:55:00 16.8 C 7.01 g/m*3 16.8 C 9.7 km/h
2233 03-05-2020 18:00:00 16.7 C 7.11 g/m*3 16.7 C 6.4 km/h
2234 03-05-2020 18:05:00 16.6 C 6.92 g/m*3 16.6 C 6.4 km/h
2235 03-05-2020 18:10:00 16.6 C 7.49 g/m*3 16.6 C 8.1 km/h
2236 03-05-2020 18:15:00 16.6 C 7.2 g/m*3 16.6 C 6.4 km/h
2237 03-05-2020 18:20:00 16.6 C 7.77 g/m*3 16.6 C 4.8 km/h
2238 03-05-2020 18:25:00 16.6 C 7.91 g/m*3 16.6 C 1.6 km/h
2239 03-05-2020 18:30:00 16.6 C 7.49 g/m*3 16.6 C 3.2 km/h
2240 03-05-2020 18:35:00 16.5 C 7.02 g/m*3 16.5 C 6.4 km/h
2241 03-05-2020 18:40:00 16.6 C 8.19 g/m*3 16.6 C 3.2 km/h
2242 03-05-2020 18:45:00 16.7 C 7.96 g/m*3 16.7 C 3.2 km/h
2243 03-05-2020 18:50:00 16.7 C 7.82 g/m*3 16.7 C 3.2 km/h
2244 03-05-2020 18:55:00 16.7 C 7.96 g/m*3 16.7 C 6.4 km/h
2245 03-05-2020 19:00:00 16.6 C 7.35 g/m*3 16.6 C 6.4 km/h
2246 03-05-2020 19:05:00 16.5 C 8.57 g/m*3 16.5 C 1.6 km/h
2247 03-05-2020 19:10:00 16.4 C 8.93 g/m*3 16.4 C 3.2 km/h
2248 03-05-2020 19:15:00 16.1 C 8.22 g/m*3 16.1 C 3.2 km/h
2249 03-05-2020 19:20:00 16 C 8.45 g/m*3 16 C 3.2 km/h
2250 03-05-2020 19:25:00 15.8 C 8.21 g/m*3 15.8 C 4.8 km/h
Sensor: Nr:Datum:Temp:Abs-Feuchte:Windchill:Wind:
Aussen-T/F 2251 03-05-2020 19:30:00 15.8 C 9.02 g/m*3 15.8 C 0 km/h
2252 03-05-2020 19:35:00 15.7 C 8.83 g/m*3 15.7 C 3.2 km/h
2253 03-05-2020 19:40:00 15.6 C 9.18 g/m*3 15.6 C 4.8 km/h
2254 03-05-2020 19:45:00 15.4 C 9.2 g/m*3 15.4 C 4.8 km/h
2255 03-05-2020 19:50:00 15.2 C 9.22 g/m*3 15.2 C 4.8 km/h
2256 03-05-2020 19:55:00 15 C 9.1 g/m*3 15 C 6.4 km/h
2257 03-05-2020 20:00:00 14.8 C 9.25 g/m*3 14.8 C 4.8 km/h
2258 03-05-2020 20:05:00 14.6 C 9.01 g/m*3 14.6 C 4.8 km/h
2259 03-05-2020 20:10:00 14.3 C 8.85 g/m*3 14.3 C 6.4 km/h
2260 03-05-2020 20:15:00 14 C 8.68 g/m*3 14 C 6.4 km/h
2261 03-05-2020 20:20:00 13.7 C 8.64 g/m*3 13.7 C 6.4 km/h
2262 03-05-2020 20:25:00 13.4 C 8.6 g/m*3 13.4 C 4.8 km/h
2263 03-05-2020 20:30:00 13.2 C 8.38 g/m*3 13.2 C 6.4 km/h
2264 03-05-2020 20:35:00 13.1 C 8.56 g/m*3 13.1 C 4.8 km/h
2265 03-05-2020 20:40:00 12.9 C 8.45 g/m*3 12.9 C 4.8 km/h
2266 03-05-2020 20:45:00 12.7 C 8.35 g/m*3 12.7 C 6.4 km/h
2267 03-05-2020 20:50:00 12.6 C 8.3 g/m*3 12.6 C 6.4 km/h
2268 03-05-2020 20:55:00 12.5 C 8.36 g/m*3 12.5 C 4.8 km/h
2269 03-05-2020 21:00:00 12.3 C 8.25 g/m*3 12.3 C 4.8 km/h
2270 03-05-2020 21:05:00 12.3 C 8.36 g/m*3 12.3 C 3.2 km/h
2271 03-05-2020 21:10:00 12.2 C 8.2 g/m*3 12.2 C 6.4 km/h
2272 03-05-2020 21:15:00 12.2 C 8.31 g/m*3 12.2 C 4.8 km/h
2273 03-05-2020 21:20:00 12.1 C 8.26 g/m*3 12.1 C 4.8 km/h
2274 03-05-2020 21:25:00 12.1 C 8.26 g/m*3 12.1 C 3.2 km/h
2275 03-05-2020 21:30:00 12.1 C 8.47 g/m*3 12.1 C 4.8 km/h
Sensor: Nr:Datum:Temp:Abs-Feuchte:Windchill:Wind:
Aussen-T/F 2276 03-05-2020 21:35:00 12 C 8.42 g/m*3 12 C 4.8 km/h
2277 03-05-2020 21:40:00 11.9 C 8.26 g/m*3 11.9 C 3.2 km/h
2278 03-05-2020 21:45:00 11.9 C 8.37 g/m*3 11.9 C 0 km/h
2279 03-05-2020 21:50:00 12 C 8.63 g/m*3 12 C 0 km/h
2280 03-05-2020 21:55:00 11.9 C 8.47 g/m*3 11.9 C 0 km/h
2281 03-05-2020 22:00:00 11.9 C 8.47 g/m*3 11.9 C 1.6 km/h
2282 03-05-2020 22:05:00 11.9 C 8.47 g/m*3 11.9 C 0 km/h
2283 03-05-2020 22:10:00 11.8 C 8.42 g/m*3 11.8 C 0 km/h
2284 03-05-2020 22:15:00 11.8 C 8.31 g/m*3 11.8 C 3.2 km/h
2285 03-05-2020 22:20:00 11.8 C 8.42 g/m*3 11.8 C 0 km/h
2286 03-05-2020 22:25:00 11.8 C 8.42 g/m*3 11.8 C 0 km/h
2287 03-05-2020 22:30:00 11.8 C 8.53 g/m*3 11.8 C 0 km/h
2288 03-05-2020 22:35:00 11.7 C 8.37 g/m*3 11.7 C 0 km/h
2289 03-05-2020 22:40:00 11.7 C 8.37 g/m*3 11.7 C 0 km/h
2290 03-05-2020 22:45:00 11.6 C 8.21 g/m*3 11.6 C 0 km/h
2291 03-05-2020 22:50:00 11.6 C 8.21 g/m*3 11.6 C 0 km/h
2292 03-05-2020 22:55:00 11.6 C 8.21 g/m*3 11.6 C 0 km/h
2293 03-05-2020 23:00:00 11.6 C 8.32 g/m*3 11.6 C 0 km/h
2294 03-05-2020 23:05:00 11.6 C 8.42 g/m*3 11.6 C 0 km/h
2295 03-05-2020 23:10:00 11.6 C 8.52 g/m*3 11.6 C 0 km/h
2296 03-05-2020 23:15:00 11.5 C 8.37 g/m*3 11.5 C 0 km/h
2297 03-05-2020 23:20:00 11.5 C 8.37 g/m*3 11.5 C 0 km/h
2298 03-05-2020 23:25:00 11.4 C 8.21 g/m*3 11.4 C 0 km/h
2299 03-05-2020 23:30:00 11.4 C 8.21 g/m*3 11.4 C 0 km/h
2300 03-05-2020 23:35:00 11.4 C 8.21 g/m*3 11.4 C 4.8 km/h
Sensor: Nr:Datum:Temp:Abs-Feuchte:Windchill:Wind:
Aussen-T/F 2301 03-05-2020 23:40:00 11.4 C 8.21 g/m*3 11.4 C 3.2 km/h
2302 03-05-2020 23:45:00 11.4 C 8.11 g/m*3 11.4 C 3.2 km/h
2303 03-05-2020 23:50:00 11.4 C 8.21 g/m*3 11.4 C 3.2 km/h
2304 03-05-2020 23:55:00 11.4 C 8.21 g/m*3 11.4 C 0 km/h
2305 04-05-2020 00:00:00 11.4 C 8.01 g/m*3 11.4 C 0 km/h
2306 04-05-2020 00:05:00 11.4 C 8.21 g/m*3 11.4 C 0 km/h
2307 04-05-2020 00:10:00 11.4 C 8.21 g/m*3 11.4 C 0 km/h
2308 04-05-2020 00:15:00 11.4 C 8.31 g/m*3 11.4 C 0 km/h
2309 04-05-2020 00:20:00 11.4 C 8.31 g/m*3 11.4 C 0 km/h
2310 04-05-2020 00:25:00 11.3 C 8.36 g/m*3 11.3 C 0 km/h
2311 04-05-2020 00:30:00 11.3 C 8.36 g/m*3 11.3 C 0 km/h
2312 04-05-2020 00:35:00 11.3 C 8.36 g/m*3 11.3 C 0 km/h
2313 04-05-2020 00:40:00 11.3 C 8.36 g/m*3 11.3 C 0 km/h
2314 04-05-2020 00:45:00 11.2 C 8.41 g/m*3 11.2 C 0 km/h
2315 04-05-2020 00:50:00 11.2 C 8.41 g/m*3 11.2 C 0 km/h
2316 04-05-2020 00:55:00 11.2 C 8.31 g/m*3 11.2 C 0 km/h
2317 04-05-2020 01:00:00 11.2 C 8.41 g/m*3 11.2 C 0 km/h
2318 04-05-2020 01:05:00 11.2 C 8.31 g/m*3 11.2 C 0 km/h
2319 04-05-2020 01:10:00 11.1 C 8.26 g/m*3 11.1 C 0 km/h
2320 04-05-2020 01:15:00 11.1 C 8.26 g/m*3 11.1 C 0 km/h
2321 04-05-2020 01:20:00 11 C 8.21 g/m*3 11 C 0 km/h
2322 04-05-2020 01:25:00 11 C 8.21 g/m*3 11 C 4.8 km/h
2323 04-05-2020 01:30:00 10.9 C 8.16 g/m*3 10.9 C 1.6 km/h
2324 04-05-2020 01:35:00 11 C 8.11 g/m*3 11 C 0 km/h
2325 04-05-2020 01:40:00 11 C 8.11 g/m*3 11 C 0 km/h
Sensor: Nr:Datum:Temp:Abs-Feuchte:Windchill:Wind:
Aussen-T/F 2326 04-05-2020 01:45:00 11.1 C 8.06 g/m*3 11.1 C 0 km/h
2327 04-05-2020 01:50:00 11.1 C 8.06 g/m*3 11.1 C 0 km/h
2328 04-05-2020 01:55:00 11.2 C 8.21 g/m*3 11.2 C 0 km/h
2329 04-05-2020 02:00:00 11.2 C 8.31 g/m*3 11.2 C 0 km/h
2330 04-05-2020 02:05:00 11.2 C 8.41 g/m*3 11.2 C 0 km/h
2331 04-05-2020 02:10:00 11.2 C 8.41 g/m*3 11.2 C 0 km/h
2332 04-05-2020 02:15:00 11.1 C 8.36 g/m*3 11.1 C 0 km/h
2333 04-05-2020 02:20:00 11.1 C 8.36 g/m*3 11.1 C 0 km/h
2334 04-05-2020 02:25:00 11 C 8.21 g/m*3 11 C 0 km/h
2335 04-05-2020 02:30:00 11 C 8.31 g/m*3 11 C 0 km/h
2336 04-05-2020 02:35:00 11 C 8.41 g/m*3 11 C 0 km/h
2337 04-05-2020 02:40:00 10.9 C 8.26 g/m*3 10.9 C 0 km/h
2338 04-05-2020 02:45:00 10.9 C 8.36 g/m*3 10.9 C 0 km/h
2339 04-05-2020 02:50:00 10.9 C 8.36 g/m*3 10.9 C 0 km/h
2340 04-05-2020 02:55:00 10.8 C 8.2 g/m*3 10.8 C 0 km/h
2341 04-05-2020 03:00:00 10.7 C 8.05 g/m*3 10.7 C 4.8 km/h
2342 04-05-2020 03:05:00 10.5 C 8.05 g/m*3 10.5 C 0 km/h
2343 04-05-2020 03:10:00 10.4 C 8.1 g/m*3 10.4 C 0 km/h
2344 04-05-2020 03:15:00 10.3 C 8.04 g/m*3 10.3 C 1.6 km/h
2345 04-05-2020 03:20:00 10.2 C 7.99 g/m*3 10.2 C 1.6 km/h
2346 04-05-2020 03:25:00 10 C 7.89 g/m*3 10 C 0 km/h
2347 04-05-2020 03:30:00 9.9 C 7.84 g/m*3 9.9 C 0 km/h
2348 04-05-2020 03:35:00 9.8 C 7.89 g/m*3 9.8 C 0 km/h
2349 04-05-2020 03:40:00 9.7 C 7.74 g/m*3 9.7 C 0 km/h
2350 04-05-2020 03:45:00 9.6 C 7.69 g/m*3 9.6 C 0 km/h
Sensor: Nr:Datum:Temp:Abs-Feuchte:Windchill:Wind:
Aussen-T/F 2351 04-05-2020 03:50:00 9.5 C 7.74 g/m*3 9.5 C 0 km/h
2352 04-05-2020 03:55:00 9.4 C 7.6 g/m*3 9.4 C 0 km/h
2353 04-05-2020 04:00:00 9.3 C 7.64 g/m*3 9.3 C 0 km/h
2354 04-05-2020 04:05:00 9.3 C 7.73 g/m*3 9.3 C 0 km/h
2355 04-05-2020 04:10:00 9.3 C 7.73 g/m*3 9.3 C 0 km/h
2356 04-05-2020 04:15:00 9.2 C 7.68 g/m*3 9.2 C 0 km/h
2357 04-05-2020 04:20:00 9.2 C 7.77 g/m*3 9.2 C 0 km/h
2358 04-05-2020 04:25:00 9.2 C 7.77 g/m*3 9.2 C 0 km/h
2359 04-05-2020 04:30:00 9.2 C 7.77 g/m*3 9.2 C 0 km/h
2360 04-05-2020 04:35:00 9.2 C 7.86 g/m*3 9.2 C 0 km/h
2361 04-05-2020 04:40:00 9.3 C 7.91 g/m*3 9.3 C 0 km/h
2362 04-05-2020 04:45:00 9.3 C 7.91 g/m*3 9.3 C 0 km/h
2363 04-05-2020 04:50:00 9.4 C 7.96 g/m*3 9.4 C 0 km/h
2364 04-05-2020 04:55:00 9.5 C 8.1 g/m*3 9.5 C 0 km/h
2365 04-05-2020 05:00:00 9.5 C 8.01 g/m*3 9.5 C 0 km/h
2366 04-05-2020 05:05:00 9.6 C 8.06 g/m*3 9.6 C 0 km/h
2367 04-05-2020 05:10:00 9.6 C 8.15 g/m*3 9.6 C 0 km/h
2368 04-05-2020 05:15:00 9.7 C 8.11 g/m*3 9.7 C 0 km/h
2369 04-05-2020 05:20:00 9.7 C 8.11 g/m*3 9.7 C 0 km/h
2370 04-05-2020 05:25:00 9.7 C 8.11 g/m*3 9.7 C 0 km/h
2371 04-05-2020 05:30:00 9.8 C 8.16 g/m*3 9.8 C 0 km/h
2372 04-05-2020 05:35:00 9.8 C 8.16 g/m*3 9.8 C 0 km/h
2373 04-05-2020 05:40:00 9.8 C 8.16 g/m*3 9.8 C 0 km/h
2374 04-05-2020 05:45:00 9.8 C 8.16 g/m*3 9.8 C 0 km/h
2375 04-05-2020 05:50:00 9.8 C 8.16 g/m*3 9.8 C 0 km/h
Sensor: Nr:Datum:Temp:Abs-Feuchte:Windchill:Wind:
Aussen-T/F 2376 04-05-2020 05:55:00 9.8 C 8.16 g/m*3 9.8 C 0 km/h
2377 04-05-2020 06:00:00 9.8 C 8.26 g/m*3 9.8 C 0 km/h
2378 04-05-2020 06:05:00 9.8 C 8.16 g/m*3 9.8 C 0 km/h
2379 04-05-2020 06:10:00 9.8 C 8.26 g/m*3 9.8 C 0 km/h
2380 04-05-2020 06:15:00 9.9 C 8.31 g/m*3 9.9 C 0 km/h
2381 04-05-2020 06:20:00 9.9 C 8.31 g/m*3 9.9 C 0 km/h
2382 04-05-2020 06:25:00 9.9 C 8.31 g/m*3 9.9 C 0 km/h
2383 04-05-2020 06:30:00 9.9 C 8.31 g/m*3 9.9 C 0 km/h
2384 04-05-2020 06:35:00 9.9 C 8.31 g/m*3 9.9 C 0 km/h
2385 04-05-2020 06:40:00 9.9 C 8.31 g/m*3 9.9 C 0 km/h
2386 04-05-2020 06:45:00 9.9 C 8.31 g/m*3 9.9 C 0 km/h
2387 04-05-2020 06:50:00 9.9 C 8.31 g/m*3 9.9 C 0 km/h
2388 04-05-2020 06:55:00 9.9 C 8.4 g/m*3 9.9 C 0 km/h
2389 04-05-2020 07:00:00 9.9 C 8.4 g/m*3 9.9 C 0 km/h
2390 04-05-2020 07:05:00 9.9 C 8.4 g/m*3 9.9 C 0 km/h
2391 04-05-2020 07:10:00 10 C 8.46 g/m*3 10 C 0 km/h
2392 04-05-2020 07:15:00 10.1 C 8.51 g/m*3 10.1 C 0 km/h
2393 04-05-2020 07:20:00 10.1 C 8.51 g/m*3 10.1 C 0 km/h
2394 04-05-2020 07:25:00 10.2 C 8.66 g/m*3 10.2 C 0 km/h
2395 04-05-2020 07:30:00 10.3 C 8.71 g/m*3 10.3 C 1.6 km/h
2396 04-05-2020 07:35:00 10.7 C 8.74 g/m*3 9.81 C 8.1 km/h
2397 04-05-2020 07:40:00 10.9 C 8.75 g/m*3 10.9 C 4.8 km/h
2398 04-05-2020 07:45:00 11.1 C 8.76 g/m*3 11.1 C 3.2 km/h
2399 04-05-2020 07:50:00 11.3 C 8.77 g/m*3 11.3 C 4.8 km/h
2400 04-05-2020 07:55:00 11.4 C 8.93 g/m*3 11.4 C 0 km/h
Sensor: Nr:Datum:Temp:Abs-Feuchte:Windchill:Wind:
Aussen-T/F 2401 04-05-2020 08:00:00 11.5 C 8.99 g/m*3 11.5 C 0 km/h
2402 04-05-2020 08:05:00 11.6 C 9.15 g/m*3 11.6 C 6.4 km/h
2403 04-05-2020 08:10:00 11.6 C 9.15 g/m*3 11.6 C 8.1 km/h
2404 04-05-2020 08:15:00 11.6 C 9.25 g/m*3 11.6 C 0 km/h
2405 04-05-2020 08:20:00 11.5 C 9.3 g/m*3 11.5 C 1.6 km/h
2406 04-05-2020 08:25:00 11.5 C 9.3 g/m*3 11.5 C 1.6 km/h
2407 04-05-2020 08:30:00 11.5 C 9.4 g/m*3 11.5 C 3.2 km/h
2408 04-05-2020 08:35:00 11.6 C 9.56 g/m*3 11.6 C 1.6 km/h
2409 04-05-2020 08:40:00 11.6 C 9.56 g/m*3 11.6 C 3.2 km/h
2410 04-05-2020 08:45:00 11.7 C 9.62 g/m*3 11.7 C 3.2 km/h
2411 04-05-2020 08:50:00 11.7 C 9.62 g/m*3 11.7 C 6.4 km/h
2412 04-05-2020 08:55:00 11.7 C 9.62 g/m*3 11.7 C 3.2 km/h
2413 04-05-2020 09:00:00 11.7 C 9.62 g/m*3 11.7 C 0 km/h
2414 04-05-2020 09:05:00 11.6 C 9.56 g/m*3 11.6 C 0 km/h
2415 04-05-2020 09:10:00 11.7 C 9.62 g/m*3 11.7 C 0 km/h
2416 04-05-2020 09:15:00 11.7 C 9.73 g/m*3 11.7 C 0 km/h
2417 04-05-2020 09:20:00 11.8 C 9.79 g/m*3 11.8 C 0 km/h
2418 04-05-2020 09:25:00 11.8 C 9.79 g/m*3 11.8 C 0 km/h
2419 04-05-2020 09:30:00 11.9 C 9.85 g/m*3 11.9 C 1.6 km/h
2420 04-05-2020 09:35:00 11.9 C 9.85 g/m*3 11.9 C 1.6 km/h
2421 04-05-2020 09:40:00 12 C 9.91 g/m*3 12 C 1.6 km/h
2422 04-05-2020 09:45:00 12 C 9.91 g/m*3 12 C 3.2 km/h
2423 04-05-2020 09:50:00 12.1 C 9.97 g/m*3 12.1 C 4.8 km/h
2424 04-05-2020 09:55:00 12.2 C 10.04 g/m*3 12.2 C 4.8 km/h
2425 04-05-2020 10:00:00 12.4 C 10.05 g/m*3 12.4 C 4.8 km/h
Sensor: Nr:Datum:Temp:Abs-Feuchte:Windchill:Wind:
Aussen-T/F 2426 04-05-2020 10:05:00 12.6 C 10.18 g/m*3 12.6 C 6.4 km/h
2427 04-05-2020 10:10:00 12.7 C 10.24 g/m*3 12.7 C 3.2 km/h
2428 04-05-2020 10:15:00 12.9 C 10.26 g/m*3 12.9 C 4.8 km/h
2429 04-05-2020 10:20:00 12.9 C 10.14 g/m*3 12.9 C 8.1 km/h
2430 04-05-2020 10:25:00 13.1 C 10.27 g/m*3 13.1 C 6.4 km/h
2431 04-05-2020 10:30:00 13.3 C 10.51 g/m*3 13.3 C 8.1 km/h
2432 04-05-2020 10:35:00 13.5 C 10.41 g/m*3 13.5 C 8.1 km/h
2433 04-05-2020 10:40:00 13.7 C 10.54 g/m*3 13.7 C 8.1 km/h
2434 04-05-2020 10:45:00 13.7 C 10.54 g/m*3 13.7 C 8.1 km/h
2435 04-05-2020 10:50:00 13.8 C 10.48 g/m*3 13.8 C 4.8 km/h
2436 04-05-2020 10:55:00 13.9 C 10.67 g/m*3 13.9 C 6.4 km/h
2437 04-05-2020 11:00:00 13.9 C 10.55 g/m*3 13.9 C 3.2 km/h
2438 04-05-2020 11:05:00 13.8 C 10.48 g/m*3 13.8 C 6.4 km/h
2439 04-05-2020 11:10:00 13.8 C 10.6 g/m*3 13.8 C 1.6 km/h
2440 04-05-2020 11:15:00 13.7 C 10.54 g/m*3 13.7 C 3.2 km/h
2441 04-05-2020 11:20:00 13.6 C 10.47 g/m*3 13.6 C 6.4 km/h
2442 04-05-2020 11:25:00 13.4 C 10.46 g/m*3 13.4 C 9.7 km/h
2443 04-05-2020 11:30:00 13.2 C 10.22 g/m*3 13.2 C 9.7 km/h
2444 04-05-2020 11:35:00 12.9 C 10.14 g/m*3 12.9 C 4.8 km/h
2445 04-05-2020 11:40:00 12.8 C 10.08 g/m*3 12.8 C 8.1 km/h
2446 04-05-2020 11:45:00 12.7 C 10.13 g/m*3 12.7 C 6.4 km/h
2447 04-05-2020 11:50:00 12.6 C 10.07 g/m*3 12.6 C 8.1 km/h
2448 04-05-2020 11:55:00 12.4 C 9.94 g/m*3 12.4 C 9.7 km/h
2449 04-05-2020 12:00:00 12.3 C 9.99 g/m*3 12.3 C 3.2 km/h
2450 04-05-2020 12:05:00 12.3 C 9.99 g/m*3 12.3 C 4.8 km/h
Sensor: Nr:Datum:Temp:Abs-Feuchte:Windchill:Wind:
Aussen-T/F 2451 04-05-2020 12:10:00 12.3 C 9.99 g/m*3 12.3 C 4.8 km/h
2452 04-05-2020 12:15:00 12.3 C 9.99 g/m*3 12.3 C 11.3 km/h
2453 04-05-2020 12:20:00 12.4 C 10.05 g/m*3 12.4 C 11.3 km/h
2454 04-05-2020 12:25:00 12.6 C 10.29 g/m*3 12.6 C 11.3 km/h
2455 04-05-2020 12:30:00 12.8 C 10.42 g/m*3 12.8 C 9.7 km/h
2456 04-05-2020 12:35:00 12.9 C 10.37 g/m*3 12.9 C 12.9 km/h
2457 04-05-2020 12:40:00 12.9 C 10.26 g/m*3 12.9 C 8.1 km/h
2458 04-05-2020 12:45:00 13 C 10.32 g/m*3 13 C 12.9 km/h
2459 04-05-2020 12:50:00 12.9 C 10.26 g/m*3 12.9 C 11.3 km/h
2460 04-05-2020 12:55:00 13.1 C 10.38 g/m*3 13.1 C 6.4 km/h
2461 04-05-2020 13:00:00 13.3 C 10.63 g/m*3 13.3 C 9.7 km/h
2462 04-05-2020 13:05:00 13.4 C 10.58 g/m*3 13.4 C 8.1 km/h
2463 04-05-2020 13:10:00 13.4 C 10.35 g/m*3 13.4 C 6.4 km/h
2464 04-05-2020 13:15:00 13.4 C 10.23 g/m*3 13.4 C 1.6 km/h
2465 04-05-2020 13:20:00 13.7 C 10.42 g/m*3 13.7 C 12.9 km/h
2466 04-05-2020 13:25:00 13.9 C 10.19 g/m*3 13.9 C 8.1 km/h
2467 04-05-2020 13:30:00 14.1 C 10.19 g/m*3 14.1 C 8.1 km/h
2468 04-05-2020 13:35:00 14.3 C 10.32 g/m*3 14.3 C 8.1 km/h
2469 04-05-2020 13:40:00 14.6 C 10.51 g/m*3 14.6 C 6.4 km/h
2470 04-05-2020 13:45:00 14.7 C 10.32 g/m*3 14.7 C 11.3 km/h
2471 04-05-2020 13:50:00 14.7 C 10.2 g/m*3 14.7 C 6.4 km/h
2472 04-05-2020 13:55:00 14.6 C 10.26 g/m*3 14.6 C 6.4 km/h
2473 04-05-2020 14:00:00 14.6 C 10.39 g/m*3 14.6 C 8.1 km/h
2474 04-05-2020 14:05:00 14.5 C 10.07 g/m*3 14.5 C 11.3 km/h
2475 04-05-2020 14:10:00 14.5 C 10.07 g/m*3 14.5 C 9.7 km/h
Sensor: Nr:Datum:Temp:Abs-Feuchte:Windchill:Wind:
Aussen-T/F 2476 04-05-2020 14:15:00 14.6 C 10.26 g/m*3 14.6 C 12.9 km/h
2477 04-05-2020 14:20:00 14.8 C 10.39 g/m*3 14.8 C 16.1 km/h
2478 04-05-2020 14:25:00 14.9 C 10.32 g/m*3 14.9 C 16.1 km/h
2479 04-05-2020 14:30:00 15 C 10.39 g/m*3 15 C 9.7 km/h
2480 04-05-2020 14:35:00 15.1 C 10.45 g/m*3 15.1 C 11.3 km/h
2481 04-05-2020 14:40:00 14.9 C 10.2 g/m*3 14.9 C 14.5 km/h
2482 04-05-2020 14:45:00 14.7 C 9.95 g/m*3 14.7 C 14.5 km/h
2483 04-05-2020 14:50:00 14.6 C 10.01 g/m*3 14.6 C 11.3 km/h
2484 04-05-2020 14:55:00 14.5 C 10.07 g/m*3 14.5 C 9.7 km/h
2485 04-05-2020 15:00:00 14.4 C 10.01 g/m*3 14.4 C 9.7 km/h
2486 04-05-2020 15:05:00 14.3 C 10.07 g/m*3 14.3 C 9.7 km/h
2487 04-05-2020 15:10:00 14.3 C 10.07 g/m*3 14.3 C 11.3 km/h
2488 04-05-2020 15:15:00 14.3 C 10.07 g/m*3 14.3 C 6.4 km/h
2489 04-05-2020 15:20:00 14.3 C 10.07 g/m*3 14.3 C 8.1 km/h
2490 04-05-2020 15:25:00 14.4 C 9.89 g/m*3 14.4 C 8.1 km/h
2491 04-05-2020 15:30:00 14.3 C 9.71 g/m*3 14.3 C 8.1 km/h
2492 04-05-2020 15:35:00 14.2 C 9.65 g/m*3 14.2 C 8.1 km/h
2493 04-05-2020 15:40:00 14.2 C 9.65 g/m*3 14.2 C 9.7 km/h
2494 04-05-2020 15:45:00 14.3 C 9.58 g/m*3 14.3 C 6.4 km/h
2495 04-05-2020 15:50:00 14.4 C 9.64 g/m*3 14.4 C 9.7 km/h
2496 04-05-2020 15:55:00 14.6 C 9.76 g/m*3 14.6 C 11.3 km/h
2497 04-05-2020 16:00:00 14.7 C 9.82 g/m*3 14.7 C 9.7 km/h
2498 04-05-2020 16:05:00 14.7 C 9.44 g/m*3 14.7 C 11.3 km/h
2499 04-05-2020 16:10:00 14.7 C 9.32 g/m*3 14.7 C 12.9 km/h
2500 04-05-2020 16:15:00 14.8 C 9.5 g/m*3 14.8 C 11.3 km/h
Sensor: Nr:Datum:Temp:Abs-Feuchte:Windchill:Wind:
Aussen-T/F 2501 04-05-2020 16:20:00 14.8 C 9.37 g/m*3 14.8 C 9.7 km/h
2502 04-05-2020 16:25:00 14.7 C 9.32 g/m*3 14.7 C 11.3 km/h
2503 04-05-2020 16:30:00 14.4 C 8.9 g/m*3 14.4 C 12.9 km/h
2504 04-05-2020 16:35:00 14.3 C 8.97 g/m*3 14.3 C 12.9 km/h
2505 04-05-2020 16:40:00 14.4 C 9.27 g/m*3 14.4 C 9.7 km/h
2506 04-05-2020 16:45:00 14.4 C 9.15 g/m*3 14.4 C 9.7 km/h
2507 04-05-2020 16:50:00 14.6 C 9.13 g/m*3 14.6 C 14.5 km/h
2508 04-05-2020 16:55:00 14.6 C 9.13 g/m*3 14.6 C 11.3 km/h
2509 04-05-2020 17:00:00 14.5 C 8.95 g/m*3 14.5 C 12.9 km/h
2510 04-05-2020 17:05:00 14.4 C 9.02 g/m*3 14.4 C 16.1 km/h
2511 04-05-2020 17:10:00 14.4 C 8.9 g/m*3 14.4 C 12.9 km/h
2512 04-05-2020 17:15:00 14.3 C 8.97 g/m*3 14.3 C 12.9 km/h
2513 04-05-2020 17:20:00 14.3 C 9.09 g/m*3 14.3 C 11.3 km/h
2514 04-05-2020 17:25:00 14.3 C 8.97 g/m*3 14.3 C 6.4 km/h
2515 04-05-2020 17:30:00 14.3 C 8.85 g/m*3 14.3 C 6.4 km/h
2516 04-05-2020 17:35:00 14.3 C 8.97 g/m*3 14.3 C 11.3 km/h
2517 04-05-2020 17:40:00 14.2 C 8.55 g/m*3 14.2 C 12.9 km/h
2518 04-05-2020 17:45:00 14.2 C 8.67 g/m*3 14.2 C 11.3 km/h
2519 04-05-2020 17:50:00 14.2 C 8.79 g/m*3 14.2 C 9.7 km/h
2520 04-05-2020 17:55:00 14.2 C 8.67 g/m*3 14.2 C 11.3 km/h
2521 04-05-2020 18:00:00 14.2 C 8.55 g/m*3 14.2 C 6.4 km/h
2522 04-05-2020 18:05:00 14.3 C 8.6 g/m*3 14.3 C 9.7 km/h
2523 04-05-2020 18:10:00 14.3 C 8.6 g/m*3 14.3 C 6.4 km/h
2524 04-05-2020 18:15:00 14.3 C 8.6 g/m*3 14.3 C 4.8 km/h
2525 04-05-2020 18:20:00 14.2 C 8.43 g/m*3 14.2 C 3.2 km/h
Sensor: Nr:Datum:Temp:Abs-Feuchte:Windchill:Wind:
Aussen-T/F 2526 04-05-2020 18:25:00 14.1 C 8.62 g/m*3 14.1 C 4.8 km/h
2527 04-05-2020 18:30:00 14 C 8.44 g/m*3 14 C 6.4 km/h
2528 04-05-2020 18:35:00 14 C 8.93 g/m*3 14 C 1.6 km/h
2529 04-05-2020 18:40:00 13.9 C 8.51 g/m*3 13.9 C 6.4 km/h
2530 04-05-2020 18:45:00 13.8 C 8.34 g/m*3 13.8 C 4.8 km/h
2531 04-05-2020 18:50:00 13.8 C 8.34 g/m*3 13.8 C 6.4 km/h
2532 04-05-2020 18:55:00 13.8 C 8.34 g/m*3 13.8 C 4.8 km/h
2533 04-05-2020 19:00:00 13.8 C 8.34 g/m*3 13.8 C 3.2 km/h
2534 04-05-2020 19:05:00 13.8 C 9.06 g/m*3 13.8 C 0 km/h
2535 04-05-2020 19:10:00 13.8 C 8.94 g/m*3 13.8 C 0 km/h
2536 04-05-2020 19:15:00 13.7 C 9 g/m*3 13.7 C 0 km/h
2537 04-05-2020 19:20:00 13.6 C 8.94 g/m*3 13.6 C 0 km/h
2538 04-05-2020 19:25:00 13.4 C 8.6 g/m*3 13.4 C 3.2 km/h
2539 04-05-2020 19:30:00 13.3 C 8.78 g/m*3 13.3 C 1.6 km/h
2540 04-05-2020 19:35:00 13.3 C 9.24 g/m*3 13.3 C 0 km/h
2541 04-05-2020 19:40:00 13.3 C 9.36 g/m*3 13.3 C 0 km/h
2542 04-05-2020 19:45:00 13.2 C 9.19 g/m*3 13.2 C 0 km/h
2543 04-05-2020 19:50:00 13.1 C 9.36 g/m*3 13.1 C 0 km/h
2544 04-05-2020 19:55:00 13.1 C 9.47 g/m*3 13.1 C 0 km/h
2545 04-05-2020 20:00:00 13.1 C 9.36 g/m*3 13.1 C 0 km/h
2546 04-05-2020 20:05:00 13 C 9.3 g/m*3 13 C 0 km/h
2547 04-05-2020 20:10:00 13 C 9.3 g/m*3 13 C 0 km/h
2548 04-05-2020 20:15:00 12.9 C 9.35 g/m*3 12.9 C 0 km/h
2549 04-05-2020 20:20:00 12.9 C 9.47 g/m*3 12.9 C 0 km/h
2550 04-05-2020 20:25:00 12.8 C 9.41 g/m*3 12.8 C 0 km/h
Sensor: Nr:Datum:Temp:Abs-Feuchte:Windchill:Wind:
Aussen-T/F 2551 04-05-2020 20:30:00 12.6 C 9.18 g/m*3 12.6 C 0 km/h
2552 04-05-2020 20:35:00 12.4 C 9.07 g/m*3 12.4 C 0 km/h
2553 04-05-2020 20:40:00 12.2 C 8.52 g/m*3 12.2 C 6.4 km/h
2554 04-05-2020 20:45:00 12.2 C 8.52 g/m*3 12.2 C 4.8 km/h
2555 04-05-2020 20:50:00 12.2 C 8.74 g/m*3 12.2 C 4.8 km/h
2556 04-05-2020 20:55:00 12.1 C 8.69 g/m*3 12.1 C 4.8 km/h
2557 04-05-2020 21:00:00 11.9 C 8.47 g/m*3 11.9 C 1.6 km/h
2558 04-05-2020 21:05:00 11.7 C 8.37 g/m*3 11.7 C 0 km/h
2559 04-05-2020 21:10:00 11.4 C 8.21 g/m*3 11.4 C 1.6 km/h
2560 04-05-2020 21:15:00 11.1 C 7.96 g/m*3 11.1 C 1.6 km/h
2561 04-05-2020 21:20:00 10.8 C 7.81 g/m*3 10.8 C 0 km/h
2562 04-05-2020 21:25:00 10.6 C 7.71 g/m*3 10.6 C 0 km/h
2563 04-05-2020 21:30:00 10.3 C 7.57 g/m*3 10.3 C 1.6 km/h
2564 04-05-2020 21:35:00 10.1 C 7.56 g/m*3 10.1 C 0 km/h
2565 04-05-2020 21:40:00 9.9 C 7.38 g/m*3 9.9 C 1.6 km/h
2566 04-05-2020 21:45:00 9.7 C 7.47 g/m*3 9.7 C 1.6 km/h
2567 04-05-2020 21:50:00 9.6 C 7.42 g/m*3 9.6 C 0 km/h
2568 04-05-2020 21:55:00 9.4 C 7.33 g/m*3 9.4 C 3.2 km/h
2569 04-05-2020 22:00:00 9.2 C 7.23 g/m*3 9.2 C 4.8 km/h
2570 04-05-2020 22:05:00 9.1 C 7.19 g/m*3 9.1 C 3.2 km/h
2571 04-05-2020 22:10:00 9 C 7.14 g/m*3 9 C 3.2 km/h
2572 04-05-2020 22:15:00 8.9 C 7.18 g/m*3 8.9 C 0 km/h
2573 04-05-2020 22:20:00 8.8 C 7.14 g/m*3 8.8 C 0 km/h
2574 04-05-2020 22:25:00 8.6 C 7.13 g/m*3 8.6 C 0 km/h
2575 04-05-2020 22:30:00 8.5 C 7.17 g/m*3 8.5 C 0 km/h
Sensor: Nr:Datum:Temp:Abs-Feuchte:Windchill:Wind:
Aussen-T/F 2576 04-05-2020 22:35:00 8.3 C 7.16 g/m*3 8.3 C 0 km/h
2577 04-05-2020 22:40:00 8.2 C 7.12 g/m*3 8.2 C 0 km/h
2578 04-05-2020 22:45:00 8.1 C 7.16 g/m*3 8.1 C 0 km/h
2579 04-05-2020 22:50:00 8 C 7.11 g/m*3 8 C 0 km/h
2580 04-05-2020 22:55:00 7.9 C 7.15 g/m*3 7.9 C 0 km/h
2581 04-05-2020 23:00:00 7.8 C 7.1 g/m*3 7.8 C 1.6 km/h
2582 04-05-2020 23:05:00 7.6 C 7.01 g/m*3 7.6 C 0 km/h
2583 04-05-2020 23:10:00 7.6 C 7.01 g/m*3 7.6 C 1.6 km/h
2584 04-05-2020 23:15:00 7.4 C 6.92 g/m*3 7.4 C 3.2 km/h
2585 04-05-2020 23:20:00 7.3 C 6.87 g/m*3 7.3 C 3.2 km/h
2586 04-05-2020 23:25:00 7.2 C 6.83 g/m*3 7.2 C 3.2 km/h
2587 04-05-2020 23:30:00 7.2 C 6.83 g/m*3 7.2 C 3.2 km/h
2588 04-05-2020 23:35:00 7.1 C 6.79 g/m*3 7.1 C 3.2 km/h
2589 04-05-2020 23:40:00 7.1 C 6.79 g/m*3 7.1 C 3.2 km/h
2590 04-05-2020 23:45:00 7 C 6.74 g/m*3 7 C 1.6 km/h
2591 04-05-2020 23:50:00 6.9 C 6.77 g/m*3 6.9 C 1.6 km/h
2592 04-05-2020 23:55:00 6.9 C 6.77 g/m*3 6.9 C 3.2 km/h
2593 05-05-2020 00:00:00 6.8 C 6.73 g/m*3 6.8 C 3.2 km/h
2594 05-05-2020 00:05:00 6.7 C 6.69 g/m*3 6.7 C 3.2 km/h
2595 05-05-2020 00:10:00 6.7 C 6.69 g/m*3 6.7 C 1.6 km/h
2596 05-05-2020 00:15:00 6.6 C 6.64 g/m*3 6.6 C 3.2 km/h
2597 05-05-2020 00:20:00 6.5 C 6.67 g/m*3 6.5 C 1.6 km/h
2598 05-05-2020 00:25:00 6.4 C 6.63 g/m*3 6.4 C 0 km/h
2599 05-05-2020 00:30:00 6.4 C 6.63 g/m*3 6.4 C 0 km/h
2600 05-05-2020 00:35:00 6.3 C 6.66 g/m*3 6.3 C 0 km/h
Sensor: Nr:Datum:Temp:Abs-Feuchte:Windchill:Wind:
Aussen-T/F 2601 05-05-2020 00:40:00 6.2 C 6.62 g/m*3 6.2 C 0 km/h
2602 05-05-2020 00:45:00 6.2 C 6.62 g/m*3 6.2 C 1.6 km/h
2603 05-05-2020 00:50:00 6.1 C 6.58 g/m*3 6.1 C 1.6 km/h
2604 05-05-2020 00:55:00 6 C 6.6 g/m*3 6 C 0 km/h
2605 05-05-2020 01:00:00 6 C 6.6 g/m*3 6 C 0 km/h
2606 05-05-2020 01:05:00 5.9 C 6.56 g/m*3 5.9 C 0 km/h
2607 05-05-2020 01:10:00 5.8 C 6.52 g/m*3 5.8 C 0 km/h
2608 05-05-2020 01:15:00 5.8 C 6.52 g/m*3 5.8 C 0 km/h
2609 05-05-2020 01:20:00 5.7 C 6.48 g/m*3 5.7 C 0 km/h
2610 05-05-2020 01:25:00 5.7 C 6.48 g/m*3 5.7 C 0 km/h
2611 05-05-2020 01:30:00 5.7 C 6.48 g/m*3 5.7 C 0 km/h
2612 05-05-2020 01:35:00 5.6 C 6.43 g/m*3 5.6 C 0 km/h
2613 05-05-2020 01:40:00 5.5 C 6.39 g/m*3 5.5 C 0 km/h
2614 05-05-2020 01:45:00 5.3 C 6.38 g/m*3 5.3 C 0 km/h
2615 05-05-2020 01:50:00 5.3 C 6.31 g/m*3 5.3 C 0 km/h
2616 05-05-2020 01:55:00 5.2 C 6.33 g/m*3 5.2 C 0 km/h
2617 05-05-2020 02:00:00 5.1 C 6.29 g/m*3 5.1 C 0 km/h
2618 05-05-2020 02:05:00 5.1 C 6.29 g/m*3 5.1 C 0 km/h
2619 05-05-2020 02:10:00 5 C 6.25 g/m*3 5 C 0 km/h
2620 05-05-2020 02:15:00 4.9 C 6.28 g/m*3 4.9 C 0 km/h
2621 05-05-2020 02:20:00 4.9 C 6.28 g/m*3 4.9 C 0 km/h
2622 05-05-2020 02:25:00 4.9 C 6.28 g/m*3 4.9 C 0 km/h
2623 05-05-2020 02:30:00 4.9 C 6.28 g/m*3 4.9 C 0 km/h
2624 05-05-2020 02:35:00 4.9 C 6.28 g/m*3 4.9 C 0 km/h
2625 05-05-2020 02:40:00 4.8 C 6.24 g/m*3 4.8 C 0 km/h
Sensor: Nr:Datum:Temp:Abs-Feuchte:Windchill:Wind:
Aussen-T/F 2626 05-05-2020 02:45:00 4.8 C 6.24 g/m*3 4.8 C 0 km/h
2627 05-05-2020 02:50:00 4.8 C 6.24 g/m*3 4.8 C 0 km/h
2628 05-05-2020 02:55:00 4.7 C 6.19 g/m*3 4.7 C 0 km/h
2629 05-05-2020 03:00:00 4.7 C 6.19 g/m*3 4.7 C 0 km/h
2630 05-05-2020 03:05:00 4.7 C 6.26 g/m*3 4.7 C 3.2 km/h
2631 05-05-2020 03:10:00 4.8 C 6.3 g/m*3 4.8 C 1.6 km/h
2632 05-05-2020 03:15:00 4.8 C 6.3 g/m*3 4.8 C 0 km/h
2633 05-05-2020 03:20:00 4.8 C 6.3 g/m*3 4.8 C 1.6 km/h
2634 05-05-2020 03:25:00 4.8 C 6.3 g/m*3 4.8 C 0 km/h
2635 05-05-2020 03:30:00 4.9 C 6.35 g/m*3 4.9 C 0 km/h
2636 05-05-2020 03:35:00 4.9 C 6.35 g/m*3 4.9 C 0 km/h
2637 05-05-2020 03:40:00 4.9 C 6.35 g/m*3 4.9 C 0 km/h
2638 05-05-2020 03:45:00 4.9 C 6.35 g/m*3 4.9 C 0 km/h
2639 05-05-2020 03:50:00 4.8 C 6.3 g/m*3 4.8 C 0 km/h
2640 05-05-2020 03:55:00 4.8 C 6.3 g/m*3 4.8 C 0 km/h
2641 05-05-2020 04:00:00 4.8 C 6.3 g/m*3 4.8 C 0 km/h
2642 05-05-2020 04:05:00 4.8 C 6.3 g/m*3 4.8 C 0 km/h
2643 05-05-2020 04:10:00 4.7 C 6.26 g/m*3 4.7 C 0 km/h
2644 05-05-2020 04:15:00 4.7 C 6.26 g/m*3 4.7 C 0 km/h
2645 05-05-2020 04:20:00 4.6 C 6.22 g/m*3 4.6 C 0 km/h
2646 05-05-2020 04:25:00 4.6 C 6.22 g/m*3 4.6 C 0 km/h
2647 05-05-2020 04:30:00 4.4 C 6.14 g/m*3 4.4 C 0 km/h
2648 05-05-2020 04:35:00 4.4 C 6.14 g/m*3 4.4 C 0 km/h
2649 05-05-2020 04:40:00 4.3 C 6.1 g/m*3 4.3 C 0 km/h
2650 05-05-2020 04:45:00 4.3 C 6.1 g/m*3 4.3 C 0 km/h
Sensor: Nr:Datum:Temp:Abs-Feuchte:Windchill:Wind:
Aussen-T/F 2651 05-05-2020 04:50:00 4.3 C 6.16 g/m*3 4.3 C 0 km/h
2652 05-05-2020 04:55:00 4.3 C 6.16 g/m*3 4.3 C 0 km/h
2653 05-05-2020 05:00:00 4.3 C 6.16 g/m*3 4.3 C 0 km/h
2654 05-05-2020 05:05:00 4.2 C 6.12 g/m*3 4.2 C 0 km/h
2655 05-05-2020 05:10:00 4.2 C 6.12 g/m*3 4.2 C 0 km/h
2656 05-05-2020 05:15:00 4.3 C 6.16 g/m*3 4.3 C 0 km/h
2657 05-05-2020 05:20:00 4.3 C 6.16 g/m*3 4.3 C 0 km/h
2658 05-05-2020 05:25:00 4.3 C 6.16 g/m*3 4.3 C 0 km/h
2659 05-05-2020 05:30:00 4.3 C 6.16 g/m*3 4.3 C 0 km/h
2660 05-05-2020 05:35:00 4.2 C 6.12 g/m*3 4.2 C 0 km/h
2661 05-05-2020 05:40:00 4.2 C 6.12 g/m*3 4.2 C 0 km/h
2662 05-05-2020 05:45:00 4.2 C 6.12 g/m*3 4.2 C 0 km/h
2663 05-05-2020 05:50:00 4.1 C 6.08 g/m*3 4.1 C 0 km/h
2664 05-05-2020 05:55:00 4.2 C 6.12 g/m*3 4.2 C 0 km/h
2665 05-05-2020 06:00:00 4.2 C 6.12 g/m*3 4.2 C 0 km/h
2666 05-05-2020 06:05:00 4.2 C 6.12 g/m*3 4.2 C 0 km/h
2667 05-05-2020 06:10:00 4.2 C 6.12 g/m*3 4.2 C 0 km/h
2668 05-05-2020 06:15:00 4.2 C 6.12 g/m*3 4.2 C 0 km/h
2669 05-05-2020 06:20:00 4.2 C 6.12 g/m*3 4.2 C 0 km/h
2670 05-05-2020 06:25:00 4.3 C 6.16 g/m*3 4.3 C 0 km/h
2671 05-05-2020 06:30:00 4.4 C 6.2 g/m*3 4.4 C 0 km/h
2672 05-05-2020 06:35:00 4.4 C 6.2 g/m*3 4.4 C 0 km/h
2673 05-05-2020 06:40:00 4.5 C 6.31 g/m*3 4.5 C 0 km/h
2674 05-05-2020 06:45:00 4.6 C 6.35 g/m*3 4.6 C 0 km/h
2675 05-05-2020 06:50:00 4.7 C 6.39 g/m*3 4.7 C 0 km/h
Sensor: Nr:Datum:Temp:Abs-Feuchte:Windchill:Wind:
Aussen-T/F 2676 05-05-2020 06:55:00 4.8 C 6.44 g/m*3 4.8 C 0 km/h
2677 05-05-2020 07:00:00 4.8 C 6.44 g/m*3 4.8 C 0 km/h
2678 05-05-2020 07:05:00 4.9 C 6.48 g/m*3 4.9 C 0 km/h
2679 05-05-2020 07:10:00 5 C 6.52 g/m*3 5 C 0 km/h
2680 05-05-2020 07:15:00 5.2 C 6.61 g/m*3 5.2 C 0 km/h
2681 05-05-2020 07:20:00 5.2 C 6.61 g/m*3 5.2 C 0 km/h
2682 05-05-2020 07:25:00 5.3 C 6.65 g/m*3 5.3 C 0 km/h
2683 05-05-2020 07:30:00 5.4 C 6.7 g/m*3 5.4 C 0 km/h
2684 05-05-2020 07:35:00 5.5 C 6.74 g/m*3 5.5 C 0 km/h
2685 05-05-2020 07:40:00 5.7 C 6.83 g/m*3 5.7 C 0 km/h
2686 05-05-2020 07:45:00 5.7 C 6.83 g/m*3 5.7 C 0 km/h
2687 05-05-2020 07:50:00 5.9 C 6.92 g/m*3 5.9 C 0 km/h
2688 05-05-2020 07:55:00 6 C 6.97 g/m*3 6 C 0 km/h
2689 05-05-2020 08:00:00 6.1 C 7.01 g/m*3 6.1 C 0 km/h
2690 05-05-2020 08:05:00 6.2 C 7.06 g/m*3 6.2 C 0 km/h
2691 05-05-2020 08:10:00 6.2 C 7.06 g/m*3 6.2 C 0 km/h
2692 05-05-2020 08:15:00 6.3 C 7.11 g/m*3 6.3 C 0 km/h
2693 05-05-2020 08:20:00 6.5 C 7.2 g/m*3 6.5 C 0 km/h
2694 05-05-2020 08:25:00 6.6 C 7.25 g/m*3 6.6 C 0 km/h
2695 05-05-2020 08:30:00 6.7 C 7.29 g/m*3 6.7 C 0 km/h
2696 05-05-2020 08:35:00 6.7 C 7.29 g/m*3 6.7 C 0 km/h
2697 05-05-2020 08:40:00 6.7 C 7.22 g/m*3 6.7 C 0 km/h
2698 05-05-2020 08:45:00 6.7 C 7.22 g/m*3 6.7 C 4.8 km/h
2699 05-05-2020 08:50:00 6.8 C 7.27 g/m*3 6.8 C 1.6 km/h
2700 05-05-2020 08:55:00 7 C 7.36 g/m*3 7 C 3.2 km/h
Sensor: Nr:Datum:Temp:Abs-Feuchte:Windchill:Wind:
Aussen-T/F 2701 05-05-2020 09:00:00 7.1 C 7.33 g/m*3 7.1 C 3.2 km/h
2702 05-05-2020 09:05:00 7.2 C 7.3 g/m*3 7.2 C 3.2 km/h
2703 05-05-2020 09:10:00 7.4 C 7.32 g/m*3 5.93 C 8.1 km/h
2704 05-05-2020 09:15:00 7.6 C 7.25 g/m*3 5.82 C 9.7 km/h
2705 05-05-2020 09:20:00 7.7 C 7.22 g/m*3 6.71 C 6.4 km/h
2706 05-05-2020 09:25:00 7.9 C 7.23 g/m*3 7.9 C 4.8 km/h
2707 05-05-2020 09:30:00 8 C 7.28 g/m*3 8 C 3.2 km/h
2708 05-05-2020 09:35:00 8.2 C 7.29 g/m*3 7.29 C 6.4 km/h
2709 05-05-2020 09:40:00 8.2 C 7.2 g/m*3 8.2 C 4.8 km/h
2710 05-05-2020 09:45:00 8.3 C 7.25 g/m*3 7.41 C 6.4 km/h
2711 05-05-2020 09:50:00 8.6 C 7.3 g/m*3 8.6 C 4.8 km/h
2712 05-05-2020 09:55:00 8.7 C 7.26 g/m*3 7.87 C 6.4 km/h
2713 05-05-2020 10:00:00 8.9 C 7.27 g/m*3 7.69 C 8.1 km/h
2714 05-05-2020 10:05:00 8.9 C 7.1 g/m*3 7.69 C 8.1 km/h
2715 05-05-2020 10:10:00 9.1 C 7.1 g/m*3 9.1 C 1.6 km/h
2716 05-05-2020 10:15:00 9.2 C 7.14 g/m*3 9.2 C 3.2 km/h
2717 05-05-2020 10:20:00 9.4 C 7.05 g/m*3 8.28 C 8.1 km/h
2718 05-05-2020 10:25:00 9.6 C 7.05 g/m*3 8.52 C 8.1 km/h
2719 05-05-2020 10:30:00 9.8 C 6.96 g/m*3 9.14 C 6.4 km/h
2720 05-05-2020 10:35:00 10 C 7.14 g/m*3 8.99 C 8.1 km/h
2721 05-05-2020 10:40:00 10.1 C 6.9 g/m*3 10.1 C 4.8 km/h
2722 05-05-2020 10:45:00 10.2 C 6.95 g/m*3 10.2 C 4.8 km/h
2723 05-05-2020 10:50:00 10.3 C 7.09 g/m*3 10.3 C 3.2 km/h
2724 05-05-2020 10:55:00 10.6 C 7.03 g/m*3 10.06 C 6.4 km/h
2725 05-05-2020 11:00:00 10.9 C 6.96 g/m*3 9.76 C 9.7 km/h
Sensor: Nr:Datum:Temp:Abs-Feuchte:Windchill:Wind:
Aussen-T/F 2726 05-05-2020 11:05:00 11.2 C 6.89 g/m*3 11.2 C 11.3 km/h
2727 05-05-2020 11:10:00 11.4 C 6.88 g/m*3 11.4 C 9.7 km/h
2728 05-05-2020 11:15:00 11.6 C 6.86 g/m*3 11.6 C 8.1 km/h
2729 05-05-2020 11:20:00 11.7 C 7.11 g/m*3 11.7 C 6.4 km/h
2730 05-05-2020 11:25:00 11.9 C 6.99 g/m*3 11.9 C 6.4 km/h
2731 05-05-2020 11:30:00 12.1 C 6.97 g/m*3 12.1 C 4.8 km/h
2732 05-05-2020 11:35:00 12.1 C 7.08 g/m*3 12.1 C 6.4 km/h
2733 05-05-2020 11:40:00 12.2 C 7.23 g/m*3 12.2 C 8.1 km/h
2734 05-05-2020 11:45:00 12.3 C 7.17 g/m*3 12.3 C 11.3 km/h
2735 05-05-2020 11:50:00 12.4 C 7.1 g/m*3 12.4 C 8.1 km/h
2736 05-05-2020 11:55:00 12.5 C 7.15 g/m*3 12.5 C 9.7 km/h
2737 05-05-2020 12:00:00 12.6 C 6.97 g/m*3 12.6 C 8.1 km/h
2738 05-05-2020 12:05:00 12.7 C 7.24 g/m*3 12.7 C 6.4 km/h
2739 05-05-2020 12:10:00 12.7 C 7.12 g/m*3 12.7 C 4.8 km/h
2740 05-05-2020 12:15:00 12.8 C 7.06 g/m*3 12.8 C 9.7 km/h
2741 05-05-2020 12:20:00 13 C 7.14 g/m*3 13 C 11.3 km/h
2742 05-05-2020 12:25:00 13.1 C 7.07 g/m*3 13.1 C 6.4 km/h
2743 05-05-2020 12:30:00 13 C 7.03 g/m*3 13 C 6.4 km/h
2744 05-05-2020 12:35:00 12.8 C 7.06 g/m*3 12.8 C 9.7 km/h
2745 05-05-2020 12:40:00 12.8 C 7.17 g/m*3 12.8 C 6.4 km/h
2746 05-05-2020 12:45:00 12.8 C 7.06 g/m*3 12.8 C 6.4 km/h
2747 05-05-2020 12:50:00 12.8 C 7.17 g/m*3 12.8 C 6.4 km/h
2748 05-05-2020 12:55:00 12.8 C 7.17 g/m*3 12.8 C 8.1 km/h
2749 05-05-2020 13:00:00 12.9 C 6.88 g/m*3 12.9 C 6.4 km/h
2750 05-05-2020 13:05:00 12.9 C 6.76 g/m*3 12.9 C 9.7 km/h
Sensor: Nr:Datum:Temp:Abs-Feuchte:Windchill:Wind:
Aussen-T/F 2751 05-05-2020 13:10:00 12.9 C 6.99 g/m*3 12.9 C 6.4 km/h
2752 05-05-2020 13:15:00 13.1 C 7.07 g/m*3 13.1 C 8.1 km/h
2753 05-05-2020 13:20:00 13.1 C 6.85 g/m*3 13.1 C 6.4 km/h
2754 05-05-2020 13:25:00 13.2 C 6.89 g/m*3 13.2 C 8.1 km/h
2755 05-05-2020 13:30:00 13.3 C 7.05 g/m*3 13.3 C 6.4 km/h
2756 05-05-2020 13:35:00 13.5 C 6.9 g/m*3 13.5 C 6.4 km/h
2757 05-05-2020 13:40:00 13.6 C 7.18 g/m*3 13.6 C 3.2 km/h
2758 05-05-2020 13:45:00 13.8 C 6.91 g/m*3 13.8 C 6.4 km/h
2759 05-05-2020 13:50:00 13.9 C 6.95 g/m*3 13.9 C 9.7 km/h
2760 05-05-2020 13:55:00 14.1 C 7.16 g/m*3 14.1 C 8.1 km/h
2761 05-05-2020 14:00:00 14.1 C 6.92 g/m*3 14.1 C 11.3 km/h
2762 05-05-2020 14:05:00 14 C 7.12 g/m*3 14 C 8.1 km/h
2763 05-05-2020 14:10:00 13.8 C 6.67 g/m*3 13.8 C 3.2 km/h
2764 05-05-2020 14:15:00 13.7 C 6.51 g/m*3 13.7 C 6.4 km/h
2765 05-05-2020 14:20:00 13.7 C 6.39 g/m*3 13.7 C 9.7 km/h
2766 05-05-2020 14:25:00 13.8 C 6.43 g/m*3 13.8 C 4.8 km/h
2767 05-05-2020 14:30:00 14.1 C 6.67 g/m*3 14.1 C 6.4 km/h
2768 05-05-2020 14:35:00 14.1 C 6.31 g/m*3 14.1 C 4.8 km/h
2769 05-05-2020 14:40:00 14.2 C 6.47 g/m*3 14.2 C 4.8 km/h
2770 05-05-2020 14:45:00 14.2 C 6.47 g/m*3 14.2 C 11.3 km/h
2771 05-05-2020 14:50:00 14.6 C 6.26 g/m*3 14.6 C 6.4 km/h
2772 05-05-2020 14:55:00 14.8 C 5.7 g/m*3 14.8 C 9.7 km/h
2773 05-05-2020 15:00:00 15.2 C 5.97 g/m*3 15.2 C 11.3 km/h
2774 05-05-2020 15:05:00 15.5 C 6.21 g/m*3 15.5 C 11.3 km/h
2775 05-05-2020 15:10:00 15.8 C 6.19 g/m*3 15.8 C 12.9 km/h
Sensor: Nr:Datum:Temp:Abs-Feuchte:Windchill:Wind:
Aussen-T/F 2776 05-05-2020 15:15:00 15.9 C 5.69 g/m*3 15.9 C 12.9 km/h
2777 05-05-2020 15:20:00 15.8 C 5.92 g/m*3 15.8 C 6.4 km/h
2778 05-05-2020 15:25:00 16.1 C 6.03 g/m*3 16.1 C 8.1 km/h
2779 05-05-2020 15:30:00 16.3 C 5.69 g/m*3 16.3 C 11.3 km/h
2780 05-05-2020 15:35:00 16.6 C 5.65 g/m*3 16.6 C 12.9 km/h
2781 05-05-2020 15:40:00 16.7 C 5.54 g/m*3 16.7 C 16.1 km/h
2782 05-05-2020 15:45:00 16.5 C 5.34 g/m*3 16.5 C 11.3 km/h
2783 05-05-2020 15:50:00 16.6 C 5.51 g/m*3 16.6 C 9.7 km/h
2784 05-05-2020 15:55:00 16.8 C 5.86 g/m*3 16.8 C 12.9 km/h
2785 05-05-2020 16:00:00 17.1 C 5.68 g/m*3 17.1 C 8.1 km/h
2786 05-05-2020 16:05:00 17.4 C 6.52 g/m*3 17.4 C 6.4 km/h
2787 05-05-2020 16:10:00 17.8 C 5.46 g/m*3 17.8 C 11.3 km/h
2788 05-05-2020 16:15:00 17.5 C 5.37 g/m*3 17.5 C 16.1 km/h
2789 05-05-2020 16:20:00 17.4 C 5.34 g/m*3 17.4 C 14.5 km/h
2790 05-05-2020 16:25:00 17.7 C 5.58 g/m*3 17.7 C 6.4 km/h
2791 05-05-2020 16:30:00 17.6 C 4.8 g/m*3 17.6 C 11.3 km/h
2792 05-05-2020 16:35:00 17.6 C 5.7 g/m*3 17.6 C 6.4 km/h
2793 05-05-2020 16:40:00 18 C 5.22 g/m*3 18 C 6.4 km/h
2794 05-05-2020 16:45:00 18.1 C 4.94 g/m*3 18.1 C 8.1 km/h
2795 05-05-2020 16:50:00 18.2 C 5.13 g/m*3 18.2 C 9.7 km/h
2796 05-05-2020 16:55:00 18.2 C 5.13 g/m*3 18.2 C 12.9 km/h
2797 05-05-2020 17:00:00 17.8 C 5.01 g/m*3 17.8 C 14.5 km/h
2798 05-05-2020 17:05:00 17.7 C 5.13 g/m*3 17.7 C 6.4 km/h
2799 05-05-2020 17:10:00 17.9 C 5.04 g/m*3 17.9 C 8.1 km/h
2800 05-05-2020 17:15:00 18.1 C 4.79 g/m*3 18.1 C 4.8 km/h
Sensor: Nr:Datum:Temp:Abs-Feuchte:Windchill:Wind:
Aussen-T/F 2801 05-05-2020 17:20:00 18.3 C 5.16 g/m*3 18.3 C 8.1 km/h
2802 05-05-2020 17:25:00 18.3 C 5 g/m*3 18.3 C 9.7 km/h
2803 05-05-2020 17:30:00 18.4 C 4.88 g/m*3 18.4 C 11.3 km/h
2804 05-05-2020 17:35:00 18.6 C 5.41 g/m*3 18.6 C 11.3 km/h
2805 05-05-2020 17:40:00 18.7 C 4.8 g/m*3 18.7 C 12.9 km/h
2806 05-05-2020 17:45:00 18.4 C 4.72 g/m*3 18.4 C 11.3 km/h
2807 05-05-2020 17:50:00 18.2 C 5.13 g/m*3 18.2 C 11.3 km/h
2808 05-05-2020 17:55:00 18.1 C 4.79 g/m*3 18.1 C 12.9 km/h
2809 05-05-2020 18:00:00 18.1 C 4.79 g/m*3 18.1 C 12.9 km/h
2810 05-05-2020 18:05:00 17.9 C 4.58 g/m*3 17.9 C 14.5 km/h
2811 05-05-2020 18:10:00 17.9 C 4.73 g/m*3 17.9 C 6.4 km/h
2812 05-05-2020 18:15:00 18.2 C 4.66 g/m*3 18.2 C 12.9 km/h
2813 05-05-2020 18:20:00 18.3 C 4.53 g/m*3 18.3 C 8.1 km/h
2814 05-05-2020 18:25:00 18.3 C 4.69 g/m*3 18.3 C 6.4 km/h
2815 05-05-2020 18:30:00 18.3 C 4.53 g/m*3 18.3 C 8.1 km/h
2816 05-05-2020 18:35:00 18.2 C 4.82 g/m*3 18.2 C 16.1 km/h
2817 05-05-2020 18:40:00 18.3 C 4.69 g/m*3 18.3 C 9.7 km/h
2818 05-05-2020 18:45:00 18 C 4.61 g/m*3 18 C 9.7 km/h
2819 05-05-2020 18:50:00 17.9 C 4.73 g/m*3 17.9 C 8.1 km/h
2820 05-05-2020 18:55:00 18 C 4.61 g/m*3 18 C 9.7 km/h
2821 05-05-2020 19:00:00 18.1 C 4.79 g/m*3 18.1 C 11.3 km/h
2822 05-05-2020 19:05:00 18.2 C 4.66 g/m*3 18.2 C 11.3 km/h
2823 05-05-2020 19:10:00 17.8 C 4.4 g/m*3 17.8 C 12.9 km/h
2824 05-05-2020 19:15:00 17.4 C 4.45 g/m*3 17.4 C 12.9 km/h
2825 05-05-2020 19:20:00 17.2 C 4.39 g/m*3 17.2 C 9.7 km/h
Sensor: Nr:Datum:Temp:Abs-Feuchte:Windchill:Wind:
Aussen-T/F 2826 05-05-2020 19:25:00 17 C 4.49 g/m*3 17 C 9.7 km/h
2827 05-05-2020 19:30:00 16.9 C 4.46 g/m*3 16.9 C 6.4 km/h
2828 05-05-2020 19:35:00 16.8 C 4.58 g/m*3 16.8 C 8.1 km/h
2829 05-05-2020 19:40:00 16.6 C 4.66 g/m*3 16.6 C 8.1 km/h
2830 05-05-2020 19:45:00 16.4 C 4.33 g/m*3 16.4 C 9.7 km/h
2831 05-05-2020 19:50:00 16.3 C 4.44 g/m*3 16.3 C 11.3 km/h
2832 05-05-2020 19:55:00 16.2 C 4.41 g/m*3 16.2 C 9.7 km/h
2833 05-05-2020 20:00:00 16 C 4.5 g/m*3 16 C 9.7 km/h
2834 05-05-2020 20:05:00 15.8 C 4.44 g/m*3 15.8 C 9.7 km/h
2835 05-05-2020 20:10:00 15.7 C 4.68 g/m*3 15.7 C 9.7 km/h
2836 05-05-2020 20:15:00 15.6 C 4.52 g/m*3 15.6 C 6.4 km/h
2837 05-05-2020 20:20:00 15.5 C 4.63 g/m*3 15.5 C 8.1 km/h
2838 05-05-2020 20:25:00 15.3 C 4.7 g/m*3 15.3 C 6.4 km/h
2839 05-05-2020 20:30:00 15.1 C 4.64 g/m*3 15.1 C 8.1 km/h
2840 05-05-2020 20:35:00 14.8 C 4.69 g/m*3 14.8 C 6.4 km/h
2841 05-05-2020 20:40:00 14.6 C 5.01 g/m*3 14.6 C 6.4 km/h
2842 05-05-2020 20:45:00 14.4 C 5.07 g/m*3 14.4 C 8.1 km/h
2843 05-05-2020 20:50:00 14.2 C 5.37 g/m*3 14.2 C 4.8 km/h
2844 05-05-2020 20:55:00 13.9 C 5.87 g/m*3 13.9 C 0 km/h
2845 05-05-2020 21:00:00 13.4 C 6.04 g/m*3 13.4 C 0 km/h
2846 05-05-2020 21:05:00 12.9 C 6.09 g/m*3 12.9 C 1.6 km/h
2847 05-05-2020 21:10:00 12.3 C 6.19 g/m*3 12.3 C 3.2 km/h
2848 05-05-2020 21:15:00 11.9 C 6.14 g/m*3 11.9 C 3.2 km/h
2849 05-05-2020 21:20:00 11.6 C 6.03 g/m*3 11.6 C 4.8 km/h
2850 05-05-2020 21:25:00 11.2 C 5.88 g/m*3 11.2 C 0 km/h
Sensor: Nr:Datum:Temp:Abs-Feuchte:Windchill:Wind:
Aussen-T/F 2851 05-05-2020 21:30:00 10.9 C 5.87 g/m*3 10.41 C 6.4 km/h
2852 05-05-2020 21:35:00 10.6 C 5.95 g/m*3 10.6 C 3.2 km/h
2853 05-05-2020 21:40:00 10.3 C 5.65 g/m*3 10.3 C 3.2 km/h
2854 05-05-2020 21:45:00 10.1 C 5.67 g/m*3 10.1 C 4.8 km/h
2855 05-05-2020 21:50:00 9.9 C 5.51 g/m*3 9.25 C 6.4 km/h
2856 05-05-2020 21:55:00 9.8 C 5.57 g/m*3 9.14 C 6.4 km/h
2857 05-05-2020 22:00:00 9.7 C 5.72 g/m*3 9.7 C 4.8 km/h
2858 05-05-2020 22:05:00 9.6 C 5.68 g/m*3 9.6 C 3.2 km/h
2859 05-05-2020 22:10:00 9.4 C 5.97 g/m*3 9.4 C 4.8 km/h
2860 05-05-2020 22:15:00 9.3 C 5.84 g/m*3 9.3 C 4.8 km/h
2861 05-05-2020 22:20:00 9.2 C 5.71 g/m*3 9.2 C 3.2 km/h
2862 05-05-2020 22:25:00 9.2 C 5.8 g/m*3 9.2 C 0 km/h
2863 05-05-2020 22:30:00 9.1 C 5.77 g/m*3 9.1 C 4.8 km/h
2864 05-05-2020 22:35:00 9 C 5.91 g/m*3 9 C 0 km/h
2865 05-05-2020 22:40:00 8.9 C 5.87 g/m*3 8.1 C 6.4 km/h
2866 05-05-2020 22:45:00 8.8 C 5.83 g/m*3 8.8 C 1.6 km/h
2867 05-05-2020 22:50:00 8.7 C 5.88 g/m*3 8.7 C 4.8 km/h
2868 05-05-2020 22:55:00 8.7 C 5.62 g/m*3 8.7 C 4.8 km/h
2869 05-05-2020 23:00:00 8.7 C 5.79 g/m*3 8.7 C 0 km/h
2870 05-05-2020 23:05:00 8.6 C 5.76 g/m*3 8.6 C 1.6 km/h
2871 05-05-2020 23:10:00 8.5 C 5.72 g/m*3 8.5 C 1.6 km/h
2872 05-05-2020 23:15:00 8.4 C 5.68 g/m*3 8.4 C 0 km/h
2873 05-05-2020 23:20:00 8.3 C 5.65 g/m*3 8.3 C 1.6 km/h
2874 05-05-2020 23:25:00 8.2 C 5.61 g/m*3 8.2 C 1.6 km/h
2875 05-05-2020 23:30:00 8.1 C 5.57 g/m*3 8.1 C 3.2 km/h
Sensor: Nr:Datum:Temp:Abs-Feuchte:Windchill:Wind:
Aussen-T/F 2876 05-05-2020 23:35:00 8 C 5.62 g/m*3 8 C 1.6 km/h
2877 05-05-2020 23:40:00 7.9 C 5.67 g/m*3 7.9 C 4.8 km/h
2878 05-05-2020 23:45:00 7.8 C 5.63 g/m*3 6.83 C 6.4 km/h
2879 05-05-2020 23:50:00 7.7 C 5.51 g/m*3 7.7 C 4.8 km/h
2880 05-05-2020 23:55:00 7.6 C 5.56 g/m*3 7.6 C 3.2 km/h
2881 06-05-2020 00:00:00 7.6 C 5.64 g/m*3 7.6 C 3.2 km/h
2882 06-05-2020 00:05:00 7.5 C 5.6 g/m*3 7.5 C 3.2 km/h
2883 06-05-2020 00:10:00 7.4 C 5.57 g/m*3 7.4 C 4.8 km/h
2884 06-05-2020 00:15:00 7.4 C 5.57 g/m*3 7.4 C 1.6 km/h
2885 06-05-2020 00:20:00 7.3 C 5.61 g/m*3 7.3 C 1.6 km/h
2886 06-05-2020 00:25:00 7.3 C 5.53 g/m*3 7.3 C 0 km/h
2887 06-05-2020 00:30:00 7.2 C 5.65 g/m*3 7.2 C 0 km/h
2888 06-05-2020 00:35:00 7.2 C 5.65 g/m*3 7.2 C 0 km/h
2889 06-05-2020 00:40:00 7.1 C 5.69 g/m*3 7.1 C 3.2 km/h
2890 06-05-2020 00:45:00 7 C 5.66 g/m*3 7 C 4.8 km/h
2891 06-05-2020 00:50:00 6.9 C 5.7 g/m*3 6.9 C 3.2 km/h
2892 06-05-2020 00:55:00 6.8 C 5.66 g/m*3 6.8 C 0 km/h
2893 06-05-2020 01:00:00 6.7 C 5.62 g/m*3 6.7 C 3.2 km/h
2894 06-05-2020 01:05:00 6.5 C 5.55 g/m*3 6.5 C 4.8 km/h
2895 06-05-2020 01:10:00 6.4 C 5.59 g/m*3 6.4 C 4.8 km/h
2896 06-05-2020 01:15:00 6.3 C 5.63 g/m*3 6.3 C 0 km/h
2897 06-05-2020 01:20:00 6.1 C 5.55 g/m*3 6.1 C 0 km/h
2898 06-05-2020 01:25:00 5.9 C 5.48 g/m*3 5.9 C 3.2 km/h
2899 06-05-2020 01:30:00 5.8 C 5.52 g/m*3 5.8 C 0 km/h
2900 06-05-2020 01:35:00 5.7 C 5.55 g/m*3 5.7 C 0 km/h
Sensor: Nr:Datum:Temp:Abs-Feuchte:Windchill:Wind:
Aussen-T/F 2901 06-05-2020 01:40:00 5.6 C 5.51 g/m*3 5.6 C 0 km/h
2902 06-05-2020 01:45:00 5.4 C 5.51 g/m*3 5.4 C 0 km/h
2903 06-05-2020 01:50:00 5.3 C 5.54 g/m*3 5.3 C 0 km/h
2904 06-05-2020 01:55:00 5.2 C 5.51 g/m*3 5.2 C 0 km/h
2905 06-05-2020 02:00:00 5 C 5.44 g/m*3 5 C 0 km/h
2906 06-05-2020 02:05:00 4.9 C 5.47 g/m*3 4.9 C 0 km/h
2907 06-05-2020 02:10:00 4.8 C 5.43 g/m*3 4.8 C 0 km/h
2908 06-05-2020 02:15:00 4.7 C 5.46 g/m*3 4.7 C 0 km/h
2909 06-05-2020 02:20:00 4.6 C 5.49 g/m*3 4.6 C 0 km/h
2910 06-05-2020 02:25:00 4.5 C 5.46 g/m*3 4.5 C 0 km/h
2911 06-05-2020 02:30:00 4.4 C 5.42 g/m*3 4.4 C 0 km/h
2912 06-05-2020 02:35:00 4.4 C 5.42 g/m*3 4.4 C 0 km/h
2913 06-05-2020 02:40:00 4.3 C 5.38 g/m*3 4.3 C 0 km/h
2914 06-05-2020 02:45:00 4.3 C 5.45 g/m*3 4.3 C 0 km/h
2915 06-05-2020 02:50:00 4.2 C 5.41 g/m*3 4.2 C 0 km/h
2916 06-05-2020 02:55:00 4.1 C 5.38 g/m*3 4.1 C 0 km/h
2917 06-05-2020 03:00:00 4 C 5.4 g/m*3 4 C 0 km/h
2918 06-05-2020 03:05:00 3.9 C 5.37 g/m*3 3.9 C 0 km/h
2919 06-05-2020 03:10:00 3.8 C 5.33 g/m*3 3.8 C 0 km/h
2920 06-05-2020 03:15:00 3.7 C 5.3 g/m*3 3.7 C 0 km/h
2921 06-05-2020 03:20:00 3.6 C 5.26 g/m*3 3.6 C 0 km/h
2922 06-05-2020 03:25:00 3.6 C 5.32 g/m*3 3.6 C 0 km/h
2923 06-05-2020 03:30:00 3.5 C 5.29 g/m*3 3.5 C 0 km/h
2924 06-05-2020 03:35:00 3.4 C 5.25 g/m*3 3.4 C 0 km/h
2925 06-05-2020 03:40:00 3.3 C 5.22 g/m*3 3.3 C 0 km/h
Sensor: Nr:Datum:Temp:Abs-Feuchte:Windchill:Wind:
Aussen-T/F 2926 06-05-2020 03:45:00 3.3 C 5.28 g/m*3 3.3 C 0 km/h
2927 06-05-2020 03:50:00 3.3 C 5.28 g/m*3 3.3 C 0 km/h
2928 06-05-2020 03:55:00 3.2 C 5.3 g/m*3 3.2 C 0 km/h
2929 06-05-2020 04:00:00 3.2 C 5.24 g/m*3 3.2 C 0 km/h
2930 06-05-2020 04:05:00 3.2 C 5.24 g/m*3 3.2 C 0 km/h
2931 06-05-2020 04:10:00 3.1 C 5.27 g/m*3 3.1 C 0 km/h
2932 06-05-2020 04:15:00 3.1 C 5.27 g/m*3 3.1 C 0 km/h
2933 06-05-2020 04:20:00 3.1 C 5.27 g/m*3 3.1 C 0 km/h
2934 06-05-2020 04:25:00 3.1 C 5.27 g/m*3 3.1 C 0 km/h
2935 06-05-2020 04:30:00 3.1 C 5.33 g/m*3 3.1 C 0 km/h
2936 06-05-2020 04:35:00 2.9 C 5.2 g/m*3 2.9 C 0 km/h
2937 06-05-2020 04:40:00 2.9 C 5.26 g/m*3 2.9 C 0 km/h
2938 06-05-2020 04:45:00 2.9 C 5.26 g/m*3 2.9 C 0 km/h
2939 06-05-2020 04:50:00 2.8 C 5.22 g/m*3 2.8 C 0 km/h
2940 06-05-2020 04:55:00 2.8 C 5.22 g/m*3 2.8 C 0 km/h
2941 06-05-2020 05:00:00 2.8 C 5.28 g/m*3 2.8 C 1.6 km/h
2942 06-05-2020 05:05:00 2.8 C 5.28 g/m*3 2.8 C 0 km/h
2943 06-05-2020 05:10:00 2.7 C 5.24 g/m*3 2.7 C 0 km/h
2944 06-05-2020 05:15:00 2.7 C 5.24 g/m*3 2.7 C 0 km/h
2945 06-05-2020 05:20:00 2.6 C 5.21 g/m*3 2.6 C 0 km/h
2946 06-05-2020 05:25:00 2.6 C 5.21 g/m*3 2.6 C 0 km/h
2947 06-05-2020 05:30:00 2.6 C 5.21 g/m*3 2.6 C 0 km/h
2948 06-05-2020 05:35:00 2.5 C 5.17 g/m*3 2.5 C 0 km/h
2949 06-05-2020 05:40:00 2.5 C 5.17 g/m*3 2.5 C 0 km/h
2950 06-05-2020 05:45:00 2.4 C 5.14 g/m*3 2.4 C 0 km/h
Sensor: Nr:Datum:Temp:Abs-Feuchte:Windchill:Wind:
Aussen-T/F 2951 06-05-2020 05:50:00 2.3 C 5.1 g/m*3 2.3 C 0 km/h
2952 06-05-2020 05:55:00 2.2 C 5.07 g/m*3 2.2 C 0 km/h
2953 06-05-2020 06:00:00 2.2 C 5.13 g/m*3 2.2 C 0 km/h
2954 06-05-2020 06:05:00 2.1 C 5.09 g/m*3 2.1 C 0 km/h
2955 06-05-2020 06:10:00 2.2 C 5.13 g/m*3 2.2 C 0 km/h
2956 06-05-2020 06:15:00 2.1 C 5.09 g/m*3 2.1 C 0 km/h
2957 06-05-2020 06:20:00 2.1 C 5.09 g/m*3 2.1 C 0 km/h
2958 06-05-2020 06:25:00 2.1 C 5.15 g/m*3 2.1 C 0 km/h
2959 06-05-2020 06:30:00 2 C 5.11 g/m*3 2 C 0 km/h
2960 06-05-2020 06:35:00 2 C 5.11 g/m*3 2 C 0 km/h
2961 06-05-2020 06:40:00 2.1 C 5.15 g/m*3 2.1 C 0 km/h
2962 06-05-2020 06:45:00 2.1 C 5.15 g/m*3 2.1 C 0 km/h
2963 06-05-2020 06:50:00 2.1 C 5.15 g/m*3 2.1 C 0 km/h
2964 06-05-2020 06:55:00 2.1 C 5.15 g/m*3 2.1 C 0 km/h
2965 06-05-2020 07:00:00 2.2 C 5.18 g/m*3 2.2 C 0 km/h
2966 06-05-2020 07:05:00 2.2 C 5.24 g/m*3 2.2 C 0 km/h
2967 06-05-2020 07:10:00 2.2 C 5.24 g/m*3 2.2 C 0 km/h
2968 06-05-2020 07:15:00 2.3 C 5.27 g/m*3 2.3 C 0 km/h
2969 06-05-2020 07:20:00 2.3 C 5.27 g/m*3 2.3 C 0 km/h
2970 06-05-2020 07:25:00 2.4 C 5.31 g/m*3 2.4 C 0 km/h
2971 06-05-2020 07:30:00 2.4 C 5.31 g/m*3 2.4 C 1.6 km/h
2972 06-05-2020 07:35:00 2.5 C 5.35 g/m*3 2.5 C 0 km/h
2973 06-05-2020 07:40:00 2.6 C 5.38 g/m*3 2.6 C 0 km/h
2974 06-05-2020 07:45:00 2.6 C 5.38 g/m*3 2.6 C 0 km/h
2975 06-05-2020 07:50:00 2.7 C 5.42 g/m*3 2.7 C 0 km/h
Sensor: Nr:Datum:Temp:Abs-Feuchte:Windchill:Wind:
Aussen-T/F 2976 06-05-2020 07:55:00 2.8 C 5.46 g/m*3 2.8 C 1.6 km/h
2977 06-05-2020 08:00:00 2.9 C 5.55 g/m*3 2.9 C 0 km/h
2978 06-05-2020 08:05:00 2.9 C 5.55 g/m*3 2.9 C 0 km/h
2979 06-05-2020 08:10:00 3.1 C 5.63 g/m*3 3.1 C 0 km/h
2980 06-05-2020 08:15:00 3.2 C 5.66 g/m*3 3.2 C 1.6 km/h
2981 06-05-2020 08:20:00 3.2 C 5.66 g/m*3 3.2 C 0 km/h
2982 06-05-2020 08:25:00 3.3 C 5.7 g/m*3 3.3 C 0 km/h
2983 06-05-2020 08:30:00 3.4 C 5.74 g/m*3 3.4 C 0 km/h
2984 06-05-2020 08:35:00 3.7 C 5.86 g/m*3 3.7 C 0 km/h
2985 06-05-2020 08:40:00 3.8 C 5.9 g/m*3 3.8 C 0 km/h
2986 06-05-2020 08:45:00 4 C 5.98 g/m*3 4 C 0 km/h
2987 06-05-2020 08:50:00 4.2 C 6.06 g/m*3 4.2 C 0 km/h
2988 06-05-2020 08:55:00 4.4 C 6.14 g/m*3 4.4 C 0 km/h
2989 06-05-2020 09:00:00 4.6 C 6.22 g/m*3 4.6 C 1.6 km/h
2990 06-05-2020 09:05:00 4.8 C 6.3 g/m*3 4.8 C 1.6 km/h
2991 06-05-2020 09:10:00 5.1 C 6.43 g/m*3 5.1 C 0 km/h
2992 06-05-2020 09:15:00 5.3 C 6.52 g/m*3 5.3 C 0 km/h
2993 06-05-2020 09:20:00 5.4 C 6.49 g/m*3 5.4 C 1.6 km/h
2994 06-05-2020 09:25:00 5.7 C 6.62 g/m*3 5.7 C 0 km/h
2995 06-05-2020 09:30:00 5.9 C 6.63 g/m*3 5.9 C 0 km/h
2996 06-05-2020 09:35:00 6.1 C 6.72 g/m*3 6.1 C 1.6 km/h
2997 06-05-2020 09:40:00 6.3 C 6.74 g/m*3 6.3 C 0 km/h
2998 06-05-2020 09:45:00 6.4 C 6.78 g/m*3 6.4 C 0 km/h
2999 06-05-2020 09:50:00 6.6 C 6.87 g/m*3 6.6 C 0 km/h
3000 06-05-2020 09:55:00 6.8 C 6.88 g/m*3 6.8 C 0 km/h
Sensor: Nr:Datum:Temp:Abs-Feuchte:Windchill:Wind:
Aussen-T/F 3001 06-05-2020 10:00:00 7 C 6.97 g/m*3 7 C 0 km/h
3002 06-05-2020 10:05:00 7.2 C 6.99 g/m*3 7.2 C 0 km/h
3003 06-05-2020 10:10:00 7.4 C 7 g/m*3 7.4 C 1.6 km/h
3004 06-05-2020 10:15:00 7.7 C 6.81 g/m*3 7.7 C 3.2 km/h
3005 06-05-2020 10:20:00 8 C 6.61 g/m*3 8 C 1.6 km/h
3006 06-05-2020 10:25:00 8.6 C 6.27 g/m*3 7.34 C 8.1 km/h
3007 06-05-2020 10:30:00 9.7 C 5.99 g/m*3 8.33 C 9.7 km/h
3008 06-05-2020 10:35:00 10.6 C 6.54 g/m*3 8.92 C 12.9 km/h
3009 06-05-2020 10:40:00 11.2 C 5.37 g/m*3 11.2 C 12.9 km/h
3010 06-05-2020 10:45:00 11.7 C 5.54 g/m*3 11.7 C 14.5 km/h
3011 06-05-2020 10:50:00 11.9 C 5.4 g/m*3 11.9 C 11.3 km/h
3012 06-05-2020 10:55:00 12.2 C 5.83 g/m*3 12.2 C 17.7 km/h
3013 06-05-2020 11:00:00 12.2 C 5.07 g/m*3 12.2 C 8.1 km/h
3014 06-05-2020 11:05:00 12.3 C 5.21 g/m*3 12.3 C 4.8 km/h
3015 06-05-2020 11:10:00 12.5 C 4.84 g/m*3 12.5 C 16.1 km/h
3016 06-05-2020 11:15:00 12.7 C 4.79 g/m*3 12.7 C 9.7 km/h
3017 06-05-2020 11:20:00 12.8 C 4.93 g/m*3 12.8 C 4.8 km/h
3018 06-05-2020 11:25:00 12.9 C 4.96 g/m*3 12.9 C 8.1 km/h
3019 06-05-2020 11:30:00 13 C 5.1 g/m*3 13 C 6.4 km/h
3020 06-05-2020 11:35:00 13.2 C 4.71 g/m*3 13.2 C 8.1 km/h
3021 06-05-2020 11:40:00 13.2 C 4.71 g/m*3 13.2 C 8.1 km/h
3022 06-05-2020 11:45:00 13.2 C 4.82 g/m*3 13.2 C 14.5 km/h
3023 06-05-2020 11:50:00 13.3 C 4.74 g/m*3 13.3 C 16.1 km/h
3024 06-05-2020 11:55:00 13.4 C 4.42 g/m*3 13.4 C 12.9 km/h
3025 06-05-2020 12:00:00 13.5 C 4.44 g/m*3 13.5 C 6.4 km/h
Sensor: Nr:Datum:Temp:Abs-Feuchte:Windchill:Wind:
Aussen-T/F 3026 06-05-2020 12:05:00 13.6 C 4.71 g/m*3 13.6 C 4.8 km/h
3027 06-05-2020 12:10:00 13.4 C 4.65 g/m*3 13.4 C 9.7 km/h
3028 06-05-2020 12:15:00 13.5 C 4.56 g/m*3 13.5 C 6.4 km/h
3029 06-05-2020 12:20:00 13.6 C 4.59 g/m*3 13.6 C 6.4 km/h
3030 06-05-2020 12:25:00 13.7 C 4.62 g/m*3 13.7 C 6.4 km/h
3031 06-05-2020 12:30:00 13.8 C 4.77 g/m*3 13.8 C 11.3 km/h
3032 06-05-2020 12:35:00 13.9 C 4.56 g/m*3 13.9 C 14.5 km/h
3033 06-05-2020 12:40:00 14 C 4.7 g/m*3 14 C 16.1 km/h
3034 06-05-2020 12:45:00 13.9 C 4.8 g/m*3 13.9 C 8.1 km/h
3035 06-05-2020 12:50:00 14 C 4.82 g/m*3 14 C 9.7 km/h
3036 06-05-2020 12:55:00 14.1 C 4.73 g/m*3 14.1 C 9.7 km/h
3037 06-05-2020 13:00:00 14.1 C 4.73 g/m*3 14.1 C 11.3 km/h
3038 06-05-2020 13:05:00 14.2 C 4.76 g/m*3 14.2 C 12.9 km/h
3039 06-05-2020 13:10:00 14.2 C 4.76 g/m*3 14.2 C 6.4 km/h
3040 06-05-2020 13:15:00 14.3 C 4.91 g/m*3 14.3 C 12.9 km/h
3041 06-05-2020 13:20:00 14.5 C 4.85 g/m*3 14.5 C 9.7 km/h
3042 06-05-2020 13:25:00 14.7 C 5.16 g/m*3 14.7 C 9.7 km/h
3043 06-05-2020 13:30:00 14.7 C 4.91 g/m*3 14.7 C 12.9 km/h
3044 06-05-2020 13:35:00 14.7 C 5.04 g/m*3 14.7 C 8.1 km/h
3045 06-05-2020 13:40:00 14.8 C 5.07 g/m*3 14.8 C 6.4 km/h
3046 06-05-2020 13:45:00 14.8 C 5.19 g/m*3 14.8 C 8.1 km/h
3047 06-05-2020 13:50:00 15 C 5.13 g/m*3 15 C 9.7 km/h
3048 06-05-2020 13:55:00 15.2 C 5.19 g/m*3 15.2 C 16.1 km/h
3049 06-05-2020 14:00:00 15.2 C 5.32 g/m*3 15.2 C 8.1 km/h
3050 06-05-2020 14:05:00 15.4 C 5.26 g/m*3 15.4 C 11.3 km/h
Sensor: Nr:Datum:Temp:Abs-Feuchte:Windchill:Wind:
Aussen-T/F 3051 06-05-2020 14:10:00 15.5 C 5.16 g/m*3 15.5 C 8.1 km/h
3052 06-05-2020 14:15:00 15.6 C 4.65 g/m*3 15.6 C 14.5 km/h
3053 06-05-2020 14:20:00 15.6 C 4.65 g/m*3 15.6 C 12.9 km/h
3054 06-05-2020 14:25:00 15.7 C 4.82 g/m*3 15.7 C 9.7 km/h
3055 06-05-2020 14:30:00 15.7 C 4.42 g/m*3 15.7 C 12.9 km/h
3056 06-05-2020 14:35:00 15.8 C 4.31 g/m*3 15.8 C 6.4 km/h
3057 06-05-2020 14:40:00 15.9 C 4.74 g/m*3 15.9 C 12.9 km/h
3058 06-05-2020 14:45:00 16.2 C 4.83 g/m*3 16.2 C 14.5 km/h
3059 06-05-2020 14:50:00 16.4 C 4.89 g/m*3 16.4 C 12.9 km/h
3060 06-05-2020 14:55:00 16.7 C 4.69 g/m*3 16.7 C 9.7 km/h
3061 06-05-2020 15:00:00 16.7 C 4.97 g/m*3 16.7 C 14.5 km/h
3062 06-05-2020 15:05:00 16.9 C 4.75 g/m*3 16.9 C 12.9 km/h
3063 06-05-2020 15:10:00 16.9 C 4.6 g/m*3 16.9 C 9.7 km/h
3064 06-05-2020 15:15:00 17 C 5.21 g/m*3 17 C 8.1 km/h
3065 06-05-2020 15:20:00 17.1 C 4.8 g/m*3 17.1 C 11.3 km/h
3066 06-05-2020 15:25:00 17.1 C 4.66 g/m*3 17.1 C 11.3 km/h
3067 06-05-2020 15:30:00 17.1 C 4.8 g/m*3 17.1 C 4.8 km/h
3068 06-05-2020 15:35:00 17.5 C 4.47 g/m*3 17.5 C 16.1 km/h
3069 06-05-2020 15:40:00 17.6 C 4.95 g/m*3 17.6 C 8.1 km/h
3070 06-05-2020 15:45:00 17.8 C 4.71 g/m*3 17.8 C 12.9 km/h
3071 06-05-2020 15:50:00 17.9 C 4.89 g/m*3 17.9 C 14.5 km/h
3072 06-05-2020 15:55:00 18.2 C 4.97 g/m*3 18.2 C 9.7 km/h
3073 06-05-2020 16:00:00 18.4 C 4.88 g/m*3 18.4 C 17.7 km/h
3074 06-05-2020 16:05:00 18.3 C 5 g/m*3 18.3 C 14.5 km/h
3075 06-05-2020 16:10:00 18.4 C 5.19 g/m*3 18.4 C 12.9 km/h
Sensor: Nr:Datum:Temp:Abs-Feuchte:Windchill:Wind:
Aussen-T/F 3076 06-05-2020 16:15:00 18.8 C 4.99 g/m*3 18.8 C 3.2 km/h
3077 06-05-2020 16:20:00 19.3 C 5.14 g/m*3 19.3 C 3.2 km/h
3078 06-05-2020 16:25:00 19.3 C 4.98 g/m*3 19.3 C 14.5 km/h
3079 06-05-2020 16:30:00 19.1 C 5.08 g/m*3 19.1 C 9.7 km/h
3080 06-05-2020 16:35:00 19.2 C 4.95 g/m*3 19.2 C 11.3 km/h
3081 06-05-2020 16:40:00 19.1 C 4.75 g/m*3 19.1 C 9.7 km/h
3082 06-05-2020 16:45:00 19.1 C 4.92 g/m*3 19.1 C 9.7 km/h
3083 06-05-2020 16:50:00 19 C 4.89 g/m*3 19 C 11.3 km/h
3084 06-05-2020 16:55:00 18.9 C 4.86 g/m*3 18.9 C 6.4 km/h
3085 06-05-2020 17:00:00 19.2 C 5.11 g/m*3 19.2 C 9.7 km/h
3086 06-05-2020 17:05:00 19.4 C 5.01 g/m*3 19.4 C 11.3 km/h
3087 06-05-2020 17:10:00 19.6 C 5.23 g/m*3 19.6 C 6.4 km/h
3088 06-05-2020 17:15:00 19.8 C 5.47 g/m*3 19.8 C 6.4 km/h
3089 06-05-2020 17:20:00 19.8 C 5.12 g/m*3 19.8 C 6.4 km/h
3090 06-05-2020 17:25:00 19.8 C 5.12 g/m*3 19.8 C 4.8 km/h
3091 06-05-2020 17:30:00 19.9 C 4.98 g/m*3 19.9 C 8.1 km/h
3092 06-05-2020 17:35:00 19.7 C 5.43 g/m*3 19.7 C 8.1 km/h
3093 06-05-2020 17:40:00 19.7 C 4.92 g/m*3 19.7 C 9.7 km/h
3094 06-05-2020 17:45:00 19.7 C 5.26 g/m*3 19.7 C 3.2 km/h
3095 06-05-2020 17:50:00 19.9 C 5.15 g/m*3 19.9 C 4.8 km/h
3096 06-05-2020 17:55:00 19.9 C 5.15 g/m*3 19.9 C 6.4 km/h
3097 06-05-2020 18:00:00 20.1 C 5.21 g/m*3 20.1 C 6.4 km/h
3098 06-05-2020 18:05:00 20.2 C 5.77 g/m*3 20.2 C 4.8 km/h
3099 06-05-2020 18:10:00 20.3 C 5.28 g/m*3 20.3 C 8.1 km/h
3100 06-05-2020 18:15:00 20.1 C 5.39 g/m*3 20.1 C 6.4 km/h
Sensor: Nr:Datum:Temp:Abs-Feuchte:Windchill:Wind:
Aussen-T/F 3101 06-05-2020 18:20:00 20.2 C 5.42 g/m*3 20.2 C 6.4 km/h
3102 06-05-2020 18:25:00 20.3 C 5.1 g/m*3 20.3 C 6.4 km/h
3103 06-05-2020 18:30:00 20.2 C 5.07 g/m*3 20.2 C 6.4 km/h
3104 06-05-2020 18:35:00 20.2 C 5.25 g/m*3 20.2 C 6.4 km/h
3105 06-05-2020 18:40:00 20.3 C 5.28 g/m*3 20.3 C 4.8 km/h
3106 06-05-2020 18:45:00 20.4 C 5.13 g/m*3 20.4 C 4.8 km/h
3107 06-05-2020 18:50:00 20.3 C 5.1 g/m*3 20.3 C 6.4 km/h
3108 06-05-2020 18:55:00 20.2 C 5.25 g/m*3 20.2 C 8.1 km/h
3109 06-05-2020 19:00:00 19.9 C 5.15 g/m*3 19.9 C 6.4 km/h
3110 06-05-2020 19:05:00 19.8 C 5.12 g/m*3 19.8 C 6.4 km/h
3111 06-05-2020 19:10:00 19.8 C 5.12 g/m*3 19.8 C 8.1 km/h
3112 06-05-2020 19:15:00 19.6 C 5.4 g/m*3 19.6 C 6.4 km/h
3113 06-05-2020 19:20:00 19.4 C 5.51 g/m*3 19.4 C 8.1 km/h
3114 06-05-2020 19:25:00 19.1 C 5.08 g/m*3 19.1 C 4.8 km/h
3115 06-05-2020 19:30:00 18.9 C 5.35 g/m*3 18.9 C 3.2 km/h
3116 06-05-2020 19:35:00 18.8 C 5.48 g/m*3 18.8 C 3.2 km/h
3117 06-05-2020 19:40:00 18.7 C 5.12 g/m*3 18.7 C 3.2 km/h
3118 06-05-2020 19:45:00 18.6 C 5.25 g/m*3 18.6 C 4.8 km/h
3119 06-05-2020 19:50:00 18.5 C 5.38 g/m*3 18.5 C 3.2 km/h
3120 06-05-2020 19:55:00 18.4 C 6.92 g/m*3 18.4 C 1.6 km/h
3121 06-05-2020 20:00:00 18.3 C 6.1 g/m*3 18.3 C 1.6 km/h
3122 06-05-2020 20:05:00 18.2 C 6.06 g/m*3 18.2 C 1.6 km/h
3123 06-05-2020 20:10:00 18.1 C 7.26 g/m*3 18.1 C 3.2 km/h
3124 06-05-2020 20:15:00 17.8 C 7.29 g/m*3 17.8 C 4.8 km/h
3125 06-05-2020 20:20:00 17.2 C 7.18 g/m*3 17.2 C 4.8 km/h
Sensor: Nr:Datum:Temp:Abs-Feuchte:Windchill:Wind:
Aussen-T/F 3126 06-05-2020 20:25:00 16.7 C 7.25 g/m*3 16.7 C 4.8 km/h
3127 06-05-2020 20:30:00 16.1 C 7.13 g/m*3 16.1 C 4.8 km/h
3128 06-05-2020 20:35:00 15.4 C 6.83 g/m*3 15.4 C 6.4 km/h
3129 06-05-2020 20:40:00 14.8 C 6.84 g/m*3 14.8 C 6.4 km/h
3130 06-05-2020 20:45:00 14.3 C 6.76 g/m*3 14.3 C 8.1 km/h
3131 06-05-2020 20:50:00 13.9 C 6.83 g/m*3 13.9 C 8.1 km/h
3132 06-05-2020 20:55:00 13.6 C 6.59 g/m*3 13.6 C 8.1 km/h
3133 06-05-2020 21:00:00 13.3 C 6.47 g/m*3 13.3 C 8.1 km/h
3134 06-05-2020 21:05:00 13 C 6.24 g/m*3 13 C 8.1 km/h
3135 06-05-2020 21:10:00 12.8 C 6.27 g/m*3 12.8 C 8.1 km/h
3136 06-05-2020 21:15:00 12.6 C 6.53 g/m*3 12.6 C 8.1 km/h
3137 06-05-2020 21:20:00 12.4 C 6.56 g/m*3 12.4 C 8.1 km/h
3138 06-05-2020 21:25:00 12.2 C 6.58 g/m*3 12.2 C 8.1 km/h
3139 06-05-2020 21:30:00 12 C 6.61 g/m*3 12 C 6.4 km/h
3140 06-05-2020 21:35:00 11.8 C 6.84 g/m*3 11.8 C 3.2 km/h
3141 06-05-2020 21:40:00 11.6 C 6.86 g/m*3 11.6 C 0 km/h
3142 06-05-2020 21:45:00 11.3 C 6.83 g/m*3 11.3 C 3.2 km/h
3143 06-05-2020 21:50:00 10.9 C 6.66 g/m*3 10.9 C 1.6 km/h
3144 06-05-2020 21:55:00 10.7 C 6.48 g/m*3 10.7 C 3.2 km/h
3145 06-05-2020 22:00:00 10.6 C 6.73 g/m*3 10.6 C 3.2 km/h
3146 06-05-2020 22:05:00 10.3 C 6.61 g/m*3 10.3 C 3.2 km/h
3147 06-05-2020 22:10:00 10.1 C 6.62 g/m*3 10.1 C 4.8 km/h
3148 06-05-2020 22:15:00 9.9 C 6.54 g/m*3 9.9 C 3.2 km/h
3149 06-05-2020 22:20:00 9.8 C 6.59 g/m*3 9.8 C 0 km/h
3150 06-05-2020 22:25:00 9.7 C 6.45 g/m*3 9.02 C 6.4 km/h
Sensor: Nr:Datum:Temp:Abs-Feuchte:Windchill:Wind:
Aussen-T/F 3151 06-05-2020 22:30:00 9.7 C 6.55 g/m*3 9.7 C 1.6 km/h
3152 06-05-2020 22:35:00 9.6 C 6.6 g/m*3 9.6 C 0 km/h
3153 06-05-2020 22:40:00 9.4 C 6.51 g/m*3 9.4 C 0 km/h
3154 06-05-2020 22:45:00 9.2 C 6.43 g/m*3 9.2 C 0 km/h
3155 06-05-2020 22:50:00 9.1 C 6.48 g/m*3 9.1 C 0 km/h
3156 06-05-2020 22:55:00 9 C 6.44 g/m*3 9 C 0 km/h
3157 06-05-2020 23:00:00 8.8 C 6.35 g/m*3 8.8 C 0 km/h
3158 06-05-2020 23:05:00 8.7 C 6.4 g/m*3 8.7 C 0 km/h
3159 06-05-2020 23:10:00 8.6 C 6.44 g/m*3 8.6 C 0 km/h
3160 06-05-2020 23:15:00 8.4 C 6.36 g/m*3 8.4 C 0 km/h
3161 06-05-2020 23:20:00 8.2 C 6.36 g/m*3 8.2 C 0 km/h
3162 06-05-2020 23:25:00 8.1 C 6.41 g/m*3 8.1 C 0 km/h
3163 06-05-2020 23:30:00 7.9 C 6.32 g/m*3 7.9 C 0 km/h
3164 06-05-2020 23:35:00 7.8 C 6.37 g/m*3 7.8 C 0 km/h
3165 06-05-2020 23:40:00 7.7 C 6.32 g/m*3 7.7 C 0 km/h
3166 06-05-2020 23:45:00 7.6 C 6.28 g/m*3 7.6 C 0 km/h
3167 06-05-2020 23:50:00 7.4 C 6.2 g/m*3 7.4 C 0 km/h
3168 06-05-2020 23:55:00 7.3 C 6.16 g/m*3 7.3 C 0 km/h
3169 07-05-2020 00:00:00 7.2 C 6.2 g/m*3 7.2 C 0 km/h
3170 07-05-2020 00:05:00 7.2 C 6.2 g/m*3 7.2 C 0 km/h
3171 07-05-2020 00:10:00 7.1 C 6.16 g/m*3 7.1 C 0 km/h
3172 07-05-2020 00:15:00 7 C 6.2 g/m*3 7 C 0 km/h
3173 07-05-2020 00:20:00 6.9 C 6.16 g/m*3 6.9 C 0 km/h
3174 07-05-2020 00:25:00 6.8 C 6.12 g/m*3 6.8 C 0 km/h
3175 07-05-2020 00:30:00 6.8 C 6.19 g/m*3 6.8 C 0 km/h
Sensor: Nr:Datum:Temp:Abs-Feuchte:Windchill:Wind:
Aussen-T/F 3176 07-05-2020 00:35:00 6.7 C 6.15 g/m*3 6.7 C 0 km/h
3177 07-05-2020 00:40:00 6.7 C 6.15 g/m*3 6.7 C 0 km/h
3178 07-05-2020 00:45:00 6.6 C 6.11 g/m*3 6.6 C 3.2 km/h
3179 07-05-2020 00:50:00 6.6 C 6.11 g/m*3 6.6 C 3.2 km/h
3180 07-05-2020 00:55:00 6.7 C 6.15 g/m*3 6.7 C 0 km/h
3181 07-05-2020 01:00:00 6.7 C 6.23 g/m*3 6.7 C 1.6 km/h
3182 07-05-2020 01:05:00 6.7 C 6.23 g/m*3 6.7 C 0 km/h
3183 07-05-2020 01:10:00 6.6 C 6.19 g/m*3 6.6 C 0 km/h
3184 07-05-2020 01:15:00 6.6 C 6.19 g/m*3 6.6 C 3.2 km/h
3185 07-05-2020 01:20:00 6.6 C 6.19 g/m*3 6.6 C 0 km/h
3186 07-05-2020 01:25:00 6.5 C 6.15 g/m*3 6.5 C 0 km/h
3187 07-05-2020 01:30:00 6.4 C 6.11 g/m*3 6.4 C 0 km/h
3188 07-05-2020 01:35:00 6.3 C 6.07 g/m*3 6.3 C 0 km/h
3189 07-05-2020 01:40:00 6.3 C 6.14 g/m*3 6.3 C 3.2 km/h
3190 07-05-2020 01:45:00 6.2 C 6.1 g/m*3 6.2 C 0 km/h
3191 07-05-2020 01:50:00 6.1 C 6.06 g/m*3 6.1 C 0 km/h
3192 07-05-2020 01:55:00 6.1 C 6.06 g/m*3 6.1 C 0 km/h
3193 07-05-2020 02:00:00 5.9 C 5.98 g/m*3 5.9 C 0 km/h
3194 07-05-2020 02:05:00 5.8 C 6.02 g/m*3 5.8 C 0 km/h
3195 07-05-2020 02:10:00 5.8 C 6.02 g/m*3 5.8 C 0 km/h
3196 07-05-2020 02:15:00 5.8 C 6.09 g/m*3 5.8 C 0 km/h
3197 07-05-2020 02:20:00 5.7 C 6.05 g/m*3 5.7 C 0 km/h
3198 07-05-2020 02:25:00 5.6 C 6.01 g/m*3 5.6 C 0 km/h
3199 07-05-2020 02:30:00 5.6 C 6.01 g/m*3 5.6 C 0 km/h
3200 07-05-2020 02:35:00 5.4 C 5.93 g/m*3 5.4 C 0 km/h
Sensor: Nr:Datum:Temp:Abs-Feuchte:Windchill:Wind:
Aussen-T/F 3201 07-05-2020 02:40:00 5.3 C 5.96 g/m*3 5.3 C 0 km/h
3202 07-05-2020 02:45:00 5.3 C 5.96 g/m*3 5.3 C 0 km/h
3203 07-05-2020 02:50:00 5.2 C 5.92 g/m*3 5.2 C 0 km/h
3204 07-05-2020 02:55:00 5.1 C 5.88 g/m*3 5.1 C 0 km/h
3205 07-05-2020 03:00:00 5 C 5.84 g/m*3 5 C 0 km/h
3206 07-05-2020 03:05:00 5 C 5.91 g/m*3 5 C 0 km/h
3207 07-05-2020 03:10:00 4.9 C 5.87 g/m*3 4.9 C 0 km/h
3208 07-05-2020 03:15:00 4.9 C 5.87 g/m*3 4.9 C 0 km/h
3209 07-05-2020 03:20:00 4.8 C 5.83 g/m*3 4.8 C 0 km/h
3210 07-05-2020 03:25:00 4.8 C 5.9 g/m*3 4.8 C 0 km/h
3211 07-05-2020 03:30:00 4.8 C 5.9 g/m*3 4.8 C 0 km/h
3212 07-05-2020 03:35:00 4.8 C 5.9 g/m*3 4.8 C 0 km/h
3213 07-05-2020 03:40:00 4.8 C 5.9 g/m*3 4.8 C 0 km/h
3214 07-05-2020 03:45:00 4.7 C 5.86 g/m*3 4.7 C 0 km/h
3215 07-05-2020 03:50:00 4.7 C 5.93 g/m*3 4.7 C 0 km/h
3216 07-05-2020 03:55:00 4.7 C 5.93 g/m*3 4.7 C 0 km/h
3217 07-05-2020 04:00:00 4.7 C 5.93 g/m*3 4.7 C 0 km/h
3218 07-05-2020 04:05:00 4.6 C 5.89 g/m*3 4.6 C 0 km/h
3219 07-05-2020 04:10:00 4.5 C 5.85 g/m*3 4.5 C 0 km/h
3220 07-05-2020 04:15:00 4.4 C 5.81 g/m*3 4.4 C 0 km/h
3221 07-05-2020 04:20:00 4.4 C